     2              OBSERVATION DATA    GPS                 RINEX VERSION / TYPE
teqc 1997Sep28 Duncan Agnew 19980804 18:54:45UTC            PGM / RUN BY / DATE
                                                            COMMENT
BIT 2 OF LLI FLAGS DATA COLLECTED UNDER A-S CONDITION       COMMENT
BIT 2 OF LLI FLAGS DATA COLLECTED UNDER A-S CONDITION       COMMENT
Original Marker Name: NCMN                                  COMMENT
Campaign Name: Pinyon Polygon 1991                          COMMENT
4-Character Station Name: PINY                              COMMENT
6-Character Antenna Code: TRMSST                            COMMENT
Vertical Measurement Point: BGP                             COMMENT
Vertical Offset to Rinex Ref. Point: 0.0597                 COMMENT
Radial Measurement Point: NGP                               COMMENT
Radial Offset to Rinex Ref. Point: 0.2334                   COMMENT
Antenna Height from Field Measurement: 1.5070 m             COMMENT
Original XYZ: -2369633.9588 -4761323.3816 3511108.2781      COMMENT
New XYZ position is based on association with SCEC monument COMMENT
E1D0K5S1+0011. Position of that monument is believed to be  COMMENT
valid to within 1 m horizontally; vertical accuracy         COMMENT
should be no worse than 3-times this value.                 COMMENT
                                                            COMMENT
Revised Rinex header created by UCSD GPS archive for        COMMENT
GSAC on 12-Apr-1999 (1999:102) 10:29:54 GMT                 COMMENT
For assistance contact dagnew@ucsd.edu or hjohnson@ucsd.edu COMMENT
                                                            COMMENT
PINYON FLAT NCMN 1981                                       MARKER NAME
Johnson SCRIPPS INSTITUTION OF OCEANOGRAPHY                 OBSERVER / AGENCY
422 TRIMBLE 4000 SST NP 4.11 / SP 4.10                      REC # / TYPE / VERS
25 TR 4000SST L1/L2 GEO                                     ANT # / TYPE
 -2369636.0000 -4761325.0000  3511116.0000                  APPROX POSITION XYZ
        1.4291        0.0000        0.0000                  ANTENNA: DELTA H/E/N
     1     1     0                                          WAVELENGTH FACT L1/2
     3    C1    L1    L2                                    # / TYPES OF OBSERV
     0                                                      INTERVAL
  1991     4    30    21    56    0.000000                  TIME OF FIRST OBS
  1991     5     1     2     5   15.000000                  TIME OF LAST OBS
     0                                                      # OF SATELLITES
                                                            END OF HEADER
 91  4 30 21 56  0.0000000  0  6G 2G15G 6G11G13G19
  21026428.2424         -0.93748
  24417784.5704         -0.81055
  21914244.7114         -0.83656
  24886518.0004         -0.21855
  24505117.1954         -0.86355
  22320375.5784         -0.10056
 91  4 30 21 56 15.0000000  0  7G 2G15G 6G11G13G19G16
  21020139.5314     -33048.67048
  24407436.7274     -54398.78545
  21903586.2734     -56015.30347
  24890101.0394      18811.46345
  24488284.7114     -88469.40544
  22320688.6564       1648.77446
  25213633.4774       2582.48042
 91  4 30 21 56 30.0000000  0  7G 2G15G 6G11G13G19G16
  21013862.2274     -66036.10548        -0.23973
  24397092.8984    -108715.12945        -0.10071
  21892932.0784    -112001.25947        -0.33372
  24893696.1484      37695.38045        -0.49071
  24471450.6644    -176918.01544
  22321016.4384       3369.07846        -0.31672
  25214136.9534       5204.20343
 91  4 30 21 56 45.0000000  0  7G 2G15G 6G11G13G19G16
  21007595.2664     -98968.52848    -25661.84363
  24386773.1254    -162954.90645    -42264.78961
  21882283.5784    -167963.70447    -43607.40262
  24897301.6254      56645.94145     14766.14561
  24454620.0394    -265351.38443
  22321355.8834       5155.68346      1391.79062
  25214635.8914       7858.76742
 91  4 30 21 57  0.0000000  0  7G 2G15G 6G11G13G19G16
  21001338.7814    -131844.51748    -51279.47463
  24376467.2664    -217115.91445    -84468.06361
  21871638.4844    -223900.82747    -87194.73862
  24900927.6094      75664.40945     29585.69361
  24437793.3834    -353767.76144
  22321709.9224       7010.45146      2837.01962
  25215152.7814      10547.32342
 91  4 30 21 57 15.0000000  0  6G 2G15G 6G11G13G19
  20995093.6254    -164663.58548    -76852.75263
  24366179.8984    -271197.03645   -126609.15161
  21861001.0474    -279811.80947   -130761.69962
  24904552.3674      94751.06645     44458.38661
  24420970.7504    -442166.06243
  22322076.5554       8933.78446      4335.68862
 91  4 30 21 57 30.0000000  0  6G 2G15G 6G11G13G19
  20988859.1174    -197423.66748   -102380.06063
  24355902.3284    -325196.04245   -168686.17561
  21850364.9844    -335694.41947   -174306.55762
  24908202.3204     113907.56845     59385.48261
  24404153.9844    -530543.61343        -0.25171
  22322457.2814      10927.74746      5889.38062
 91  4 30 21 57 45.0000000  0  6G 2G15G 6G11G13G19
  20982636.3134    -230129.83448   -127865.35763
  24345638.6094    -379117.96945   -210703.17461
  21839736.2584    -391553.48247   -217833.05962
  24911858.8284     133128.54345     74362.85361
  24387337.6804    -618905.14943    -68853.17361
  22322846.6804      12987.32146      7494.20462
 91  4 30 21 58  0.0000000  0  6G 2G15G 6G11G13G19
  20976423.0314    -262777.70948   -153305.23563
  24335398.0864    -432957.69545   -252656.12061
  21829111.6954    -447384.37446   -261337.60962
  24915528.4144     152418.07045     89393.63561
  24370526.2974    -707245.91243   -137689.88961
  22323253.6414      15117.04546      9153.68362
 91  4 30 21 58 15.0000000  0  6G 2G15G 6G11G13G19
  20970222.3364    -295364.07948   -178697.19163
  24325166.2974    -486711.58345   -294542.18161
  21818492.6804    -503183.80347   -304817.63462
  24919211.7504     171778.89445    104480.05461
  24353724.9144    -795562.30143
  22323671.1024      17320.00346     10870.23162
 91  4 30 21 58 30.0000000  0  6G 2G15G 6G11G13G19
  20964031.3444    -327893.56748   -204044.82363
  24314953.2424    -540383.90745   -336364.68961
  21807879.1174    -558955.97047   -348276.42462
  24922910.3364     191206.37645    119618.30961
  24336924.5554    -883858.29643
  22324103.1334      19591.81946     12640.43661
 91  4 30 21 58 45.0000000  0  6G 2G15G 6G11G13G19
  20957850.9844    -360370.60948   -229351.58463
  24304753.1564    -593978.61245   -378126.73761
  21797271.5084    -614705.02647   -391717.21962
  24926617.7344     210695.75645    134804.83461
  24320123.1334    -972138.14344
  22324548.3674      21927.94046     14460.73961
 91  4 30 21 59  0.0000000  0  6G 2G15G 6G11G13G19
  20951682.5004    -392789.94948   -254613.38963
  24294567.7194    -647489.99145   -419823.83361
  21786671.3444    -670425.43847   -435135.69462
  24930341.4924     230252.16845    150043.53861
  24303326.0704   -1060395.91343
  22325007.5004      24333.82246     16335.40862
 91  4 30 21 59 15.0000000  0  6G 2G15G 6G11G13G19
  20945525.0394    -425151.26748   -279829.98663
  24284402.0084    -700917.23445   -461455.38261
  21776070.7114    -726116.49747   -478531.29062
  24934077.6094     249875.64445    165334.56861
  24286533.2664   -1148630.73344
  22325475.0864      26809.98146     18264.83662
 91  4 30 21 59 30.0000000  0  6G 2G15G 6G11G13G19
  20939378.2034    -457452.49348   -304999.75163
  24274251.9924    -754258.11545   -503019.63661
  21765478.3674    -781776.08946   -521902.36162
  24937823.4224     269567.72945    180679.02161
  24269743.4064   -1236840.24444
  22325960.7274      29358.43346     20250.59762
 91  4 30 21 59 45.0000000  0  6G 2G15G 6G11G13G19
  20933242.3284    -489698.49248   -330126.48663
  24264119.6254    -807517.23645   -544520.17061
  21754890.6954    -837408.85546   -565252.52662
  24941579.1564     289323.30645    196072.98461
  24252965.0004   -1325028.82744        -0.39171
  22326462.0234      31974.24446     22288.83861
 91  4 30 22  0  0.0000000  0  6G 2G15G 6G11G13G19
  20927115.4064    -521891.56248   -355211.97663
  24253990.9064    -860696.13845   -585958.21761
  21744309.0004    -893016.73047   -608583.29062
  24945348.0394     309139.72845    211514.33161
  24236191.0554   -1413198.42044    -68703.73861
  22326971.0164      34655.13846     24377.80561
 91  4 30 22  0 15.0000000  0  6G 2G15G 6G11G13G19
  20920999.7274    -554030.94348   -380255.63263
  24243893.7584    -913793.40545   -627332.63361
  21733733.5704    -948598.51247   -651893.73162
  24949132.9454     329017.73245    227003.68161
  24219417.1024   -1501347.41644   -137391.02161
  22327488.3134      37402.21646     26518.32661
 91  4 30 22  0 30.0000000  0  6G 2G15G 6G11G13G19
  20914894.7584    -586115.14648   -405256.28963
  24233804.1094    -966807.11045   -668641.93461
  21723163.5394   -1004152.45647   -695182.48262
  24952927.1254     348958.46945    242541.90161
  24202650.8054   -1589474.03644   -206060.81461
  22328028.6564      40217.22346     28711.79661
 91  4 30 22  0 45.0000000  0  6G 2G15G 6G11G13G19
  20908799.6254    -618144.25448   -430214.01163
  24223732.7584   -1019737.26145   -709886.14061
  21712595.3054   -1059678.54447   -738449.52762
  24956730.4844     368961.38045    258128.55461
  24185879.4454   -1677577.96043   -274712.99761
  22328575.8524      43099.87346     30957.96861
 91  4 30 22  1  0.0000000  0  6G 2G15G 6G11G13G19
  20902714.7894    -650113.82848   -455125.36163
  24213675.0164   -1072579.26645   -751061.64161
  21702036.7814   -1115172.22747   -781691.32262
  24960549.6174     389030.47745    273766.80461
  24169116.4774   -1765654.26943   -343343.57461
  22329141.7584      46054.38946     33260.13661
 91  4 30 22  1 15.0000000  0  6G 2G15G 6G11G13G19
  20896643.0864    -682028.14748   -479993.64563
  24203640.9614   -1125336.69345   -792171.27361
  21691480.6094   -1170637.37047   -824910.88762
  24964382.8754     409161.43445    289453.25761
  24152364.2504   -1853706.82043   -411955.72661
  22329715.7814      49076.73346     35615.16961
 91  4 30 22  1 30.0000000  0  6G 2G15G 6G11G13G19
  20890581.9304    -713878.51648   -504812.09263
  24193617.1644   -1178000.30045   -833207.77761
  21680933.7664   -1226064.98147   -868101.20262
  24968227.9534     429362.61145    305194.40361
  24135611.9144   -1941726.54944   -480542.24961
  22330303.2344      52175.72746     38029.91261
 91  4 30 22  1 45.0000000  0  6G 2G15G 6G11G13G19
  20884531.0164    -745667.84348   -529582.98363
  24183613.3134   -1230572.90445   -874173.36361
  21670392.4844   -1281457.76447   -911264.35962
  24972086.2504     449630.78945    320987.75661
  24118862.1174   -2029715.97444   -549105.17461
  22330905.9694      55348.42246     40502.09861
 91  4 30 22  2  0.0000000  0  6G 2G15G 6G11G13G19
  20878495.1564    -777397.08748   -554307.05363
  24173621.6024   -1283055.07845   -915068.51061
  21659859.1564   -1336816.52347   -954401.01062
  24975956.5784     469964.64545    336832.29261
  24102131.1644   -2117675.72844   -617644.95261
  22331525.3134      58593.90346     43030.98761
 91  4 30 22  2 15.0000000  0  6G 2G15G 6G11G13G19
  20872466.1254    -809077.35248   -578992.96063
  24163652.0314   -1335457.20545   -955901.24361
  21649327.9924   -1392151.97947   -997519.50662
  24979835.1254     490352.79545    352719.15761
  24085390.6484   -2205616.52844   -686169.97261
  22332152.1724      61901.19146     45608.03162
 91  4 30 22  2 30.0000000  0  6G 2G15G 6G11G13G19
  20866448.4534    -840700.60648   -603634.44263
  24153696.4064   -1387770.79145   -996665.01361
  21638805.6884   -1447455.61647  -1040613.21562
  24983722.0704     510803.18045    368654.50561
  24068662.1644   -2293529.38944   -754673.27361
  22332795.8444      65278.57646     48239.70261
 91  4 30 22  2 45.0000000  0  6G 2G15G 6G11G13G19
  20860439.2734    -872272.36248   -628235.78963
  24143756.8134   -1440000.80445  -1037363.61561
  21628282.7664   -1502732.66847  -1083686.20162
  24987627.3984     531310.02945    384633.84161
  24051937.3674   -2381419.43144   -823158.72861
  22333452.1884      68720.52546     50921.70261
 91  4 30 22  3  0.0000000  0  6G 2G15G 6G11G13G19
  20854441.7034    -903789.50548   -652794.59063
  24133836.9774   -1492144.02345  -1077994.62261
  21617772.2274   -1557979.81847  -1126735.89962
  24991539.9224     551876.11245    400659.34961
  24035221.3364   -2469283.00744   -891623.60461
  22334119.0004      72230.17646     53656.44261
 91  4 30 22  3 15.0000000  0  6G 2G15G 6G11G13G19
  20848456.7814    -935249.70048   -677309.01163
  24123929.0314   -1544197.56845  -1118555.74761
  21607264.2974   -1613194.63347  -1169760.38562
  24995467.3364     572503.36745    416732.51461
  24018504.7194   -2557117.70544   -960065.95261
  22334800.8754      75809.93346     56445.81961
 91  4 30 22  3 30.0000000  0  6G 2G15G 6G11G13G19
  20842481.2894    -966647.58148   -701774.87863
  24114039.8204   -1596155.95045  -1159042.70161
  21596765.5704   -1668371.57847  -1212755.36362
  24999405.7814     593196.84045    432857.28961
  24001795.0314   -2644917.62844  -1028481.22861
  22335496.0394      79465.13946     59293.97162
 91  4 30 22  3 45.0000000  0  6G 2G15G 6G11G13G19
  20836514.9844    -997994.69348   -726201.18363
  24104170.5004   -1648029.99445  -1199463.94961
  21586271.5944   -1723521.60447  -1255729.37762
  25003354.0004     613944.77445    449024.50661
  23985096.2814   -2732693.86545  -1096877.99261
  22336205.9534      83184.32746     62191.98661
 91  4 30 22  4  0.0000000  0  6G 2G15G 6G11G13G19
  20830562.1334   -1029283.99048   -750582.43963
  24094314.5474   -1699812.24545  -1239813.67461
  21575781.2664   -1778637.62247  -1298676.87962
  25007311.8054     634753.90545    465239.38461
  23968401.2814   -2820438.76245  -1165250.35761
  22336928.9614      86974.61546     65145.40662
 91  4 30 22  4 15.0000000  0  6G 2G15G 6G11G13G19
  20824617.2814   -1060523.60148   -774924.97363
  24084482.6484   -1751510.55745  -1280097.99061
  21565300.1954   -1833727.33647  -1341603.89562
  25011283.0234     655615.81744    481495.41761
  23951708.3524   -2908159.82845  -1233604.15261
  22337657.3054      90827.91046     68147.92261
 91  4 30 22  4 30.0000000  0  6G 2G15G 6G11G13G19
  20818683.4924   -1091710.36948   -799226.33563
  24074655.0234   -1803121.53245  -1320314.24961
  21554821.8444   -1888787.40147  -1384507.80962
  25015261.6804     676533.41544    497794.80861
  23935012.1024   -2995853.74544  -1301936.79661
  22338405.4384      94747.50146     71202.11461
 91  4 30 22  4 45.0000000  0  6G 2G15G 6G11G13G19
  20812758.3444   -1122841.64848   -823484.45763
  24064851.2894   -1854641.91545  -1360459.92961
  21544349.6564   -1943814.79347  -1427386.25662
  25019252.5474     697509.07244    514139.45961
  23918323.4454   -3083517.46844  -1370245.90661
  22339162.7894      98735.95146     74309.94361
 91  4 30 22  5  0.0000000  0  6G 2G15G 6G11G13G19
  20806843.6564   -1153919.33948   -847700.82963
  24055066.6724   -1906073.01145  -1400536.05361
  21533883.4774   -1998811.19647  -1470240.55962
  25023258.7504     718540.52043    530527.58161
  23901654.5394   -3171152.43244  -1438532.65861
  22339934.8284     102791.42946     77470.00161
 91  4 30 22  5 15.0000000  0  6G 2G15G 6G11G13G19
  20800940.6024   -1184945.48948   -871877.03463
  24045298.4774   -1957416.76145  -1440544.07761
  21523423.5634   -2053778.40747  -1513072.10162
  25027274.0784     739625.41743    546957.34461
  23884987.0474   -3258760.04644  -1506798.04161
  22340718.6334     106911.88246     80680.70061
 91  4 30 22  5 30.0000000  0  6G 2G15G 6G11G13G19
  20795046.6334   -1215916.16048   -896010.00063
  24035544.2894   -2008668.69745  -1480480.56161
  21512970.6334   -2108712.24247  -1555877.64262
  25031293.4304     760767.44343    563431.61161
  23868323.5474   -3346335.76445  -1575038.55561
  22341519.1254     111101.37146     83945.18161
 91  4 30 22  5 45.0000000  0  6G 2G15G 6G11G13G19
  20789163.9304   -1246831.05848   -920099.51363
  24025812.7734   -2059828.10245  -1520344.98561
  21502522.5234   -2163612.04447  -1598656.67862
  25035325.7894     781966.58642    579950.40161
  23851666.6724   -3433878.98544  -1643253.77661
  22342327.1254     115360.34146     87263.80561
 91  4 30 22  6  0.0000000  0  6G 2G15G 6G11G13G19
  20783292.0944   -1277684.21448   -944140.92363
  24016089.6094   -2110888.60845  -1560132.27861
  21492084.8594   -2218471.48747  -1641404.26262
  25039370.8284     803228.60942    596518.15561
  23835009.1414   -3521383.31344  -1711438.66061
  22343150.7424     119694.78345     90641.24561
 91  4 30 22  6 15.0000000  0  6G 2G15G 6G11G13G19
  20777432.7894   -1308481.86848   -968139.07963
  24006392.7424   -2161855.98845  -1599847.07761
  21481652.1174   -2273296.54547  -1684125.06562
  25043429.9224     824546.97643    613129.84161
  23818359.4224   -3608854.46344  -1779597.78061
  22343989.9844     124098.70746     94072.82561
 91  4 30 22  6 30.0000000  0  6G 2G15G 6G11G13G19
  20771581.7034   -1339227.62448   -992096.79163
  23996705.8524   -2212733.57145  -1639491.84761
  21471225.3984   -2328090.70447  -1726821.78862
  25047497.7664     845917.85843    629782.47261
  23801718.3054   -3696295.76944  -1847733.59561
  22344840.0164     128568.34646     97555.61461
 91  4 30 22  6 44.9990000  0  6G 2G15G 6G11G13G19
  20765742.2694   -1369911.68348  -1016006.42263
  23987047.7694   -2263509.86145  -1679057.68261
  21460806.6124   -2382842.28547  -1769485.32062
  25051570.7374     867346.99342    646480.46461
  23785091.4954   -3783693.28844  -1915835.26461
  22345703.7144     133111.07646    101095.35461
 91  4 30 22  6 59.9990000  0  6G 2G15G 6G11G13G19
  20759911.3394   -1400548.55148  -1039879.28663
  23977401.5654   -2314201.55645  -1718557.63361
  21450390.0504   -2437568.77847  -1812129.30562
  25055657.5504     888826.59243    663217.76961
  23768465.9014   -3871068.52844  -1983919.59361
  22346584.4404     137717.14446    104684.45361
 91  4 30 22  7 14.9990000  0  6G 2G15G 6G11G13G19
  20754094.3234   -1431126.54648  -1063706.27363
  23967774.2454   -2364795.50145  -1757981.38661
  21439984.3084   -2492256.44147  -1854743.02862
  25059761.1754     910364.72243    680000.68661
  23751850.5264   -3958405.36445  -2051973.99161
  22347470.8704     142395.98646    108330.25161
 91  4 30 22  7 29.9990000  0  6G 2G15G 6G11G13G19
  20748285.0584   -1461649.00448  -1087489.98563
  23958160.1444   -2415294.46745  -1797331.15061
  21429584.0894   -2546908.37647  -1897328.92062
  25063873.7144     931957.70844    696826.37261
  23735235.1674   -4045706.76945  -2120000.79861
  22348380.9804     147144.34946    112030.21861
 91  4 30 22  7 44.9990000  0  6G 2G15G 6G11G13G19
  20742485.8944   -1492121.34948  -1111234.65263
  23948572.8314   -2465703.41845  -1836610.78461
  21419188.8864   -2601529.79447  -1939891.03262
  25067985.4564     953599.79344    713690.33861
  23718627.8944   -4132977.79145
  22349292.6904     151956.80046    115780.13861
 91  4 30 22  7 59.9990000  0  6G 2G15G 6G11G13G19
  20736697.6284   -1522543.37348  -1134940.09863
  23938997.4954   -2516021.63645  -1875819.70961
  21408801.8784   -2656120.08647  -1982428.89662
  25072113.8784     975290.94845    730592.50861
  23702023.5734   -4220217.81245
  22350218.6674     156833.80146    119580.34961
 91  4 30 22  8 14.9990000  0  6G 2G15G 6G11G13G19
  20730918.9094   -1552902.95548  -1158596.89463
  23929437.4094   -2566236.67745  -1914948.23861
  21398422.6904   -2710666.96647  -2024932.92962
  25076255.2224     997043.01345    747542.19761
  23685428.8474   -4307414.25745
  22351163.3314     161787.25846    123440.14861
 91  4 30 22  8 29.9990000  0  6G 2G15G 6G11G13G19
  20725151.0034   -1583209.83647  -1182212.62463
  23919904.7064   -2616358.10345  -1954003.80161
  21388049.1204   -2765179.90047  -2067410.51962
  25080405.0424    1018845.97845    764531.48661
  23668847.2224   -4394576.41145        -0.24671
  22352117.0424     166807.43246    127351.90661
 91  4 30 22  8 44.9990000  0  6G 2G15G 6G11G13G19
  20719395.8784   -1613463.85048  -1205787.15763
  23910384.1124   -2666385.26545  -1992985.93361
  21377679.0654   -2819658.45047  -2109861.31062
  25084561.4094    1040699.75645
  23652267.4804   -4481703.60845    -67891.35161
  22353086.4094     171894.64546    131315.91361
 91  4 30 22  8 59.9990000  0  6G 2G15G 6G11G13G19
  20713649.0344   -1643664.41448  -1229320.03863
  23900882.9804   -2716316.95145  -2031893.66261
  21367320.2454   -2874101.64847  -2152284.55062
  25088730.3624    1062604.59345
  23635694.3944   -4568794.63345   -135754.25361
  22354065.2924     177049.59446    135332.71761
 91  4 30 22  9 14.9990000  0  6G 2G15G 6G11G13G19
  20707911.7144   -1673810.86248  -1252810.74763
  23891401.7144   -2766152.14945  -2070726.22661
  21356967.0424   -2928508.45947  -2194679.43962
  25092906.9804    1084560.93045
  23619124.7694   -4655848.38345   -203588.05161
  22355060.6514     182273.07746    139402.91561
 91  4 30 22  9 29.9990000  0  6G 2G15G 6G11G13G19
  20702185.9254   -1703905.92448  -1276261.42763
  23881930.7764   -2815893.52945  -2109485.64161
  21346623.0344   -2982881.51247  -2237048.01762
  25097095.5114    1106565.79145        -0.30971
  23602562.7144   -4742867.40145   -271394.84561
  22356071.5424     187562.25445    143524.30261
 91  4 30 22  9 44.9990000  0  6G 2G15G 6G11G13G19
  20696470.0814   -1733943.75648  -1299667.50763
  23872486.0344   -2865534.74845  -2148167.04561
  21336281.0894   -3037214.67647  -2279385.51462
  25101293.2454    1128624.49345     17188.27861
  23586016.9724   -4829845.44945   -339169.68961
  22357086.9014     192922.90046    147701.38661
 91  4 30 22  9 59.9990000  0  6G 2G15G 6G11G13G19
  20690762.5424   -1763928.29348  -1323032.05963
  23863058.4254   -2915079.24345  -2186773.04561
  21325949.4874   -3091511.60747  -2321694.78962
  25105500.2144    1150732.90445     34415.59961
  23569471.1674   -4916785.86345   -406915.16861
  22358124.5584     198351.36545    151931.31261
 91  4 30 22 10 14.9990000  0  6G 2G15G 6G11G13G19
  20685067.0894   -1793861.40948  -1346356.54763
  23853642.5264   -2964528.59945  -2225304.93061
  21315623.1054   -3145773.77547  -2363976.97162
  25109717.8704    1172888.93245     51680.06661
  23552936.1364   -5003689.93645   -474632.38761
  22359164.8234     203845.65945    156212.51761
 91  4 30 22 10 29.9990000  0  6G 2G15G 6G11G13G19
  20679381.6754   -1823740.75048  -1369639.11963
  23844254.8474   -3013879.85045  -2263760.36161
  21305303.5974   -3199998.52347  -2406229.99962
  25113941.6594    1195094.71345     68983.24361
  23536401.8704   -5090554.99545   -542319.18761
  22360226.3154     209408.09445    160546.83761
 91  4 30 22 10 44.9990000  0  6G 2G15G 6G11G13G19
  20673705.0814   -1853568.10248  -1392881.19163
  23834882.3554   -3063134.67045  -2302140.65261
  21294991.8394   -3254187.48747  -2448455.12362
  25118174.9404    1217347.99745     86323.47761
  23519878.2694   -5177382.33645   -609976.62061
  22361296.6984     215036.87346    164932.84361
 91  4 30 22 10 59.9990000  0  6G 2G15G 6G11G13G19
  20668040.4644   -1883339.59548  -1416079.74463
  23825534.4484   -3112288.91145  -2340442.57161
  21284689.9014   -3308336.50947  -2490649.14162
  25122419.4484    1239652.37245    103703.51361
  23503365.4014   -5264167.63645   -677601.27261
  22362381.8474     220735.87346    169373.57461
 91  4 30 22 11 14.9990000  0  6G 2G15G 6G11G13G19
  20662384.8554   -1913054.42748  -1439234.13863
  23816196.8554   -3161340.98945  -2378664.87061
  21274391.4724   -3362444.37447  -2532811.07762
  25126674.5654    1262008.48845    121123.86961
  23486855.9094   -5350909.71445   -745192.22561
  22363476.8234     226506.25046    173869.92761
 91  4 30 22 11 29.9990000  0  6G 2G15G 6G11G13G19
  20656739.9404   -1942719.94348  -1462350.10763
  23806877.2224   -3210297.74945  -2416812.87961
  21264102.3084   -3416517.96547  -2574946.31662
  25130936.6364    1284408.90145    138578.71861
  23470360.7614   -5437615.04045   -812754.56161
  22364590.2304     232340.86245    178416.32261
 91  4 30 22 11 44.9990000  0  6G 2G15G 6G11G13G19
  20651105.3944   -1972330.60148  -1485423.33463
  23797586.2374   -3259153.39845  -2454882.16161
  21253821.4484   -3470551.61747  -2617050.43762
  25135211.3864    1306858.58945    156071.99661
  23453868.0194   -5524278.02245   -880283.90461
  22365714.0034     238245.07546    183016.96261
 91  4 30 22 11 59.9990000  0  6G 2G15G 6G11G13G19
  20645479.8944   -2001892.27248  -1508458.38163
  23788301.6904   -3307913.83245  -2492877.25561
  21243544.4954   -3524551.12947  -2659127.93962
  25139490.3154    1329351.31045    173598.78661
  23437381.7304   -5610904.07045   -947784.46461
  22366848.3004     244212.82446    187667.10661
 91  4 30 22 12 14.9990000  0  6G 2G15G 6G11G13G19
  20639863.1904   -2031401.11648  -1531452.26663
  23779042.4174   -3356574.96045  -2530794.91261
  21233275.1444   -3578512.36147  -2701175.62062
  25143780.8864    1351890.54845    191161.81661
  23420900.7614   -5697488.91845  -1015252.91461
  22367993.9484     250247.93546    192369.74561
 91  4 30 22 12 29.9990000  0  6G 2G15G 6G11G13G19
  20634258.5894   -2060854.22248  -1554402.72063
  23769800.8154   -3405133.14145  -2568632.37161
  21223015.2614   -3632431.95047  -2743190.84662
  25148080.8474    1374479.05745    208763.22061
  23404437.0194   -5784029.29945  -1082686.75761
  22369157.9334     256353.47245    197127.26761
 91  4 30 22 12 44.9990000  0  6G 2G15G 6G11G13G19
  20628665.2304   -2090257.00748  -1577313.96863
  23760577.9254   -3453593.29845  -2606393.44761
  21212761.2144   -3686314.99447  -2785177.61462
  25152386.0654    1397111.35045    226398.81161
  23387979.0504   -5870529.94045  -1150089.58261
  22370330.6834     262524.16246    201935.55861
 91  4 30 22 12 59.9990000  0  6G 2G15G 6G11G13G19
  20623080.1444   -2119603.46648  -1600181.32163
  23751382.8154   -3501948.84245  -2644072.95661
  21202515.9094   -3740155.15547  -2827130.95862
  25156702.3474    1419793.03945    244072.83361
  23371523.2844   -5956984.37745  -1217456.43061
  22371520.9874     268766.06746    206799.33761
 91  4 30 22 13 14.9990000  0  6G 2G15G 6G11G13G19
  20617506.3784   -2148894.70948  -1623005.65563
  23742199.7614   -3550200.74545  -2681671.78261
  21192277.9404   -3793953.29347  -2869051.56662
  25161024.1054    1442522.68744    261784.21361
  23355080.3704   -6043393.23745  -1284787.77561
  22372720.8944     275078.17746    211717.82661
 91  4 30 22 13 29.9990000  0  6G 2G15G 6G11G13G19
  20611942.3154   -2178129.64548  -1645786.11063
  23733031.8864   -3598347.79645  -2719188.86861
  21182048.0034   -3847708.05047  -2910938.36063
  25165359.6594    1465300.96744    279533.52361
  23338648.0424   -6129755.28045  -1352082.63161
  22373939.1984     281461.37445    216691.69861
 91  4 30 22 13 44.9990000  0  6G 2G15G 6G11G13G19
  20606388.9804   -2207311.00148  -1668524.81763
  23723893.6444   -3646392.24645  -2756626.02961
  21171828.9564   -3901422.05547  -2952793.38463
  25169702.5034    1488124.78144    297318.32261
  23322221.3314   -6216072.90345  -1419342.83161
  22375163.3394     287912.94746    221718.86161
 91  4 30 22 13 59.9990000  0  6G 2G15G 6G11G13G19
  20600846.3624   -2236437.15448  -1691220.50763
  23714767.3474   -3694332.09745  -2793981.66261
  21161613.5584   -3955093.25847  -2994615.06563
  25174056.5584    1510995.44844    315139.57961
  23305800.1674   -6302343.58545  -1486566.52961
  22376407.3944     294434.61346    226800.62561
 91  4 30 22 14 14.9990000  0  6G 2G15G 6G11G13G19
  20595313.8864   -2265510.06948  -1713874.71763
  23705667.5344   -3742169.06945  -2831257.13461
  21151408.8864   -4008723.51047  -3036404.83262
  25178416.3864    1533910.78944    332995.68161
  23289394.4564   -6388569.16645  -1553755.03861
  22377659.2764     301024.23946    231935.34261
 91  4 30 22 14 29.9990000  0  6G 2G15G 6G11G13G19
  20589792.1984   -2294532.98648  -1736489.96363
  23696578.8624   -3789905.93745  -2868454.59461
  21141211.1674   -4062315.47347  -3078164.76962
  25182786.6594    1556867.38944    350883.96661
  23272997.5814   -6474752.24145  -1620910.43461
  22378927.9174     307678.79646    237120.66461
 91  4 30 22 14 44.9990000  0  6G 2G15G 6G11G13G19
  20584279.6124   -2323498.08048  -1759060.14863
  23687522.3394   -3837534.44445  -2905567.63861
  21131022.0654   -4115861.17947  -3119888.67562
  25187164.2764    1579872.80444    368810.24361
  23256608.9954   -6560884.40545  -1688026.12161
  22380205.0504     314406.21045    242362.76761
 91  4 30 22 14 59.9990000  0  6G 2G15G 6G11G13G19
  20578779.5734   -2352407.65148  -1781587.07363
  23678476.5194   -3885056.49545  -2942597.74961
  21120840.9804   -4169362.34347  -3161577.87062
  25191548.8154    1602924.51844    386772.60761
  23240220.5034   -6646967.33845  -1755103.50761
  22381501.2924     321204.39045    247659.99161
 91  4 30 22 15 14.9990000  0  6G 2G15G 6G11G13G19
  20573287.5584   -2381266.80748  -1804074.71663
  23669450.3784   -3932476.97945  -2979548.70161
  21110666.5264   -4222824.23147  -3203236.44863
  25195938.7144    1626016.89244    404766.62961
  23223847.9874   -6733006.32445  -1822146.62261
  22382806.0584     328067.84545    253008.10361
 91  4 30 22 15 29.9990000  0  6G 2G15G 6G11G13G19
  20567805.8084   -2410070.73848  -1826519.31963
  23660448.7454   -3979790.58245  -3016416.34161
  21100502.6444   -4276241.51747  -3244860.26563
  25200345.3154    1649154.66543    422796.06061
  23207488.6674   -6818995.86045  -1889151.21261
  22384124.6594     335001.48145    258410.86461
 91  4 30 22 15 44.9990000  0  6G 2G15G 6G11G13G19
  20562333.9874   -2438822.34248  -1848923.15563
  23651460.2844   -4026999.92845  -3053202.75861
  21090344.4874   -4329616.69147  -3286451.27563
  25204756.3944    1672334.54644    440858.29661
  23191131.2534   -6904938.54245  -1956119.30461
  22385457.1904     342002.50245    263866.16361
 91  4 30 22 15 59.9990000  0  6G 2G15G 6G11G13G19
  20556872.4094   -2467525.92048  -1871289.56763
  23642498.6444   -4074109.00545  -3089911.06161
  21080195.6124   -4382954.12347  -3328012.87563
  25209178.3864    1695551.90444    458949.78661
  23174786.8474   -6990838.16045  -2023053.80261
  22386800.7614     349066.48345    269370.50461
 91  4 30 22 16 14.9990000  0  6G 2G15G 6G11G13G19
  20551421.9254   -2496174.14348  -1893612.84863
  23633555.9484   -4121109.71045  -3126534.88661
  21070056.5424   -4436245.83847  -3369538.86163
  25213605.8704    1718813.88743    477075.99261
  23158446.7374   -7076686.72145  -2089948.52761
  22388158.9334     356201.07145    274929.87061
 91  4 30 22 16 29.9990000  0  6G 2G15G 6G11G13G19
  20545981.7534   -2524760.27648  -1915887.74263
  23624633.6054   -4167995.26945  -3163068.99361
  21059923.1594   -4489484.79547  -3411023.72163
  25218040.5194    1742126.91143    495241.96161
  23142125.3474   -7162477.09445  -2156797.92461
  22389531.6834     363413.02345    280549.50361
 91  4 30 22 16 44.9990000  0  6G 2G15G 6G11G13G19
  20540552.7694   -2553286.31048  -1938115.80563
  23615731.1594   -4214767.33745  -3199514.68461
  21049801.9014   -4542672.80947  -3452468.90463
  25222481.9484    1765488.66743    513445.92061
  23125809.8474   -7248210.85845  -2223603.17661
  22390917.4014     370700.26345    286227.81661
 91  4 30 22 16 59.9990000  0  6G 2G15G 6G11G13G19
  20535135.3554   -2581760.34648  -1960303.34163
  23606858.1124   -4261433.52445  -3235877.89861
  21039689.4094   -4595817.55547  -3493880.36363
  25226938.6984    1788890.85443    531681.36261
  23109503.5734   -7333895.54445  -2290370.25161
  22392318.7764     378054.77845    291958.54561
 91  4 30 22 17 14.9990000  0  6G 2G15G 6G11G13G19
  20529725.1594   -2610185.25548  -1982452.60563
  23597995.5974   -4307996.59145  -3272160.70061
  21029584.4174   -4648922.02647  -3535260.43663
  25231399.0424    1812329.98743    549945.60861
  23093210.3084   -7419533.72845  -2357101.02361
  22393729.0584     385473.36845    297739.19561
 91  4 30 22 17 29.9990000  0  6G 2G15G 6G11G13G19
  20524327.5504   -2638549.64948  -2004554.72763
  23589151.1904   -4354444.63645  -3308353.92661
  21019488.6444   -4701974.15347  -3576599.71763
  25235867.6984    1835817.38043    568247.46061
  23076923.5194   -7505113.59645  -2423786.39361
  22395156.6124     392967.55245    303578.73961
 91  4 30 22 17 44.9990000  0  6G 2G15G 6G11G13G19
  20518941.5504   -2666856.83748  -2026612.25963
  23580334.3944   -4400780.59745  -3344459.81261
  21009403.0194   -4754977.19847  -3617900.75863
  25240347.1754    1859349.41143    586584.05961
  23060646.1984   -7590638.07045  -2490428.57961
  22396596.7694     400534.01645    309474.64161
 91  4 30 22 17 59.9990000  0  6G 2G15G 6G11G13G19
  20513565.9724   -2695106.20248  -2048624.73463
  23571540.9094   -4447003.50145  -3380477.57061
  20999322.9564   -4807930.06547  -3659162.69763
  25244830.2614    1882926.56343    604955.87661
  23044380.4564   -7676106.05145  -2557026.79561
  22398052.4094     408173.42845    315427.38361
 91  4 30 22 18 14.9990000  0  6G 2G15G 6G11G13G19
  20508199.6284   -2723307.92248  -2070600.08463
  23562762.1834   -4493123.19445  -3416414.91461
  20989256.8004   -4860842.61447  -3700393.22363
  25249322.6054    1906538.40742    623354.70761
  23028124.8864   -7761526.94645  -2623588.27461
  22399511.8154     415876.09745    321429.40161
 91  4 30 22 18 29.9990000  0  6G 2G15G 6G11G13G19
  20502843.3314   -2751457.37548  -2092534.71263
  23554008.5194   -4539134.68945  -3452267.97361
  20979196.4094   -4913709.95847  -3741588.52263
  25253823.1444    1930189.23642
  23011881.9404   -7846895.80545  -2690109.18361
  22400996.4014     423646.38445    327484.10761
 91  4 30 22 18 44.9990000  0  6G 2G15G 6G11G13G19
  20497496.0734   -2779550.26948  -2114425.26163
  23545275.5344   -4585033.17545  -3488032.96961
  20969146.7144   -4966527.49847  -3782745.01963
  25258333.6284    1953882.89543
  22995650.0814   -7932208.31745  -2756586.25661
  22402484.9334     431488.42445    333594.73561
 91  4 30 22 18 59.9990000  0  6G 2G15G 6G11G13G19
  20492160.9404   -2807594.89148  -2136278.19463
  23536564.5504   -4630826.81045  -3523716.24061
  20959101.4014   -5019303.29447  -3823868.97563
  25262849.3154    1977610.77743
  22979425.5264   -8017472.26445  -2823025.45561
  22403991.3624     439393.93745    339754.81261
 91  4 30 22 19 14.9990000  0  6G 2G15G 6G11G13G19
  20486832.3234   -2835587.03848  -2158090.24063
  23527867.8084   -4676511.09745  -3559314.32161
  20949067.0974   -5072032.95047  -3864956.98563
  25267374.6904    2001376.82543
  22963207.2064   -8102682.86345  -2889423.06261
  22405508.7924     447367.25245    345967.73261
 91  4 30 22 19 29.9990000  0  6G 2G15G 6G11G13G19
  20481517.2764   -2863518.23548  -2179854.79963
  23519200.9254   -4722077.31045  -3594820.38061
  20939043.5114   -5124707.48947  -3906002.05063
  25271905.9014    2025189.21643
  22947002.5344   -8187831.18845  -2955772.16861
  22407037.8234     455416.82745    352240.07561
 91  4 30 22 19 44.9990000  0  6G 2G15G 6G11G13G19
  20476211.7844   -2891399.79448  -2201580.67563
  23510546.8004   -4767536.21545  -3630242.83961
  20929027.8784   -5177337.85347  -3947012.68963
  25276440.2534    2049036.47243
  22930806.8474   -8272927.99145  -3022081.11461
  22408586.0034     463531.33145    358562.99961
 91  4 30 22 19 59.9990000  0  5G 2G15G 6G13G19
  20470916.2694   -2919234.88448  -2223270.34163
  23501916.5344   -4812890.66945  -3665583.90861
  20919021.2304   -5229926.95347  -3987991.17963
  22914621.1444   -8357976.11145  -3088352.10461
  22410143.8084     471707.60845    364934.05761
 91  4 30 22 20 14.9990000  0  5G 2G15G 6G13G19
  20465629.4484   -2947014.44648  -2244916.74163
  23493306.5974   -4858131.27045  -3700836.23261
  20909023.9334   -5282465.64047  -4028930.38063
  22898449.4804   -8442965.76845  -3154577.60461
  22411709.1754     479954.74045    371360.32361
 91  4 30 22 20 29.9990000  0  5G 2G15G 6G13G19
  20460351.7534   -2974741.01248  -2266521.83563
  23484717.7764   -4903260.19745  -3736001.56861
  20899034.4564   -5334955.92647  -4069831.86863
  22882290.8784   -8527899.27745  -3220759.27861
  22413288.2614     488270.18445    377839.82861
 91  4 30 22 20 44.9980000  0  5G 2G15G 6G13G19
  20455086.1934   -3002417.09048  -2288087.60063
  23476154.7954   -4948278.55945  -3771080.72061
  20889056.4594   -5387398.45147  -4110696.14163
  22866139.2174   -8612775.05845  -3286896.00661
  22414888.5224     496649.05545    384368.75361
 91  4 30 22 20 59.9980000  0  5G 2G15G 6G13G19
  20449829.4594   -3030038.97848  -2309611.13263
  23467606.5534   -4993184.54945  -3806072.32661
  20879085.1234   -5439792.42847  -4151522.58763
  22849999.0534   -8697596.33845  -3352990.26161
  22416495.4284     505100.01045    390953.84861
 91  4 30 22 21 14.9980000  0  5G 2G15G 6G13G19
  20444584.7254   -3057599.44548  -2331086.80163
  23459083.5454   -5037969.59445  -3840969.71361
  20869126.2324   -5492128.86947  -4192304.19863
  22833869.9904   -8782351.80045  -3419033.24661
  22418117.3184     513627.67645    397598.70561
 91  4 30 22 21 29.9980000  0  5G 2G15G 6G13G19
  20439349.9284   -3085103.48148  -2352518.50363
  23450584.4434   -5082638.17745  -3875776.31761
  20859176.2564   -5544412.45447  -4233044.62763
  22817750.9824   -8867045.91645  -3485028.39761
  22419751.4824     522227.04545    404299.46661
 91  4 30 22 21 44.9980000  0  5G 2G15G 6G13G19
  20434125.9364   -3112561.01848  -2373913.97163
  23442102.3574   -5127199.61645  -3910499.43261
  20849236.1934   -5596652.70447  -4273751.28263
  22801643.0064   -8951688.01145  -3550983.03161
  22421400.7254     530888.40145    411048.49961
 91  4 30 22 21 59.9980000  0  5G 2G15G 6G13G19
  20428909.5764   -3139973.10448  -2395274.02263
  23433640.9364   -5171654.91145  -3945139.83861
  20839303.2484   -5648850.29147  -4314424.70163
  22785547.0454   -9036278.97845  -3616897.86461
  22423062.9594     539610.60145    417844.95561
 91  4 30 22 22 14.9980000  0  5G 2G15G 6G13G19
  20423704.8654   -3167333.24548  -2416593.59563
  23425203.4824   -5215997.57745  -3979692.49261
  20829380.7404   -5700998.73247  -4355059.81263
  22769465.4754   -9120812.20545  -3682767.69761
  22424735.7254     548399.99045    424693.74761
 91  4 30 22 22 29.9980000  0  5G 2G15G 6G13G19
  20418506.7564   -3194637.32148  -2437869.48263
  23416790.0924   -5260223.07345  -4014153.85261
  20819466.9904   -5753093.41647  -4395653.05463
  22753388.7484   -9205282.64445  -3748588.54561
  22426422.6784     557260.87145    431598.26361
 91  4 30 22 22 44.9980000  0  5G 2G15G 6G13G19
  20413322.4824   -3221890.14048  -2459105.42963
  23408397.7644   -5304335.58645  -4048527.17761
  20809562.6934   -5805138.73847  -4436207.81763
  22737323.2954   -9289694.67845  -3814363.91361
  22428122.7484     566188.30945    438554.63961
 91  4 30 22 22 59.9980000  0  5G 2G15G 6G13G19
  20408144.9824   -3249092.78948  -2480302.28463
  23400020.8184   -5348335.90345  -4082813.07661
  20799667.8264   -5857135.47747  -4476724.74363
  22721272.1234   -9374048.96645  -3880094.30461
  22429832.2404     575181.31645    445562.10561
 91  4 30 22 23 14.9980000  0  5G 2G15G 6G13G19
  20402978.0614   -3276248.18448  -2501462.31363
  23391667.1394   -5392226.42145  -4117013.38961
  20789781.9364   -5909086.24147  -4517205.82563
  22705227.6394   -9458347.93545  -3945781.56861
  22431556.4594     584236.95845    452618.39061
 91  4 30 22 23 29.9980000  0  5G 2G15G 6G13G19
  20397819.4904   -3303352.98548  -2522582.92663
  23383337.1544   -5436003.76345  -4151125.56961
  20779904.0684   -5960987.55347  -4557648.37963
  22689198.8734   -9542588.02845  -4011422.98561
  22433291.1704     593358.56745    459726.05361
 91  4 30 22 23 44.9980000  0  5G 2G15G 6G13G19
  20392671.1074   -3330406.40148  -2543663.48863
  23375030.1864   -5479666.56445  -4185148.42361
  20770037.9434   -6012838.21247  -4598051.46663
  22673184.3574   -9626768.07445  -4077017.59261
  22435033.9674     602546.92545    466885.74461
 91  4 30 22 23 59.9980000  0  5G 2G15G 6G13G19
  20387532.7564   -3357406.70948  -2564702.67663
  23366742.1624   -5523213.15345  -4219080.79761
  20760182.0374   -6064636.38047  -4638413.64763
  22657173.4594   -9710885.82445  -4142563.66761
  22436804.4904     611803.63045    474098.69661
 91  4 30 22 24 14.9980000  0  5G 2G15G 6G13G19
  20382405.5374   -3384357.07648  -2585702.94663
  23358477.2404   -5566646.15345  -4252924.61361
  20750334.4824   -6116384.82547  -4678737.07963
  22641177.2174   -9794944.08045  -4208063.38961
  22438579.1004     621125.67645    481362.58661
 91  4 30 22 24 29.9980000  0  5G 2G15G 6G13G19
  20377286.9754   -3411252.22648  -2606660.19363
  23350238.3264   -5609960.04845  -4286675.60461
  20740498.1004   -6168077.91947  -4719017.39063
  22625194.2484   -9878937.09645  -4273512.25961
  22440362.5684     630518.35345    488681.47461
 91  4 30 22 24 44.9980000  0  5G 2G15G 6G13G19
  20372179.9124   -3438093.41748  -2627575.39063
  23342013.4754   -5653155.73645  -4320334.51761
  20730670.1154   -6219716.71047  -4759255.38863
  22609225.0374   -9962865.63045  -4338910.90361
  22442162.3034     639980.29745    496054.35361
 91  4 30 22 24 59.9980000  0  5G 2G15G 6G13G19
  20367081.9284   -3464883.97648  -2648451.13063
  23333821.7404   -5696236.55545  -4353903.92061
  20720853.6004   -6271304.10847  -4799453.33163
  22593266.1004  -10046732.54645  -4404261.54061
  22443976.9754     649508.04945    503478.50961
 91  4 30 22 25 14.9980000  0  5G 2G15G 6G13G19
  20361992.2254   -3491623.34748  -2669286.99063
  23325638.2014   -5739201.51645  -4387383.00761
  20711045.3654   -6322839.38447  -4839610.66163
  22577318.6784  -10130536.88045  -4469563.41061
  22445798.0534     659102.34145    510954.49261
 91  4 30 22 25 29.9980000  0  5G 2G15G 6G13G19
  20356913.3344   -3518313.65848  -2690084.62063
  23317488.0924   -5782052.14345  -4420773.03161
  20701250.1624   -6374324.17947  -4879728.66663
  22561378.7254  -10214280.37145  -4534817.84361
  22447637.8974     668761.08045    518480.72061
 91  4 30 22 25 44.9980000  0  5G 2G15G 6G13G19
  20351844.9904   -3544949.47948  -2710839.78663
  23309356.8734   -5824782.44945  -4454069.32961
  20691464.0924   -6425752.76147  -4919802.85763
  22545454.3734  -10297957.03645  -4600020.25461
  22449490.7404     678489.66245    526061.37261
 91  4 30 22 25 59.9980000  0  5G 2G15G 6G13G19
  20346787.1004   -3571533.16848  -2731554.33763
  23301249.6234   -5867394.62145  -4487273.54461
  20681687.2874   -6477127.22147  -4959834.87463
  22529542.8574  -10381568.84045  -4665172.07461
  22451360.1864     688285.73145    533694.59961
 91  4 30 22 26 14.9980000  0  5G 2G15G 6G13G19
  20341740.6784   -3598055.05848  -2752220.72563
  23293162.7254   -5909878.94445  -4520378.14061
  20671922.5684   -6528437.55547  -4999816.92263
  22513647.9674  -10465105.81845  -4730265.64561
  22453233.8424     698158.67145    541387.69961
 91  4 30 22 26 29.9980000  0  5G 2G15G 6G13G19
  20336703.3184   -3624519.30648  -2772842.20563
  23285102.6234   -5952239.22945  -4553386.08561
  20662170.9514   -6579687.67947  -5039752.06063
  22497766.5374  -10548571.50545  -4795303.64161
  22455126.9284     708104.71945    549137.80761
 91  4 30 22 26 44.9980000  0  5G 2G15G 6G13G19
  20331676.7254   -3650930.01948  -2793421.97563
  23277066.7644   -5994479.17245  -4586300.24561
  20652428.5534   -6630881.46047  -5079643.29562
  22481893.8424  -10631969.42245  -4860288.82661
  22457031.2724     718119.63145    556941.55761
 91  4 30 22 26 59.9980000  0  5G 2G15G 6G13G19
  20326662.5064   -3677288.29248  -2813960.87763
  23269051.3654   -6036599.78145  -4619121.42961
  20642696.3184   -6682019.63747  -5119491.21063
  22466037.9904  -10715300.73745  -4925222.09961
  22458947.6544     728202.13045    564797.97661
 91  4 30 22 27 14.9980000  0  5G 2G15G 6G13G19
  20321657.3504   -3703594.56848  -2834459.25863
  23261057.3734   -6078601.05545  -4651849.63361
  20632978.0064   -6733102.12447  -5159295.71163
  22450193.3184  -10798565.16245  -4990103.26961
  22460883.9984     738351.74045    572706.69961
 91  4 30 22 27 29.9980000  0  5G 2G15G 6G13G19
  20316660.9984   -3729843.13548  -2854912.67563
  23253088.9824   -6120476.95445  -4684480.17661
  20623267.6934   -6784123.13247  -5199052.31163
  22434361.4204  -10881756.77145  -5054927.71861
  22462826.0764     748574.23245    580672.20061
 91  4 30 22 27 44.9980000  0  5G 2G15G 6G13G19
  20311674.4434   -3756046.78148  -2875331.08063
  23245139.9984   -6162239.98645  -4717022.73961
  20613566.7954   -6835095.09047  -5238770.68963
  22418541.4124  -10964887.57145  -5119704.73561
  22464785.7404     758856.84345    588684.55861
 91  4 30 22 27 59.9980000  0  5G 2G15G 6G13G19
  20306697.7014   -3782201.57148  -2895711.42563
  23237215.4674   -6203886.03345  -4749474.13661
  20603878.1624   -6886013.94647  -5278447.69363
  22402738.6784  -11047953.43545  -5184431.20361
  22466754.3654     769203.42345    596746.76461
 91  4 30 22 28 14.9980000  0  5G 2G15G 6G13G19
  20301730.9204   -3808299.20448  -2916047.22963
  23229313.6234   -6245406.21945  -4781827.44161
  20594200.5294   -6936870.95247  -5318076.50363
  22386943.5764  -11130945.56246  -5249100.20261
  22468733.9594     779622.33045    604865.31061
 91  4 30 22 28 29.9980000  0  5G 2G15G 6G13G19
  20296775.4824   -3834340.89348  -2936339.43963
  23221440.2254   -6286801.69246  -4814083.59961
  20584534.1864   -6987666.83147  -5357657.67962
  22371161.2324  -11213864.76045  -5313712.37261
  22470733.2404     790112.33745    613039.26961
 91  4 30 22 28 44.9980000  0  5G 2G15G 6G13G19
  20291830.0844   -3860330.91648  -2956591.39463
  23213583.5454   -6328076.25446  -4846245.52861
  20574877.7484   -7038405.59447  -5397194.34963
  22355397.8654  -11296715.08046  -5378270.89361
  22472743.0454     800669.20545    621265.31861
 91  4 30 22 28 59.9980000  0  5G 2G15G 6G13G19
  20286895.1864   -3886270.74148  -2976804.22763
  23205753.3114   -6369231.22046  -4878314.26061
  20565234.2724   -7089088.64947  -5436687.61263
  22339648.2954  -11379497.75746  -5442776.67861
  22474762.7324     811291.33445    629542.22561
 91  4 30 22 29 14.9980000  0  5G 2G15G 6G13G19
  20281967.4434   -3912156.28748  -2996974.76863
  23197943.9594   -6410262.16146  -4910286.35961
  20555602.4044   -7139711.67547  -5476134.09563
  22323904.5534  -11462208.00445  -5507226.02161
  22476796.1784     821982.68845    637873.07261
 91  4 30 22 29 29.9980000  0  5G 2G15G 6G13G19
  20277053.4124   -3937988.35248  -3017103.63563
  23190161.1784   -6451169.60746  -4942162.21261
  20545979.4044   -7190274.94747  -5515534.01363
  22308179.3424  -11544846.10045  -5571619.14461
  22478847.4124     832742.69845    646257.41661
 91  4 30 22 29 44.9980000  0  5G 2G15G 6G13G19
  20272147.0294   -3963765.55748  -3037189.75463
  23182402.8734   -6491952.04846  -4973940.70761
  20536369.9124   -7240777.02747  -5554886.26162
  22292467.5064  -11627410.36945  -5635954.76061
  22480905.1074     843572.50445    654696.15961
 91  4 30 22 29 59.9980000  0  5G 2G15G 6G13G19
  20267253.0064   -3989489.14648  -3057234.09163
  23174661.1004   -6532610.34645  -5005622.44461
  20526770.4434   -7291218.44547  -5594191.23662
  22276769.7174  -11709901.51145  -5700233.36961
  22482977.4754     854470.90045    663188.32661
 91  4 30 22 30 14.9980000  0  5G 2G15G 6G13G19
  20262364.2874   -4015163.34547  -3077239.95463
  23166945.9044   -6573148.48445  -5037210.53761
  20517181.0924   -7341603.35147  -5633452.17962
  22261083.5144  -11792323.30546  -5764457.96161
  22485066.0224     865433.61645    671730.64261
 91  4 30 22 30 29.9980000  0  5G 2G15G 6G13G19
  20257491.5844   -4040782.00448  -3097202.53263
  23159256.4434   -6613559.84645  -5068699.86561
  20507605.4824   -7391925.39747  -5672664.13063
  22245416.4984  -11874669.26446  -5828623.45661
  22487167.1544     876466.81945    680327.84861
 91  4 30 22 30 44.9980000  0  5G 2G15G 6G13G19
  20252626.5294   -4066348.25348  -3117124.27563
  23151591.7954   -6653847.29745  -5100092.60161
  20498040.8184   -7442187.29547  -5711829.21963
  22229759.2324  -11956942.08346  -5892731.94761
  22489277.3654     887567.31445    688977.49861
 91  4 30 22 30 59.9980000  0  5G 2G15G 6G13G19
  20247772.6394   -4091857.77148  -3137001.80263
  23143948.2874   -6694006.37745  -5131385.32561
  20488490.4514   -7492384.47247  -5750943.87263
  22214119.9364  -12039137.10846  -5956779.84761
  22491405.9284     898739.43645    697682.96861
 91  4 30 22 31 14.9980000  0  5G 2G15G 6G13G19
  20242928.2724   -4117316.12248  -3156839.46263
  23136327.7874   -6734042.20645  -5162582.01761
  20478948.8344   -7542521.95147  -5790012.01263
  22198489.6934  -12121259.32046  -6020770.99361
  22493540.8114     909977.66645    706439.94461
 91  4 30 22 31 29.9980000  0  5G 2G15G 6G13G19
  20238091.6624   -4142721.86948  -3176636.13163
  23128735.6704   -6773953.40945  -5193681.59161
  20469417.7404   -7592597.99847  -5829032.28563
  22182878.0454  -12203306.92246  -6084703.98461
  22495696.7404     921283.26745    715249.42161
 91  4 30 22 31 44.9980000  0  5G 2G15G 6G13G19
  20233268.6004   -4168075.42748  -3196392.13663
  23121160.9984   -6813739.91045  -5224684.00261
  20459901.6004   -7642612.94547  -5868004.94263
  22167277.2874  -12285280.04846  -6148578.96361
  22497861.0144     932656.00545    724111.19761
 91  4 30 22 31 59.9980000  0  5G 2G15G 6G13G19
  20228453.7014   -4193375.55348  -3216106.50563
  23113618.2484   -6853400.13745  -5255588.02961
  20450395.3264   -7692565.11647  -5906928.68663
  22151693.6704  -12367176.92946  -6212394.53361
  22500035.0294     944096.94745    733026.12461
 91  4 30 22 32 14.9980000  0  5G 2G15G 6G13G19
  20223649.2954   -4218627.79448  -3235783.56163
  23106090.1784   -6892939.25545  -5286397.67961
  20440901.5294   -7742459.91147  -5945807.72363
  22136122.2014  -12449002.77746  -6276154.73761
  22502225.7564     955600.65145    741989.98461
 91  4 30 22 32 29.9980000  0  5G 2G15G 6G13G19
  20218852.6934   -4243827.02248  -3255419.30863
  23098591.0454   -6932352.03645  -5317108.85661
  20431417.7874   -7792291.68147  -5984637.64463
  22120565.2014  -12530751.87646  -6339855.15361
  22504430.1864     967171.92645    751006.49261
 91  4 30 22 32 44.9980000  0  5G 2G15G 6G13G19
  20214069.5224   -4268969.78348  -3275011.05263
  23091117.0064   -6971634.66145  -5347718.64061
  20421947.8734   -7842056.69447  -6023415.55563
  22105028.0534  -12612420.50846  -6403492.85761
  22506641.2324     978814.37045    760078.45161
 91  4 30 22 32 59.9980000  0  5G 2G15G 6G13G19
  20209292.6394   -4294067.75048  -3294567.90063
  23083668.9284   -7010798.54345  -5378235.91161
  20412488.8424   -7891766.27547  -6062150.26363
  22089495.5924  -12694019.96946  -6467076.65061
  22508866.3424     990516.31245    769196.76661
 91  4 30 22 33 14.9980000  0  5G 2G15G 6G13G19
  20204526.1234   -4319112.83948  -3314083.53563
  23076235.9124   -7049835.50745  -5408654.26661
  20403042.0374   -7941412.29847  -6100835.45063
  22073980.6314  -12775541.62546  -6530599.85161
  22511106.8504    1002285.71345    778367.66361
 91  4 30 22 33 29.9980000  0  5G 2G15G 6G13G19
  20199770.9204   -4344107.53648  -3333559.91063
  23068830.7794   -7088747.52545  -5438975.26061
  20393606.7324   -7990996.72647  -6139472.64563
  22058484.2254  -12856987.49246  -6594063.97561
  22513363.8114    1014120.31945    787589.35061
 91  4 30 22 33 44.9980000  0  5G 2G15G 6G13G19
  20195021.7094   -4369056.77848  -3353000.86663
  23061448.2794   -7127539.45845  -5469202.68761
  20384182.2484   -8040524.27747  -6178065.51063
  22043001.2484  -12938362.36946  -6657472.78061
  22515622.3344    1026014.88645    796857.76061
 91  4 30 22 33 59.9980000  0  5G 2G15G 6G13G19
  20190284.2794   -4393953.94248  -3372401.24063
  23054089.6474   -7166204.32445  -5499331.10761
  20374768.8574   -8089987.97247  -6216608.62163
  22027527.8184  -13019659.09146  -6720820.69061
  22517900.2254    1037975.94845    806178.00561
 91  4 30 22 34 14.9980000  0  5G 2G15G 6G13G19
  20185557.0614   -4418796.06048  -3391758.71863
  23046759.2954   -7204738.95145  -5529358.06061
  20365368.2014   -8139384.60347  -6255099.47863
  22012074.4124  -13100874.28546  -6784105.04861
  22520190.9204    1050006.50345    815552.38161
 91  4 30 22 34 29.9980000  0  5G 2G15G 6G13G19
  20180838.2324   -4443590.10048  -3411078.73763
  23039450.9674   -7243150.14145  -5559288.81661
  20355980.8264   -8188720.73047  -6293543.18063
  21996633.7724  -13182014.43746  -6847330.94761
  22522491.8504    1062099.61845    824975.49761
 91  4 30 22 34 44.9980000  0  5G 2G15G 6G13G19
  20176131.0454   -4468331.23648  -3430357.53563
  23032164.6864   -7281432.61745  -5589119.28061
  20346605.8504   -8237991.24947  -6331935.76763
  21981205.7564  -13263074.35646  -6910494.34561
  22524803.6314    1074260.11645    834451.13961
 91  4 30 22 34 59.9970000  0  5G 2G15G 6G13G19
  20171433.3064   -4493018.58548  -3449594.41763
  23024904.1654   -7319584.49445  -5618847.97661
  20337241.3064   -8287193.35247  -6370275.04863
  21965798.8924  -13344049.01046  -6973591.28161
  22527132.9314    1086486.24645    843977.90161
 91  4 30 22 35 14.9970000  0  5G 2G15G 6G13G19
  20166745.5244   -4517652.55348  -3468789.70063
  23017669.7984   -7357607.60745  -5648476.32261
  20327891.6424   -8336330.30847  -6408563.55763
  21950405.6574  -13424945.80846  -7036627.56161
  22529471.8764    1098782.45645    853559.28561
 91  4 30 22 35 29.9970000  0  5G 2G15G 6G13G19
  20162067.7514   -4542233.78848  -3487943.89463
  23010456.2904   -7395501.50545  -5678003.98261
  20318554.2674   -8385400.90747  -6446800.36263
  21935023.6964  -13505761.39946  -7099600.56861
  22531826.8454    1111145.71845    863192.90661
 91  4 30 22 35 44.9970000  0  5G 2G15G 6G13G19
  20157399.4314   -4566760.21848  -3507055.38663
  23003272.5094   -7433263.80945  -5707429.10261
  20309228.2284   -8434402.89247  -6484983.71363
  21919662.6894  -13586493.32546  -7162508.39661
  22534193.7824    1123577.90245    872880.24661
 91  4 30 22 35 59.9970000  0  5G 2G15G 6G13G19
  20152741.1814   -4591241.44948  -3526131.65763
  22996109.4784   -7470903.81145  -5736758.91961
  20299914.6424   -8483345.32347  -6523120.63963
  21904314.3684  -13667151.04546  -7225358.38661
  22536569.0094    1136069.51445    882613.87761
 91  4 30 22 36 14.9970000  0  5G 2G15G 6G13G19
  20148092.7204   -4615670.18248  -3545167.02363
  22988969.0404   -7508413.77446  -5765987.41761
  20290615.6814   -8532220.79447  -6561205.39363
  21888982.6574  -13747726.46246  -7288144.24561
  22538954.6734    1148627.78645    892399.47061
 91  4 30 22 36 29.9970000  0  5G 2G15G 6G13G19
  20143454.4934   -4640047.86348  -3564162.60663
  22981853.5174   -7545795.19545  -5795115.75861
  20281327.8144   -8581030.25147  -6599238.71363
  21873665.1104  -13828220.50846  -7350866.67261
  22541361.2354    1161251.32345    902235.90661
 91  4 30 22 36 44.9970000  0  5G 2G15G 6G13G19
  20138825.7824   -4664371.07948  -3583115.75063
  22974768.5404   -7583044.55945  -5824141.20561
  20272051.7594   -8629770.30147  -6637217.95163
  21858363.3374  -13908629.65646  -7413523.00761
  22543773.9544    1173943.18745    912125.58461
 91  4 30 22 36 59.9970000  0  5G 2G15G 6G13G19
  20134207.6734   -4688639.69648  -3602026.34363
  22967707.3144   -7620161.30445  -5853063.29861
  20262790.8374   -8678440.19147  -6675142.51263
  21843074.8374  -13988953.35446  -7476112.70661
  22546203.8454    1186703.80045    922068.81761
 91  4 30 22 37 14.9970000  0  5G 2G15G 6G13G19
  20129598.8534   -4712856.71048  -3620896.73763
  22960669.2124   -7657148.26245  -5881884.27261
  20253541.1034   -8727042.59747  -6713014.49563
  21827807.0324  -14069194.21346  -7538637.87761
  22548643.1034    1199530.01545    932063.19361
 91  4 30 22 37 29.9970000  0  5G 2G15G 6G13G19
  20124999.8064   -4737028.08148  -3639731.56363
  22953652.9624   -7694011.17245  -5910608.57661
  20244304.1264   -8775583.44647  -6750838.51363
  21812553.5564  -14149357.82846  -7601102.84961
  22551095.8924    1212415.69545    942103.89261
 91  4 30 22 37 44.9970000  0  5G 2G15G 6G13G19
  20120410.3294   -4761144.36548  -3658523.45663
  22946664.1104   -7730740.09445  -5939228.46661
  20235081.2204   -8824052.83747  -6788606.84363
  21797315.2204  -14229434.11046  -7663499.78361
  22553561.7124    1225370.20545    952198.21561
 91  4 30 22 37 59.9970000  0  5G 2G15G 6G13G19
  20115829.8214   -4785212.11148  -3677277.53663
  22939695.7744   -7767341.41545  -5967748.90561
  20225869.2984   -8872456.91147  -6826324.28063
  21782093.2904  -14309429.39846  -7725833.59561
  22556038.5954    1238386.86745    962340.96861
 91  4 30 22 38 14.9970000  0  5G 2G15G 6G13G19
  20111261.5714   -4809220.37048  -3695985.25463
  22932761.4314   -7803804.10146  -5996161.35061
  20216673.1964   -8920784.60647  -6863982.21363
  21766887.0714  -14389332.36746  -7788095.48161
  22558526.5014    1251476.66045    972540.71361
 91  4 30 22 38 29.9970000  0  5G 2G15G 6G13G19
  20106702.6104   -4833175.59547  -3714651.65263
  22925846.0644   -7840134.36046  -6024470.56861
  20207490.5644   -8969042.02347  -6901585.37463
  21751700.7984  -14469148.97446  -7850290.05861
  22561036.3454    1264633.13245    982792.43861
 91  4 30 22 38 44.9970000  0  5G 2G15G 6G13G19
  20102152.6034   -4857091.58248  -3733287.47163
  22918957.2594   -7876345.60246  -6052687.08661
  20198317.2824   -9017242.44547  -6939144.11663
  21736521.5714  -14548892.61946  -7912427.79661
  22563547.9234    1277842.60445    993085.42461
 91  4 30 22 38 59.9970000  0  5G 2G15G 6G13G19
  20097611.6814   -4880956.80448  -3751883.73963
  22912090.9704   -7912426.18046  -6080801.75561
  20189159.0174   -9065374.12547  -6976649.29463
  21721365.3294  -14628551.12746  -7974499.18761
  22566068.1814    1291116.59244   1003428.69061
 91  4 30 22 39 14.9970000  0  5G 2G15G 6G13G19
  20093078.0014   -4904773.11348  -3770441.88863
  22905250.6654   -7948377.93546  -6108816.06461
  20180011.8214   -9113438.72747  -7014102.20963
  21706221.1494  -14708126.21646  -8036505.57661
  22568610.3214    1304453.06345   1013820.67461
 91  4 30 22 39 29.9970000  0  5G 2G15G 6G13G19
  20088557.7594   -4928538.79548  -3788960.59163
  22898429.9394   -7984198.86245  -6136728.43861
  20170879.2204   -9161434.30747  -7051501.34163
  21691095.9784  -14787616.01346  -8098445.50561
  22571160.3374    1317853.42645   1024262.42361
 91  4 30 22 39 44.9970000  0  5G 2G15G 6G13G19
  20084044.2904   -4952255.64348  -3807441.23663
  22891642.3604   -8019890.41146  -6164539.98961
  20161758.1574   -9209362.32047  -7088847.83263
  21675984.0484  -14867021.84846  -8160319.99561
  22573724.3994    1331315.97445   1034752.62461
 91  4 30 22 39 59.9970000  0  5G 2G15G 6G13G19
  20079540.3764   -4975919.69647  -3825880.74263
  22884874.6494   -8055448.17746  -6192247.27061
  20152652.3214   -9257218.13647  -7126138.05163
  21660890.0874  -14946339.19246  -8222125.55961
  22576295.8064    1344844.78545   1045294.46061
 91  4 30 22 40 14.9970000  0  5G 2G15G 6G13G19
  20075045.6654   -4999536.17047  -3844283.17663
  22878132.3294   -8090877.29946  -6219854.32161
  20143559.2824   -9305006.83847  -7163375.98463
  21645812.5404  -15025572.89046  -8283865.93661
  22578887.6104    1358434.49545   1055883.76461
 91  4 30 22 40 29.9970000  0  5G 2G15G 6G13G19
  20070562.0714   -5023099.74147  -3862644.39163
  22871412.7124   -8126172.28446  -6247356.86561
  20134478.1344   -9352722.95347  -7200557.34963
  21630750.1344  -15104717.30446  -8345536.75361
  22581481.2124    1372090.38945   1066524.62761
 91  4 30 22 40 44.9970000  0  5G 2G15G 6G13G19
  20066088.5244   -5046608.43147  -3880962.83663
  22864725.6264   -8161330.78046  -6274753.02361
  20125411.4464   -9400364.21947  -7237680.39663
  21615707.8374  -15183770.02846  -8407136.10661
  22584093.2514    1385814.32845   1077218.52061
 91  4 30 22 40 59.9970000  0  5G 2G15G 6G13G19
  20061624.8454   -5070059.47747  -3899236.36763
  22858057.4544   -8196349.85445  -6302040.57061
  20116361.7904   -9447927.41947  -7274742.60663
  21600684.5954  -15262727.85246  -8468661.52761
  22586719.7984    1399608.99045   1087967.52261
 91  4 30 22 41 14.9970000  0  5G 2G15G 6G13G19
  20057171.7124   -5093462.18247  -3917472.23363
  22851421.0174   -8231238.74246  -6329226.69961
  20107324.0014   -9495421.47647  -7311750.94563
  21585673.6344  -15341599.79746  -8530120.02061
  22589355.3214    1413465.19545   1098764.45761
 91  4 30 22 41 29.9970000  0  5G 2G15G 6G13G19
  20052730.5404   -5116808.36847  -3935664.05063
  22844805.9544   -8265988.96246  -6356304.72361
  20098299.5874   -9542838.04347  -7348698.89863
  21570681.0954  -15420377.01346  -8591504.69661
  22592005.0794    1427390.89745   1109615.54261
 91  4 30 22 41 44.9970000  0  5G 2G15G 6G13G19
  20048298.5564   -5140098.50247  -3953812.19663
  22838223.1654   -8300600.82046  -6383274.95761
  20089292.2354   -9590177.23147  -7385586.55863
  21555710.2124  -15499059.92946  -8652815.90661
  22594665.4784    1441385.49045   1120520.34861
 91  4 30 22 41 59.9970000  0  5G 2G15G 6G13G19
  20043875.5954   -5163338.96147  -3971921.63063
  22831659.5564   -8335080.44846  -6410142.13761
  20080297.0244   -9637445.07347  -7422418.62163
  21540754.3764  -15577654.58046  -8714058.32961
  22597344.0014    1455442.59345   1131473.83961
 91  4 30 22 42 14.9970000  0  5G 2G15G 6G13G19
  20039462.1494   -5186528.03147  -3989991.02463
  22825125.4464   -8369425.94445  -6436904.80061
  20071315.6814   -9684639.74647  -7459193.66963
  21525816.0484  -15656158.66846  -8775230.17861
  22600025.7904    1469563.92544   1142477.38761
 91  4 30 22 42 29.9970000  0  5G 2G15G 6G13G19
  20035060.2904   -5209662.07347  -4008017.54163
  22818616.2824   -8403633.59646  -6463560.06561
  20062350.5014   -9731757.13347  -7495908.49163
  21510893.4394  -15734568.22746  -8836328.36961
  22602731.8214    1483753.00745   1153533.72361
 91  4 30 22 42 44.9970000  0  5G 2G15G 6G13G19
  20030667.5014   -5232743.10147  -4026002.74163
  22812134.0874   -8437705.20746  -6490109.30261
  20053398.7744   -9778799.11247  -7532564.56063
  21495994.1424  -15812884.91746  -8897354.20961
  22605446.0954    1498007.65745   1164641.14961
 91  4 30 22 42 59.9970000  0  5G 2G15G 6G13G19
  20026286.5174   -5255770.49947  -4043946.15663
  22805673.0874   -8471639.88945  -6516551.86761
  20044460.9624   -9825764.71647  -7569161.11463
  21481108.8064  -15891107.76746  -8958306.90861
  22608170.6494    1512328.46944   1175800.10161
 91  4 30 22 43 14.9970000  0  5G 2G15G 6G13G19
  20021912.5484   -5278744.96947  -4061848.32563
  22799244.0404   -8505438.06446  -6542888.06361
  20035537.9314   -9872654.41947  -7605698.51563
  21466238.9784  -15969236.97846  -9019186.65161
  22610905.1734    1526714.65845   1187010.01661
 91  4 30 22 43 29.9970000  0  5G 2G15G 6G13G19
  20017552.9624   -5301665.56947  -4079708.52463
  22792837.1184   -8539098.37346  -6569116.82261
  20026630.3454   -9919466.62847  -7642175.54063
  21451388.3764  -16047270.97046  -9079992.20961
  22613655.6814    1541167.45245   1198271.85661
 91  4 30 22 43 44.9970000  0  5G 2G15G 6G13G19
  20013203.2514   -5324528.80148  -4097524.01363
  22786459.8604   -8572617.27445  -6595235.38761
  20017736.6654   -9966197.49847  -7678589.18563
  21436557.5094  -16125206.16446  -9140720.77661
  22616421.3994    1555690.09945   1209588.10161
 91  4 30 22 43 59.9970000  0  5G 2G15G 6G13G19
  20008862.1184   -5347331.10047  -4115292.02463
  22780108.4234   -8605991.13945  -6621240.93961
  20008860.1814  -10012843.49947  -7714936.69463
  21421750.1814  -16203038.72646  -9201369.37961
  22619198.3604    1570285.86945   1220961.33861
 91  4 30 22 44 14.9970000  0  5G 2G15G 6G13G19
  20004534.0174   -5370078.15147  -4133016.99063
  22773784.3684   -8639225.48046  -6647137.78461
  20000000.9624  -10059410.03247  -7751222.27663
  21406954.4784  -16280774.01946  -9261942.18361
  22621986.7044    1584949.01745   1232387.05561
 91  4 30 22 44 29.9970000  0  5G 2G15G 6G13G19
  20000216.9464   -5392768.86647  -4150698.05463
  22767486.0874   -8672318.89446  -6672924.81861
  19991154.1814  -10105895.36347  -7787444.58963
  21392180.4934  -16358410.36946  -9322437.88961
  22624794.2904    1599680.64245   1243866.14361
 91  4 30 22 44 44.9970000  0  5G 2G15G 6G13G19
  19995907.2124   -5415407.96347  -4168338.89463
  22761215.5874   -8705276.17046  -6698605.74661
  19982323.4314  -10152304.24647  -7823607.33163
  21377425.4934  -16435952.32446  -9382860.02661
  22627607.5564    1614475.97245   1255394.85261
 91  4 30 22 44 59.9970000  0  5G 2G15G 6G13G19
  19991611.0874   -5437991.47147  -4185936.41763
  22754968.2594   -8738092.95245  -6724177.21561
  19973506.2594  -10198632.38247  -7859707.15763
  21362686.4704  -16513395.69346  -9443205.36161
  22630438.1344    1629338.89245   1266976.26261
 91  4 30 22 45 14.9970000  0  5G 2G15G 6G13G19
  19987322.5014   -5460523.93247  -4203494.16563
  22748751.3144   -8770773.29046  -6749642.37361
  19964705.1964  -10244883.85447  -7895747.24063
  21347969.0484  -16590744.29346  -9503476.82861
  22633276.8534    1644264.90245   1278606.82761
 91  4 30 22 45 29.9970000  0  5G 2G15G 6G13G19
  19983044.4934   -5482999.51747  -4221007.59663
  22742559.2904   -8803311.58346  -6774996.84261
  19955919.9784  -10291052.51147  -7931722.79463
  21333269.9704  -16667992.01246  -9563669.70761
  22636128.9854    1659259.76645   1290291.03961
 91  4 30 22 45 44.9970000  0  5G 2G15G 6G13G19
  19978778.1574   -5505426.45947  -4238483.12363
  22736391.5794   -8835715.61846  -6800246.68061
  19947148.3684  -10337146.16147  -7967639.89863
  21318587.8064  -16745146.38046  -9623789.83961
  22638992.6814    1674315.23745   1302022.48361
 91  4 30 22 45 59.9970000  0  5G 2G15G 6G13G19
  19974520.1264   -5527800.72547  -4255917.60363
  22730254.3844   -8867981.16846  -6825388.60661
  19938390.8454  -10383160.46747  -8003495.17663
  21303922.8064  -16822203.12646  -9683833.90761
  22641874.8994    1689435.24544   1313804.19961
 91  4 30 22 46 14.9970000  0  5G 2G15G 6G13G19
  19970272.7514   -5550121.76747  -4273310.61363
  22724138.7594   -8900107.64646  -6850422.16761
  19929649.7744  -10429094.78847  -8039288.13263
  21289277.7514  -16899161.72546  -9743801.49861
  22644763.8214    1704620.07345   1325636.43561
 91  4 30 22 46 29.9970000  0  5G 2G15G 6G13G19
  19966035.7824   -5572389.65747  -4290662.19563
  22718051.9934   -8932095.01146  -6875347.37461
  19920925.4234  -10474949.00947  -8075018.67363
  21274652.1264  -16976022.03446  -9803692.50161
  22647663.2204    1719869.45345   1337518.94761
 91  4 30 22 46 44.9970000  0  5G 2G15G 6G13G19
  19961807.5404   -5594602.69847  -4307971.04963
  22711992.2124   -8963941.15946  -6900162.50561
  19912215.0874  -10520720.79447  -8110684.98263
  21260048.0954  -17052781.55846  -9863504.95561
  22650578.5404    1735185.18245   1349453.17361
 91  4 30 22 46 59.9970000  0  5G 2G15G 6G13G19
  19957591.6494   -5616761.23347  -4325237.43263
  22705958.7594   -8995646.38546  -6924867.86161
  19903521.0014  -10566410.48547  -8146287.31263
  21245457.8764  -17129440.48446  -9923239.03661
  22653508.3684    1750566.67644   1361438.65661
 91  4 30 22 47 14.9970000  0  5G 2G15G 6G13G19
  19953383.9394   -5638865.54247  -4342461.55863
  22699951.2044   -9027210.91346  -6949463.54461
  19894840.4544  -10612018.02247  -8181825.62763
  21230888.1424  -17205998.66546  -9982894.61461
  22656443.9624    1766013.43844   1373475.00261
 91  4 30 22 47 29.9970000  0  5G 2G15G 6G13G19
  19949189.4704   -5660917.31747  -4359644.74963
  22693972.2124   -9058635.86746  -6973950.48661
  19886177.4704  -10657544.61247  -8217300.87263
  21216338.7354  -17282457.29146 -10042472.63261
  22659396.5714    1781524.14044   1385561.16161
 91  4 30 22 47 44.9970000  0  5G 2G15G 6G13G19
  19945002.0714   -5682915.80147  -4376786.41563
  22688019.1964   -9089920.80346  -6998328.31961
  19877531.8214  -10702989.29747  -8252712.29663
  21201806.0094  -17358815.20446 -10101972.14761
  22662360.0094    1797099.35644   1397697.56661
 91  4 30 22 47 59.9970000  0  5G 2G15G 6G13G19
  19940827.8994   -5704854.67047  -4393881.62563
  22682095.1964   -9121059.21046  -7022591.97861
  19868897.8684  -10748345.61047  -8288054.85863
  21187299.0094  -17435066.11646 -10161388.30161
  22665339.0714    1812745.16544   1409889.00461
 91  4 30 22 48 14.9970000  0  5G 2G15G 6G13G19
  19936663.0174   -5726739.64847  -4410934.84763
  22676191.7354   -9152056.68745  -7046745.79661
  19860284.3064  -10793618.93547  -8323332.74263
  21172807.4234  -17511215.17946 -10220725.08661
  22668328.4544    1828455.72445   1422130.88561
 91  4 30 22 48 29.9970000  0  5G 2G15G 6G13G19
  19932509.4934   -5748570.96547  -4427946.25863
  22670325.2044   -9182912.99846  -7070789.62061
  19851684.2984  -10838809.01347  -8358545.77663
  21158336.3764  -17587262.11146 -10279982.29061
  22671333.7904    1844230.92945   1434423.14661
 91  4 30 22 48 44.9970000  0  5G 2G15G 6G13G19
  19928364.1654   -5770349.66647  -4444916.66363
  22664479.7354   -9213628.92046  -7094724.05061
  19843101.2594  -10883916.50347  -8393694.43863
  21143883.3604  -17663207.51646 -10339160.38361
  22674342.3684    1860069.66044   1446764.90761
 91  4 30 22 48 59.9970000  0  5G 2G15G 6G13G19
  19924229.0874   -5792078.32747  -4461848.07963
  22658656.6104   -9244206.77745  -7118550.90261
  19834532.3924  -10928943.83147  -8428780.65263
  21129451.6184  -17739053.99346 -10398261.39161
  22677371.7744    1875969.16344   1459154.02361
 91  4 30 22 49 14.9960000  0  5G 2G15G 6G13G19
  19920103.8404   -5813755.84947  -4478739.64363
  22652869.1914   -9274645.12446  -7142269.06361
  19825979.3404  -10973887.97747  -8463802.04963
  21115035.9654  -17814796.37846 -10457281.28361
  22680404.6524    1891927.90644   1471589.30761
 91  4 30 22 49 29.9960000  0  5G 2G15G 6G13G19
  19915989.3404   -5835380.30747  -4495589.86463
  22647098.9414   -9304943.11146  -7165877.84261
  19817443.1604  -11018750.03947  -8498759.47163
  21100641.7234  -17890439.69746 -10516223.98961
  22683456.6214    1907952.59244   1484075.97861
 91  4 30 22 49 44.9960000  0  5G 2G15G 6G13G19
  19911885.2384   -5856948.22847  -4512396.02863
  22641361.3874   -9335096.49946  -7189373.93761
  19808923.1764  -11063524.66047  -8533648.77163
  21086269.5044  -17965976.21246 -10575083.47061
  22686520.5204    1924044.13244   1496614.71961
 91  4 30 22 49 59.9960000  0  5G 2G15G 6G13G19
  19907791.6684   -5878463.55948  -4529161.21963
  22635652.0664   -9365108.89646  -7212760.17961
  19800417.9414  -11108215.36347  -8568472.67963
  21071912.7074  -18041409.68046 -10633862.65761
  22689591.5824    1940198.58244   1509202.48761
 91  4 30 22 50 14.9960000  0  5G 2G15G 6G13G19
  19903708.7854   -5899922.31448  -4545882.31863
  22629966.7314   -9394976.11646  -7236033.30561
  19791930.8634  -11152817.86647  -8603227.85163
  21057579.8164  -18116735.73646 -10692558.14861
  22692680.9884    1956419.88544   1521842.34761
 91  4 30 22 50 29.9960000  0  5G 2G15G 6G13G19
  19899634.1064   -5921329.13748  -4562562.94863
  22624309.1294   -9424702.78146  -7259196.90161
  19783460.0904  -11197336.55247  -8637917.72463
  21043265.0824  -18191958.57446 -10751173.21261
  22695779.3404    1972703.35444   1534530.65961
 91  4 30 22 50 44.9960000  0  5G 2G15G 6G13G19
  19895570.5594   -5942680.28348  -4579200.20263
  22618683.3874   -9454285.19245  -7282248.08761
  19775002.9494  -11241767.40347  -8672539.14263
  21028971.1134  -18267074.35346 -10809704.85061
  22698887.2384    1989052.51644   1547270.15961
 91  4 30 22 50 59.9960000  0  5G 2G15G 6G13G19
  19891517.5434   -5963983.39848  -4595800.02663
  22613077.6294   -9483730.47746  -7305192.44161
  19766565.0904  -11286117.59447  -8707097.71863
  21014693.8954  -18342090.02146 -10868158.48361
  22702015.9574    2005459.76944   1560054.91561
 91  4 30 22 51 14.9960000  0  5G 2G15G 6G13G19
  19887472.3094   -5985241.88248  -4612365.06663
  22607497.5984   -9513041.84946  -7328032.44261
  19758139.6214  -11330390.23947  -8741595.87363
  21000438.2854  -18417008.84346 -10926536.65861
  22705146.2154    2021921.69345   1572882.29361
 91  4 30 22 51 29.9960000  0  5G 2G15G 6G13G19
  19883438.6524   -6006442.89948  -4628885.33163
  22601951.0744   -9542206.58046  -7350758.18661
  19749731.5434  -11374572.40547  -8776023.52263
  20986203.9104  -18491817.72846 -10984829.16261
  22708290.4184    2038450.87244   1585762.05661
 91  4 30 22 51 44.9960000  0  5G 2G15G 6G13G19
  19879413.7384   -6027591.53148  -4645364.77563
  22596429.1604   -9571229.30746  -7373373.25561
  19741341.8324  -11418668.90547  -8810384.41263
  20971987.5984  -18566521.28146 -11043039.58361
  22711444.9884    2055042.06644   1598690.12461
 91  4 30 22 51 59.9960000  0  5G 2G15G 6G13G19
  19875398.9414   -6048689.39148  -4661804.65263
  22590932.7384   -9600111.59946  -7395878.90361
  19732965.4184  -11462681.04747  -8844679.56863
  20957792.3564  -18641120.97946 -11101169.10061
  22714614.0514    2071693.49744   1611665.14861
 91  4 30 22 52 14.9960000  0  5G 2G15G 6G13G19
  19871394.8714   -6069732.77348  -4678202.08663
  22585464.2384   -9628849.70046  -7418272.16361
  19724607.1684  -11506604.58047  -8878905.68263
  20943618.1134  -18715612.56346 -11159214.35961
  22717799.0744    2088408.90244   1624690.04161
 91  4 30 22 52 29.9960000  0  5G 2G15G 6G13G19
  19867401.0044   -6090722.96348  -4694558.06663
  22580021.3164   -9657444.98746  -7440554.15161
  19716265.4654  -11550440.52847  -8913063.54363
  20929459.1294  -18789997.05246 -11217176.17861
  22720985.8564    2105187.06944   1637763.81161
 91  4 30 22 52 44.9960000  0  5G 2G15G 6G13G19
  19863415.6454   -6111655.11547  -4710868.82663
  22574607.4184   -9685892.29946  -7462720.85561
  19707941.3324  -11594183.97147  -8947149.32763
  20915327.6374  -18864269.31546 -11275050.53461
  22724193.9964    2122032.34543   1650889.89361
 91  4 30 22 52 59.9960000  0  5G 2G15G 6G13G19
  19859444.1764   -6132532.96748  -4727137.26963
  22569220.2704   -9714195.16545  -7484774.98961
  19699633.5274  -11637838.11447  -8981165.52563
  20901215.7704  -18938432.66646 -11332840.02661
  22727414.8404    2138941.23244   1664065.53761
 91  4 30 22 53 14.9960000  0  5G 2G15G 6G13G19
  19855480.1454   -6153359.21948  -4743365.51463
  22563863.7154   -9742356.05746  -7506718.51861
  19691343.8714  -11681405.59247  -9015114.18963
  20887122.5124  -19012489.41746 -11390546.46561
  22730640.6214    2155910.66844   1677288.35861
 91  4 30 22 53 29.9960000  0  5G 2G15G 6G13G19
  19851527.2314   -6174133.49248  -4759553.25063
  22558535.7384   -9770374.75046  -7528551.22961
  19683069.7544  -11724885.66847  -9048994.74863
  20873049.7704  -19086438.89746 -11448169.32261
  22733881.0204    2172941.00944   1690558.64061
 91  4 30 22 53 44.9960000  0  5G 2G15G 6G13G19
  19847583.6764   -6194856.90548  -4775701.35263
  22553225.6844   -9798252.00146  -7550273.72961
  19674810.9814  -11768279.09647  -9082807.78963
  20858997.5904  -19160281.82746 -11505709.14261
  22737133.2934    2190031.18144   1703875.54261
 91  4 30 22 53 59.9960000  0  5G 2G15G 6G13G19
  19843650.3634   -6215521.00847  -4791803.24563
  22547947.8874   -9825979.51145  -7571879.54861
  19666572.8954  -11811577.05947  -9116546.44263
  20844971.6214  -19234009.50146 -11563159.14161
  22740402.9104    2207189.33744   1717245.41361
 91  4 30 22 54 14.9960000  0  5G 2G15G 6G13G19
  19839728.5124   -6236133.52447  -4807864.93163
  22542703.8164   -9853564.69746  -7593374.47961
  19658349.9814  -11854787.12947  -9150216.61363
  20830958.7314  -19307629.34046 -11620525.13661
  22743674.4964    2224407.82143   1730662.27561
 91  4 30 22 54 29.9960000  0  5G 2G15G 6G13G19
  19835816.3484   -6256691.13247  -4823883.83963
  22537483.6214   -9881004.02246  -7614755.74061
  19650144.8014  -11897905.46647  -9183815.30163
  20816970.3794  -19381137.55746 -11677804.14861
  22746961.7234    2241689.83643   1744128.67561
 91  4 30 22 54 44.9960000  0  5G 2G15G 6G13G19
  19831913.1604   -6277201.40047  -4839865.85263
  22532283.6914   -9908305.11146  -7636029.27461
  19641955.4734  -11940939.71647  -9217348.46463
  20802999.9414  -19454541.70346 -11735002.05861
  22750259.8484    2259027.47544   1757638.41261
 91  4 30 22 54 59.9960000  0  5G 2G15G 6G13G19
  19828021.4344   -6297658.52647  -4855806.45963
  22527116.5824   -9935462.01845  -7657190.46161
  19633782.4264  -11983883.50447  -9250811.13563
  20789054.4884  -19527835.44846 -11792113.95661
  22753578.9814    2276426.61244   1771196.10061
 91  4 30 22 55 14.9960000  0  5G 2G15G 6G13G19
  19824137.9184   -6318063.87447  -4871706.71663
  22521975.4884   -9962475.79046  -7678240.11461
  19625628.1374  -12026737.84647  -9284204.10563
  20775127.9654  -19601019.75446 -11849140.55961
  22756901.1994    2293885.98144   1784800.68061
 91  4 30 22 55 29.9960000  0  5G 2G15G 6G13G19
  19820264.4964   -6338423.60647  -4887571.42963
  22516861.3164   -9989352.74346  -7699183.16761
  19617489.8874  -12069508.79847  -9317532.09963
  20761221.0044  -19674100.39046 -11906086.39361
  22760234.0274    2311398.92744   1798447.02561
 91  4 30 22 55 44.9960000  0  5G 2G15G 6G13G19
  19816398.3244   -6358729.41547  -4903394.12863
  22511774.4574  -10016084.21246  -7720012.85461
  19609368.3484  -12112187.64447  -9350788.32863
  20747334.8714  -19747068.85446 -11962944.82761
  22763571.5434    2328973.94844   1812141.73761
 91  4 30 22 55 59.9960000  0  5G 2G15G 6G13G19
  19812545.4964   -6378983.93747  -4919176.86863
  22506715.4414  -10042672.82946  -7740731.21961
  19601264.6454  -12154776.77247  -9383974.64363
  20733470.6604  -19819927.40746 -12019717.60861
  22766929.3164    2346608.13344   1825882.55161
 91  4 30 22 56 14.9960000  0  5G 2G15G 6G13G19
  19808699.9264   -6399184.06147  -4934917.20963
  22501684.6064  -10069115.50146  -7761335.85861
  19593177.0204  -12197272.88747  -9417088.47863
  20719628.2774  -19892672.74546 -12076402.16361
  22770299.7154    2364304.44444   1839671.76461
 91  4 30 22 56 29.9960000  0  5G 2G15G 6G13G19
  19804867.6374   -6419329.11547  -4950614.64763
  22496678.0514  -10095411.35346  -7781826.10861
  19585107.1064  -12239674.91947  -9450129.00063
  20705805.2934  -19965303.92046 -12132997.75661
  22773678.5434    2382063.21444   1853509.64661
 91  4 30 22 56 44.9960000  0  5G 2G15G 6G13G19
  19801043.8324   -6439418.34247  -4966268.57963
  22491704.3244  -10121559.39746  -7802201.15061
  19577057.6604  -12281981.88447  -9483095.44863
  20692009.6764  -20037819.73846 -12189503.47761
  22777070.9574    2399885.30044   1867396.87961
 91  4 30 22 56 59.9960000  0  5G 2G15G 6G13G19
  19797232.2854   -6459452.18547  -4981879.36363
  22486755.0514  -10147560.27446  -7822461.54561
  19569023.7544  -12324193.88347  -9515987.90563
  20678229.0124  -20110220.36146 -12245919.42561
  22780478.8014    2417770.14544   1881333.01961
 91  4 30 22 57 14.9960000  0  5G 2G15G 6G13G19
  19793430.5984   -6479430.63147  -4997446.97363
  22481834.0124  -10173413.80046  -7842607.12461
  19561009.9654  -12366310.61847  -9548806.12563
  20664473.6844  -20182505.55946 -12302245.44161
  22783887.3164    2435717.79744   1895318.07761
 91  4 30 22 57 29.9960000  0  5G 2G15G 6G13G19
  19789638.1604   -6499360.55647  -5012976.77463
  22476943.3484  -10199126.87746  -7862643.25661
  19553013.0044  -12408338.82647  -9581555.36563
  20650737.3164  -20254681.87846 -12358486.59661
  22787318.8794    2453721.11644   1909346.51761
 91  4 30 22 57 44.9960000  0  5G 2G15G 6G13G19
  19785856.6604   -6519233.26647  -5028461.99063
  22472080.3874  -10224690.56346  -7882562.97461
  19545032.5514  -12450269.30347  -9614228.43663
  20637027.8874  -20326740.23446 -12414635.84161
  22790755.8324    2471788.86244   1923425.15861
 91  4 30 22 57 59.9960000  0  5G 2G15G 6G13G19
  19782084.5204   -6539054.46047  -5043907.06563
  22467239.0594  -10250110.38246  -7902370.60561
  19537072.7154  -12492107.58447  -9646829.68163
  20623337.7624  -20398685.91646 -12470697.30461
  22794198.8874    2489915.00244   1937549.31161
 91  4 30 22 58 14.9960000  0  5G 2G15G 6G13G19
  19778322.6454   -6558823.58147  -5059311.57263
  22462429.6604  -10275385.82345  -7922065.76361
  19529129.1684  -12533852.81047  -9679358.41463
  20609666.5204  -20470518.28146 -12526670.45261
  22797666.0434    2508100.06344   1951719.38761
 91  4 30 22 58 29.9960000  0  5G 2G15G 6G13G19
  19774572.9964   -6578536.89848  -5074672.59363
  22457646.8164  -10300512.84345  -7941645.26261
  19521202.7624  -12575500.97047  -9711811.50963
  20596019.4884  -20542233.12946 -12582552.03361
  22801136.9264    2526347.66043   1965938.15961
 91  4 30 22 58 44.9960000  0  5G 2G15G 6G13G19
  19770829.6214   -6598198.14647  -5089993.03663
  22452899.4574  -10325495.20646  -7961111.98161
  19513294.5434  -12617055.41347  -9744191.57863
  20582394.5744  -20613833.72546 -12638344.57561
  22804618.9024    2544653.97943   1980202.70361
 91  4 30 22 58 59.9960000  0  5G 2G15G 6G13G19
  19767098.7384   -6617808.58047  -5105273.89063
  22448165.8164  -10350333.76046  -7980466.67161
  19505406.1684  -12658516.96347  -9776499.26563
  20568791.2624  -20685320.97646 -12694048.80761
  22808112.3714    2563017.75543   1994512.02961
 91  4 30 22 59 14.9960000  0  5G 2G15G 6G13G19
  19763375.1214   -6637370.21147  -5120516.71563
  22443471.0204  -10375030.51746  -7999710.87461
  19497533.3014  -12699887.60047  -9808736.11863
  20555207.9654  -20756696.79946 -12749666.21161
  22811619.5984    2581436.77943   2008864.37761
 91  4 30 22 59 29.9960000  0  5G 2G15G 6G13G19
  19759662.0984   -6656888.46748  -5135725.73663
  22438797.1764  -10399591.07646  -8018848.93261
  19489676.0124  -12741172.49547  -9840906.15263
  20541645.7854  -20827966.28446 -12805200.76061
  22815134.0124    2599905.46943   2023255.46361
 91  4 30 22 59 44.9960000  0  4G 2G15G 6G13
  19755959.0904   -6676349.89948  -5150890.47963
  22434149.6844  -10424001.82946  -8037870.27561
  19481839.2464  -12782357.86647  -9872998.63463
  20528106.8014  -20899115.72546 -12860641.76461
 91  4 30 22 59 59.9960000  0  4G 2G15G 6G13
  19752267.1684   -6695756.24248  -5166012.30063
  22429529.4184  -10448264.31845  -8056776.08561
  19474020.6524  -12823445.14847  -9905014.68463
  20514591.6064  -20970146.35246 -12915990.18661
 91  4 30 23  0 14.9960000  0  5G 2G15G 6G13G19
  19748582.3714   -6715111.17147  -5181094.05463
  22424940.0274  -10472382.38745  -8075569.36661
  19466219.3324  -12864437.72347  -9936956.93263
  20501094.3714  -21041061.70646 -12971248.78061
  22825748.3094         -0.17953
 91  4 30 23  0 29.9960000  0  5G 2G15G 6G13G19
  19744910.1914   -6734412.72147  -5196134.21963
  22420379.8094  -10496353.99246  -8094248.51661
  19458438.3634  -12905333.42147  -9968823.70163
  20487625.1134  -21111859.55246 -13026415.82161
  22829313.1844      18708.79743
 91  4 30 23  0 44.9960000  0  5G 2G15G 6G13G19
  19741246.3244   -6753663.54147  -5211134.85564
  22415844.3404  -10520181.57546  -8112815.44161
  19450673.3324  -12946134.44947 -10000616.69763
  20474170.5594  -21182542.20046 -13081493.08861
  22832872.1844      37474.19143        -0.26971
 91  4 30 23  0 59.9960000  0  5G 2G15G 6G13G19
  19737593.3874   -6772856.11847  -5226090.11263
  22411341.1134  -10543857.60446  -8131264.28561
  19442928.7934  -12986833.02047 -10032329.85963
  20460746.6914  -21253101.80746 -13136474.48161
  22836467.6214      56303.31443     14671.65061
 91  4 30 23  1 14.9960000  0  5G 2G15G 6G13G19
  19733950.5514   -6791999.60247  -5241007.10463
  22406862.8404  -10567391.11546  -8149602.04161
  19435200.1684  -13027438.04347 -10063970.11963
  20447339.6684  -21323547.33146 -13191366.97661
  22840057.7934      75186.81143     29385.93861
 91  4 30 23  1 29.9960000  0  5G 2G15G 6G13G19
  19730316.3874   -6811091.84347  -5255884.17263
  22402414.8874  -10590779.82546  -8167826.98661
  19427492.9104  -13067947.18147 -10095535.67563
  20433957.9964  -21393876.33046 -13246168.68061
  22843662.4184      94126.76743     44144.22961
 91  4 30 23  1 44.9960000  0  5G 2G15G 6G13G19
  19726692.8484   -6830130.56547  -5270719.54063
  22397993.1524  -10614021.58446  -8185937.45561
  19419803.6914  -13108357.87347 -10127024.51463
  20420594.6294  -21464086.29246 -13300877.62861
  22847276.5594     113125.22443     58948.09961
 91  4 30 23  1 59.9960000  0  5G 2G15G 6G13G19
  19723081.9574   -6849116.57248  -5285513.82264
  22393596.0824  -10637117.05846  -8203933.92161
  19412133.1374  -13148670.55347 -10158436.97563
  20407256.9574  -21534177.53246 -13355494.05361
  22850902.3484     132181.31143     73796.88661
 91  4 30 23  2 14.9960000  0  5G 2G15G 6G13G19
  19719478.6524   -6868047.56147  -5300265.23663
  22389229.5354  -10660063.76646  -8221814.45461
  19404478.5744  -13188882.68947 -10189771.09363
  20393941.5514  -21604147.70746 -13410016.14661
  22854538.2624     151297.30343     88692.32261
 91  4 30 23  2 29.9960000  0  5G 2G15G 6G13G19
  19715887.1524   -6886925.58047  -5314975.37264
  22384887.1134  -10682863.77946  -8239580.67461
  19396845.7464  -13228995.98147 -10221028.18763
  20380653.2314  -21673998.27146 -13464445.05361
  22858182.6914     170470.77743    103632.58461
 91  4 30 23  2 44.9960000  0  5G 2G15G 6G13G19
  19712303.5274   -6905750.75047  -5329644.33263
  22380582.3564  -10705517.01046  -8257232.54461
  19389230.6524  -13269010.38247 -10252208.22763
  20367382.0204  -21743729.04046 -13518780.60361
  22861845.0274     189701.69643    118617.60261
 91  4 30 23  2 59.9960000  0  5G 2G15G 6G13G19
  19708731.8714   -6924522.41247  -5344271.59763
  22376295.1994  -10728022.88846  -8274769.57661
  19381636.8714  -13308924.92247 -10283310.45163
  20354131.9264  -21813339.22046 -13573022.17661
  22865521.5204     208990.53443    133647.74061
 91  4 30 23  3 14.9960000  0  5G 2G15G 6G13G19
  19705170.1604   -6943240.13748  -5358856.83163
  22372043.4574  -10750381.01346  -8292191.47661
  19374059.8634  -13348738.85547 -10314334.28863
  20340913.6684  -21882828.09146 -13627169.24461
  22869200.3874     228337.58543    148723.20561
 91  4 30 23  3 29.9960000  0  5G 2G15G 6G13G19
  19701619.8244   -6961904.33548  -5373400.35663
  22367815.8564  -10772591.52646  -8309498.35661
  19366502.2544  -13388452.42247 -10345279.90763
  20327711.1294  -21952195.78746 -13681221.87161
  22872892.0204     247742.17143    163843.53461
 91  4 30 23  3 44.9960000  0  5G 2G15G 6G13G19
  19698077.9964   -6980516.69548  -5387903.48363
  22363615.7624  -10794656.33446  -8326691.70961
  19358965.5824  -13428066.96747 -10376148.36863
  20314531.6914  -22021443.56946 -13735181.07961
  22876596.3324     267202.66343    179007.44961
 91  4 30 23  3 59.9950000  0  5G 2G15G 6G13G19
  19694546.3824   -6999075.24348  -5402364.68563
  22359442.9524  -10816572.90346  -8343769.54661
  19351444.9524  -13467578.73547 -10406936.74663
  20301381.0384  -22090566.01446 -13789042.62761
  22880308.0544     286718.50943    194214.45061
 91  4 30 23  4 14.9950000  0  5G 2G15G 6G13G19
  19691024.3904   -7017582.06348  -5416785.57463
  22355305.1084  -10838344.08146  -8360734.09161
  19343944.2184  -13506992.42947 -10437648.70363
  20288248.6324  -22159571.66246 -13842813.14761
  22884030.0464     306292.22943    209466.59061
 91  4 30 23  4 29.9950000  0  5G 2G15G 6G13G19
  19687512.6794   -7036035.41848  -5431164.81263
  22351189.9764  -10859967.68346  -8377583.65461
  19336464.0934  -13546304.75347 -10468281.67063
  20275138.1324  -22228455.06646 -13896488.42661
  22887772.2884     325922.88944    224763.08861
 91  4 30 23  4 44.9950000  0  5G 2G15G 6G13G19
  19684011.5074   -7054432.54148  -5445500.22463
  22347104.3354  -10881440.91245  -8394315.99861
  19329005.1714  -13585512.42347 -10498833.08863
  20262056.4374  -22297213.01846 -13950065.94161
  22891518.7884     345613.12744    240105.99061
 91  4 30 23  4 59.9950000  0  5G 2G15G 6G13G19
  19680522.1794   -7072773.99348  -5459792.25763
  22343046.3584  -10902764.00445  -8410931.38861
  19321562.3124  -13624615.82947 -10529303.26563
  20248995.5854  -22365845.77646 -14003545.90361
  22895276.5154     365362.41744    255494.91461
 91  4 30 23  5 14.9950000  0  5G 2G15G 6G13G19
  19677040.7574   -7091064.53948  -5474044.62263
  22339012.4524  -10923941.63246  -8427433.40261
  19314140.8274  -13663619.33847 -10559695.59463
  20235956.7334  -22434358.01646 -14056931.96661
  22899046.6944     385165.87344    270926.03861
 91  4 30 23  5 29.9950000  0  5G 2G15G 6G13G19
  19673572.3194   -7109297.54448  -5488252.14963
  22335009.4914  -10944967.49045  -8443817.15261
  19306738.3124  -13702516.20347 -10590004.82263
  20222945.1484  -22502742.65646 -14110218.59461
  22902825.7804     405030.00644    286404.44461
 91  4 30 23  5 44.9950000  0  5G 2G15G 6G13G19
  19670111.9214   -7127480.85548  -5502420.94563
  22331034.7414  -10965849.13545  -8460088.54861
  19299356.8514  -13741313.87447 -10620236.76063
  20209954.9524  -22571007.32747 -14163411.73861
  22906613.4684     424946.94443    301924.01161
 91  4 30 23  5 59.9950000  0  5G 2G15G 6G13G19
  19666661.8274   -7145603.54647  -5516542.51463
  22327099.9054  -10986575.78546  -8476239.16661
  19291992.3824  -13780001.37647 -10650382.84663
  20196990.6554  -22639141.06847 -14216502.87461
  22910419.2964     444927.20843    317492.90461
 91  4 30 23  6 14.9950000  0  5G 2G15G 6G13G19
  19663224.8824   -7163676.97948  -5530625.70063
  22323176.9214  -11007158.84346  -8492277.89561
  19284649.9604  -13818589.68247 -10680451.63463
  20184047.3824  -22707155.01147 -14269500.65361
  22914226.4994     464959.16843    333102.07561
 91  4 30 23  6 29.9950000  0  5G 2G15G 6G13G19
  19659792.4134   -7181698.98348  -5544668.81463
  22319292.8584  -11027595.96546  -8508202.91361
  19277327.6874  -13857076.38747 -10710441.25363
  20171128.6874  -22775046.51347 -14322403.01961
  22918051.4604     485044.94843    348753.19961
 91  4 30 23  6 44.9950000  0  5G 2G15G 6G13G19
  19656372.6944   -7199674.35048  -5558675.58463
  22315422.5774  -11047892.05645  -8524018.03261
  19270022.3904  -13895465.93147 -10740355.16963
  20158229.9994  -22842820.15847 -14375213.55661
  22921886.1874     505179.85044    364442.58161
 91  4 30 23  6 59.9950000  0  5G 2G15G 6G13G19
  19652961.8904   -7217592.87247  -5572638.06563
  22311598.1944  -11068036.68945  -8539715.15861
  19262736.3124  -13933747.80847 -10770185.18963
  20145357.1874  -22910465.29947 -14427923.95961
  22925724.7574     525373.65043    380177.87961
 91  4 30 23  7 14.9950000  0  5G 2G15G 6G13G19
  19649563.6794   -7235458.63447  -5586559.43063
  22307788.9604  -11088033.67645  -8555297.21261
  19255469.5074  -13971925.94647 -10799934.37063
  20132509.2804  -22977985.73847 -14480537.19161
  22929579.7654     545622.42443    395956.00261
 91  4 30 23  7 29.9950000  0  5G 2G15G 6G13G19
  19646173.5074   -7253272.57148  -5600440.41863
  22304013.1244  -11107884.30345  -8570765.21861
  19248225.7184  -14010000.74947 -10829603.03163
  20119684.3124  -23045382.19747 -14533053.81361
  22933439.7264     565925.02543    411776.08161
 91  4 30 23  7 44.9950000  0  5G 2G15G 6G13G19
  19642792.1944   -7271037.08648  -5614282.88763
  22300264.3514  -11127590.81645  -8586120.91461
  19240999.1634  -14047974.61247 -10859193.03563
  20106880.5544  -23112656.89647 -14585475.56961
  22937314.8044     586278.84843    427636.05461
 91  4 30 23  7 59.9950000  0  5G 2G15G 6G13G19
  19639420.8044   -7288752.88048  -5628087.40563
  22296540.7804  -11147153.92246  -8601364.88361
  19233794.3274  -14085847.90147 -10888704.67563
  20094103.1874  -23179810.32347 -14637802.82761
  22941204.9134     606682.90843    443535.20161
 91  4 30 23  8 14.9950000  0  5G 2G15G 6G13G19
  19636059.7734   -7306416.12547  -5641850.95963
  22292841.2654  -11166570.14646  -8616494.38761
  19226604.4444  -14123616.68847 -10918134.88563
  20081346.7654  -23246838.49447 -14690032.46461
  22945093.3984     627140.85943    459476.31561
 91  4 30 23  8 29.9950000  0  5G 2G15G 6G13G19
  19632708.3744   -7324032.88347  -5655578.29663
  22289176.1794  -11185845.19546  -8631513.92161
  19219437.7264  -14161286.66647 -10947488.09663
  20068615.8354  -23313747.04247 -14742168.90061
  22948990.8124     647646.39843    475454.51761
 91  4 30 23  8 44.9950000  0  5G 2G15G 6G13G19
  19629363.2414   -7341601.19447  -5669267.88363
  22285534.2964  -11204977.27446  -8646422.00661
  19212288.9914  -14198855.76147 -10976762.69963
  20055906.3984  -23380534.03047 -14794210.61861
  22952904.9374     668201.32743    491471.20861
 91  4 30 23  8 59.9950000  0  5G 2G15G 6G13G19
  19626032.1554   -7359117.35548  -5682916.83163
  22281921.7804  -11223962.47746  -8661215.64261
  19205159.9214  -14236319.85247 -11005955.48363
  20043219.6244  -23447195.29347 -14846154.36661
  22956821.9914     688809.43043    507529.31461
 91  4 30 23  9 14.9950000  0  5G 2G15G 6G13G19
  19622709.1244   -7376581.38148  -5696525.16363
  22278335.3984  -11242800.91046  -8675894.91761
  19198049.2884  -14273678.58547 -11035066.16563
  20030558.9914  -23513730.51147 -14897999.90661
  22960753.1794     709470.47243    523628.67561
 91  4 30 23  9 29.9950000  0  5G 2G15G 6G13G19
  19619395.0854   -7393994.94248  -5710094.16763
  22274783.0694  -11261494.11246  -8690461.02361
  19190960.3194  -14310933.44847 -11064095.90963
  20017923.0464  -23580140.95447 -14949748.20261
  22964694.3514     730182.48142    539767.76261
 91  4 30 23  9 44.9950000  0  5G 2G15G 6G13G19
  19616091.6794   -7411355.16348  -5723621.59863
  22271254.7334  -11280039.26846  -8704911.78361
  19183892.3124  -14348081.28547 -11093042.25763
  20005308.9994  -23646423.62047 -15001396.93361
  22968649.3584     750948.47442    555948.92061
 91  4 30 23  9 59.9950000  0  5G 2G15G 6G13G19
  19612798.4914   -7428666.51948  -5737110.96363
  22267749.2104  -11298440.51646  -8719250.38861
  19176842.5464  -14385126.25847 -11121908.45863
  19992720.4524  -23712582.65546 -15052949.34161
  22972614.4134     771763.83742    572168.49061
 91  4 30 23 10 14.9950000  0  5G 2G15G 6G13G19
  19609510.7574   -7445928.51548  -5750561.86163
  22264274.5854  -11316697.57945  -8733476.64961
  19169812.6944  -14422067.79847 -11150694.06863
  19980151.9764  -23778617.54946 -15104405.01161
  22976577.1244     792628.56342    588426.58261
 91  4 30 23 10 29.9950000  0  5G 2G15G 6G13G19
  19606237.0074   -7463137.32148  -5763971.32063
  22260830.1164  -11334806.86546  -8747587.75361
  19162803.7264  -14458901.77247 -11179395.84763
  19967611.9994  -23844524.18247 -15155760.73761
  22980566.5694     813546.35842    604726.03961
 91  4 30 23 10 44.9950000  0  5G 2G15G 6G13G19
  19602973.1634   -7480292.34948  -5777338.86963
  22257410.6244  -11352767.69746  -8761583.18261
  19155812.3514  -14495627.29847 -11208013.12463
  19955094.3824  -23910301.68546 -15207015.83561
  22984551.4524     834517.71642    621067.18661
 91  4 30 23 10 59.9950000  0  5G 2G15G 6G13G19
  19599717.4764   -7497394.47148  -5790665.19163
  22254020.3584  -11370580.84746  -8775463.53061
  19148845.6324  -14532244.94247 -11236546.34963
  19942601.4834  -23975950.67946 -15258170.81261
  22988557.1714     855541.81142    637449.45361
 91  4 30 23 11 14.9950000  0  5G 2G15G 6G13G19
  19596472.2654   -7514452.40048  -5803957.08363
  22250655.6944  -11388254.68445  -8789235.31661
  19141896.8664  -14568763.02647 -11265001.98263
  19930129.1874  -24041479.41146 -15309232.07061
  22992566.4294     876609.80742    653865.93061
 91  4 30 23 11 29.9950000  0  5G 2G15G 6G13G19
  19593237.6554   -7531459.08248  -5817209.03863
  22247319.1164  -11405782.77146  -8802893.55761
  19134966.1484  -14605174.45947 -11293374.51263
  19917685.5774  -24106881.02246 -15360194.26361
  22996579.6084     897728.40542    670321.84761
 91  4 30 23 11 44.9950000  0  5G 2G15G 6G13G19
  19590007.6404   -7548415.85147  -5830422.10363
  22244017.3904  -11423166.46146  -8816439.26861
  19128059.5934  -14641480.31147 -11321664.77963
  19905264.5774  -24172156.32647 -15411058.04261
  23000615.6944     918896.23543    686816.12361
 91  4 30 23 11 59.9950000  0  5G 2G15G 6G13G19
  19586793.4214   -7565322.32248  -5843595.98063
  22240738.8664  -11440405.17946  -8829872.00261
  19121169.8744  -14677679.88747 -11349872.22763
  19892867.1634  -24237304.79047 -15461822.98961
  23004658.0774     940113.35842    703348.76861
 91  4 30 23 12 14.9950000  0  5G 2G15G 6G13G19
  19583583.5934   -7582180.56548  -5856732.26663
  22237480.9914  -11457500.88346  -8843193.33261
  19114301.9134  -14713774.84547 -11377998.16963
  19880493.1794  -24302328.24247 -15512490.52261
  23008690.8744     961377.64342    719918.13961
 91  4 30 23 12 29.9950000  0  5G 2G15G 6G13G19
  19580384.1874   -7598994.66848
  22234253.0694  -11474457.87145
  19107451.9764  -14749769.37147 -11406045.84163
  19868143.8584  -24367230.49447 -15563063.62061
  23012751.3984     982684.62742    736520.85961
 91  4 30 23 12 44.9950000  0  5G 2G15G 6G13G19
  19577193.3904   -7615763.38548
  22231051.5934  -11491274.70446
  19100622.3904  -14785661.96647 -11434014.07963
  19855817.3274  -24432010.17847 -15613541.20261
  23016814.3194    1004035.50842    753157.73861
 91  4 30 23 12 59.9950000  0  5G 2G15G 6G13G19
  19574010.7734   -7632482.00348
  22227880.2264  -11507946.78745
  19093811.6794  -14821447.40447 -11461898.83363
  19843514.1634  -24496662.29447 -15663919.38561
  23020887.4764    1025434.86442    769832.39461
 91  4 30 23 13 14.9950000  0  5G 2G15G 6G13G19
  19570841.0544   -7649148.42348  -5908914.99763
  22224740.4294  -11524472.08845
  19087023.8194  -14857123.44347 -11489698.33663
  19831235.8354  -24561184.52547 -15714196.35961
  23024965.1324    1046884.66342    786546.40061
 91  4 30 23 13 29.9950000  0  5G 2G15G 6G13G19
  19567677.1484   -7665762.43547  -5921860.97563
  22221622.3354  -11540850.32745
  19080255.7104  -14892689.56047 -11517412.17663
  19818981.6164  -24625576.48547 -15764371.81961
  23029059.8274    1068384.91642    803299.69061
 91  4 30 23 13 44.9950000  0  5G 2G15G 6G13G19
  19564525.4764   -7682329.83148  -5934770.62363
  22218530.2024  -11557087.55645        -0.20371
  19073505.4294  -14928151.37847 -11545044.75763
  19806750.8984  -24689843.71747 -15814450.09961
  23033157.8044    1089929.76742    820087.72461
 91  4 30 23 13 59.9950000  0  5G 2G15G 6G13G19
  19561382.6014   -7698853.05348  -5947645.85763
  22215462.7414  -11573185.97445    -12544.41161
  19066777.3354  -14963510.98647 -11572597.68663
  19794545.2184  -24753988.43347 -15864432.90661
  23037268.4764    1111516.47442    836908.34461
 91  4 30 23 14 14.9950000  0  5G 2G15G 6G13G19
  19558247.6794   -7715327.35948  -5960482.97263
  22212431.1554  -11589141.06045    -24976.93161
  19060070.5544  -14998763.32947 -11600067.03063
  19782363.5304  -24818005.57747 -15914316.30861
  23041389.2414    1133149.75842    853765.29461
 91  4 30 23 14 29.9950000  0  5G 2G15G 6G13G19
  19555120.4524   -7731751.06948  -5973280.66663
  22209423.5154  -11604950.94145    -37296.28761
  19053383.9604  -15033906.51147 -11627451.32063
  19770205.2654  -24881893.15847 -15964098.75161
  23045515.2574    1154831.07543    870659.66861
 91  4 30 23 14 44.9950000  0  5G 2G15G 6G13G19
  19552004.3124   -7748129.24348  -5986042.88163
  22206437.1324  -11620620.86945    -49506.63161
  19046716.2964  -15068945.58247 -11654754.48663
  19758071.2574  -24945655.95947 -16013783.97161
  23049643.6014    1176555.06043    887587.27461
 91  4 30 23 14 59.9950000  0  5G 2G15G 6G13G19
  19548896.9914   -7764456.92948  -5998765.75163
  22203488.3984  -11636145.86945    -61604.00761
  19040068.1714  -15103875.08947 -11681972.27463
  19745963.4834  -25009289.03247 -16063368.10161
  23053789.8044    1198326.67743    904552.03561
 91  4 30 23 15 14.9950000  0  5G 2G15G 6G13G19
  19545799.1874   -7780737.30748  -6011451.76363
  22200553.4604  -11651529.16445    -73590.97961
  19033442.9134  -15138698.19647 -11709107.15363
  19733878.2574  -25072795.34247 -16112853.44661
  23057939.3584    1220142.44643    921551.19061
 91  4 30 23 15 29.9950000  0  5G 2G15G 6G13G19
  19542710.9214   -7796965.19247  -6024096.86363
  22197659.6084  -11666765.90746    -85463.75561
  19026837.9444  -15173409.51147 -11736154.91763
  19721816.3584  -25136169.53547 -16162235.86161
  23062101.7964    1242007.38543    938588.65061
 91  4 30 23 15 44.9950000  0  5G 2G15G 6G13G19
  19539631.9834   -7813146.96048  -6036706.02663
  22194788.4054  -11681862.22345    -97227.09861
  19020251.3984  -15208015.10147 -11763120.30963
  19709782.4524  -25199417.79047 -16211520.12461
  23066269.9054    1263914.88043    955659.23961
 91  4 30 23 15 59.9950000  0  5G 2G15G 6G13G19
  19536562.4214   -7829281.82548  -6049278.64563
  22191940.3584  -11696817.22345   -108880.35561
  19013688.2024  -15242513.77147 -11790002.37563
  19697770.1484  -25262538.80547 -16260705.25761
  23070450.0774    1285865.67443    972763.59261
 91  4 30 23 16 14.9950000  0  5G 2G15G 6G13G19
  19533501.4764   -7845363.42648  -6061809.75363
  22189122.0074  -11711624.38845   -120418.38361
  19007142.2964  -15276898.97547 -11816796.02863
  19685786.1014  -25325526.27647 -16309786.31561
  23074631.1554    1307865.98943    989906.54461
 91  4 30 23 16 29.9950000  0  5G 2G15G 6G13G19
  19530451.7734   -7861395.78847  -6074302.50563
  22186327.7184  -11726288.02945   -131844.58761
  19000621.9834  -15311174.46747 -11843504.19163
  19673823.2804  -25388383.77747 -16358766.10661
  23078824.8124    1329911.54543   1007084.73461
 91  4 30 23 16 44.9950000  0  5G 2G15G 6G13G19
  19527408.7184   -7877384.22947  -6086761.02963
  22183566.5624  -11740813.78045   -143163.35661
  18994117.4214  -15345345.54947 -11870130.99863
  19661885.7264  -25451116.56947 -16407648.72061
  23083027.8194    1351996.86443   1024293.89161
 91  4 30 23 16 59.9950000  0  5G 2G15G 6G13G19
  19524374.4834   -7893327.31247  -6099184.21063
  22180828.7804  -11755200.16446   -154373.51761
  18987635.9294  -15379410.41647 -11896675.04063
  19649972.0854  -25513723.07947 -16456432.93561
  23087244.7024    1374123.09843   1041534.94061
 91  4 30 23 17 14.9950000  0  5G 2G15G 6G13G19
  19521350.8664   -7909216.46148  -6111565.36263
  22178117.1014  -11769438.62445   -165468.39261
  18981175.5384  -15413360.21747 -11923129.42363
  19638081.3434  -25576194.68547 -16505112.02661
  23091462.7024    1396298.80143   1058814.54161
 91  4 30 23 17 29.9950000  0  5G 2G15G 6G13G19
  19518336.8194   -7925057.07948  -6123908.69763
  22175439.5234  -11783534.62746   -176452.29261
  18974734.5544  -15447200.10647 -11949498.15263
  19626220.2964  -25638536.28747 -16553689.81761
  23095688.6554    1418518.27343   1076128.21961
 91  4 30 23 17 44.9950000  0  5G 2G15G 6G13G19
  19515332.7734   -7940847.21548  -6136212.70163
  22172787.3584  -11797486.14045   -187323.58561
  18968316.4524  -15480927.89047 -11975779.54363
  19614381.5774  -25700745.84047 -16602164.71661
  23099929.3904    1440783.41542   1093477.55361
 91  4 30 23 17 59.9950000  0  5G 2G15G 6G13G19
  19512335.2494   -7956591.76847  -6148481.18363
  22170157.5544  -11811298.08245   -198086.13061
  18961919.3584  -15514548.11947 -12001977.10963
  19602569.1484  -25762827.75047 -16650540.15261
  23104169.3744    1463089.28642   1110858.58261
 91  4 30 23 18 14.9950000  0  5G 2G15G 6G13G19
  19509351.6714   -7972280.86648  -6160706.45863
  22167553.1714  -11824960.56945   -208732.21461
  18955542.4994  -15548050.78947 -12028083.08562
  19590780.6794  -25824772.17547 -16698808.46161
  23108424.8984    1485445.27942   1128278.61161
 91  4 30 23 18 29.9950000  0  5G 2G15G 6G13G19
  19506375.0694   -7987913.72948  -6172887.91663
  22164985.7804  -11838473.02745   -219261.38761
  18949191.0074  -15581434.96347 -12054096.72362
  19579019.6484  -25886578.24247 -16746968.95361
  23112688.5154    1507851.99343   1145738.26061
 91  4 30 23 18 44.9940000  0  5G 2G15G 6G13G19
  19503410.3544   -8003494.42547  -6185028.72263
  22162438.6194  -11851840.02745   -229677.22561
  18942859.2684  -15614703.38747 -12080020.16563
  19567283.2134  -25948247.00147 -16795022.45061
  23116965.3934    1530302.48142   1163231.96861
 91  4 30 23 18 59.9940000  0  5G 2G15G 6G13G19
  19500454.1504   -8019029.05647  -6197133.63363
  22159924.3774  -11865067.09145   -239983.99861
  18936551.5964  -15647864.19147 -12105859.73763
  19555572.5334  -26009790.32947 -16842978.22161
  23121242.8074    1552795.82842   1180759.04561
 91  4 30 23 19 14.9940000  0  5G 2G15G 6G13G19
  19497507.4714   -8034517.90447  -6209202.86463
  22157433.1434  -11878154.37746   -250181.89561
  18930260.5654  -15680916.10947 -12131614.47463
  19543885.4244  -26071204.62147 -16890833.43461
  23125527.1274    1575329.37142   1198317.47661
 91  4 30 23 19 29.9940000  0  5G 2G15G 6G13G19
  19494568.2214   -8049955.30547  -6221232.01463
  22154973.3694  -11891096.64845   -260266.76261
  18923993.3384  -15713853.32347 -12157279.82563
  19532224.7294  -26132484.48647 -16938583.90461
  23129829.9634    1597908.22442   1215911.21261
 91  4 30 23 19 44.9940000  0  5G 2G15G 6G13G19
  19491640.0104   -8065345.28148  -6233224.20063
  22152532.7834  -11903898.23445   -270242.02861
  18917746.0724  -15746679.76347 -12182858.85963
  19520589.1114  -26193633.84847 -16986232.68361
  23134128.5494    1620528.13242   1233536.92061
 91  4 30 23 19 59.9940000  0  4G 2G15G 6G13
  19488721.4634   -8080685.68347  -6245177.76063
  22150122.6904  -11916556.89546   -280105.91661
  18911521.2364  -15779392.96147 -12208349.65063
  19508976.4714  -26254650.39547 -17033777.97661
 91  4 30 23 20 14.9940000  0  4G 2G15G 6G13
  19485811.1354   -8095978.91547  -6257094.55863
  22147746.0724  -11929075.12646   -289860.37661
  18905317.0654  -15811995.11647 -12233753.92162
  19497390.5254  -26315536.30347 -17081221.45761
 91  4 30 23 20 29.9940000  0  4G 2G15G 6G13
  19482910.2914   -8111226.31147  -6268975.65063
  22145391.5334  -11941454.25945   -299506.44661
  18899135.9634  -15844487.24947 -12259072.44863
  19485828.1974  -26376292.62347 -17128563.97261
 91  4 30 23 20 44.9940000  0  4G 2G15G 6G13
  19480018.0494   -8126424.50048  -6280818.39963
  22143062.0724  -11953691.06445   -309041.59761
  18892972.5654  -15876865.91147 -12284302.56963
  19474293.0804  -26436916.02047 -17175802.90861
 91  4 30 23 20 59.9940000  0  4G 2G15G 6G13
  19477135.4634   -8141564.26247  -6292615.61363
  22140762.6664  -11965776.05245   -318458.47261
  18886834.5024  -15909121.53047 -12309436.80963
  19462784.1904  -26497396.84747 -17222930.75961
 91  4 30 23 21 14.9940000  0  4G 2G15G 6G13
  19474264.7364   -8156655.04847  -6304374.66763
  22138487.1824  -11977719.24945   -327764.84461
  18880719.4004  -15941263.47947 -12334482.47863
  19451299.0654  -26557744.54047 -17269954.85961
 91  4 30 23 21 29.9940000  0  4G 2G15G 6G13
  19471402.3224   -8171698.36247  -6316096.73763
  22136238.0884  -11989522.08145   -336961.83461
  18874622.4554  -15973292.94547 -12359440.49463
  19439840.5884  -26617960.39747 -17316876.22561
 91  4 30 23 21 44.9940000  0  4G 2G15G 6G13
  19468548.1744   -8186694.56148  -6327782.09163
  22134020.2604  -12001185.03645   -346049.84161
  18868549.5654  -16005210.09647 -12384311.00463
  19428407.8224  -26678044.50147 -17363694.93661
 91  4 30 23 21 59.9940000  0  4G 2G15G 6G13
  19465702.7994   -8201649.11548  -6339434.99163
  22131826.4324  -12012713.52246   -355033.07561
  18862497.2524  -16037020.09747 -12409098.00363
  19416998.1274  -26738002.08547 -17410415.06661
 91  4 30 23 22 14.9940000  0  4G 2G15G 6G13
  19462863.6824   -8216556.80547  -6351051.37663
  22129662.1664  -12024102.36946   -363907.49261
  18856464.1974  -16068717.50847 -12433797.28162
  19405612.6904  -26797827.81047 -17457032.44661
 91  4 30 23 22 29.9940000  0  4G 2G15G 6G13
  19460037.8304   -8231415.17847  -6362629.32163
  22127520.7754  -12035349.20546   -372671.23661
  18850453.7684  -16100299.56147 -12458406.66162
  19394255.0414  -26857519.03447 -17503545.01561
 91  4 30 23 22 44.9940000  0  4G 2G15G 6G13
  19457221.9714   -8246221.05547  -6374166.37263
  22125406.2134  -12046451.01845   -381321.99361
  18844467.1664  -16131763.13447 -12482923.73062
  19382921.4474  -26917072.51447 -17549950.24861
 91  4 30 23 22 59.9940000  0  4G 2G15G 6G13
  19454411.4084   -8260986.21947  -6385671.69763
  22123322.9004  -12057419.60246   -389868.92761
  18838500.5024  -16163119.75947 -12507357.44863
  19371611.5724  -26976500.03047 -17596257.33761
 91  4 30 23 23 14.9940000  0  4G 2G15G 6G13
  19451610.2834   -8275705.05347  -6397140.91763
  22121255.8224  -12068249.42346   -398307.75161
  18832554.5574  -16194363.52147 -12531703.22663
  19360328.9864  -27035795.72047 -17642461.70561
 91  4 30 23 23 29.9940000  0  4G 2G15G 6G13
  19448819.0024   -8290370.66047  -6408568.66263
  22119229.0334  -12078933.70845   -406633.15561
  18826633.9864  -16225487.26447 -12555955.49763
  19349072.4404  -27094952.21947 -17688557.59961
 91  4 30 23 23 44.9940000  0  4G 2G15G 6G13
  19446037.7524   -8304988.52147  -6419959.20663
  22117222.1274  -12089478.17245   -414849.60761
  18820731.0494  -16256496.33947 -12580118.40063
  19337840.5024  -27153974.95347 -17734549.28061
 91  4 30 23 23 59.9940000  0  4G 2G15G 6G13
  19443264.6664   -8319562.97247  -6431315.92063
  22115236.4164  -12099887.33245   -422960.63861
  18814852.4864  -16287394.80047 -12604195.11462
  19326632.4474  -27212868.31047 -17780440.14261
 91  4 30 23 24 14.9940000  0  4G 2G15G 6G13
  19440501.2834   -8334095.10448  -6442639.65863
  22113283.8304  -12110162.19445   -430967.00661
  18808993.2754  -16318183.66847 -12628186.44462
  19315450.4324  -27271633.07747 -17826230.79761
 91  4 30 23 24 29.9940000  0  4G 2G15G 6G13
  19437740.9864   -8348579.88247  -6453926.50063
  22111357.6114  -12120297.88945   -438864.93961
  18803155.6114  -16348857.53447 -12652088.15062
  19304294.3384  -27330264.06347 -17871917.21261
 91  4 30 23 24 44.9940000  0  4G 2G15G 6G13
  19434995.9474   -8363012.74647  -6465172.87663
  22109452.1664  -12130289.76845   -446650.83061
  18797341.0654  -16379411.55447 -12675896.47062
  19293162.0884  -27388756.38447 -17917495.58461
 91  4 30 23 24 59.9940000  0  4G 2G15G 6G13
  19432258.0104   -8377393.60447  -6476378.74263
  22107581.6824  -12140138.05345   -454324.81361
  18791550.7214  -16409845.73347 -12699611.40962
  19282059.1354  -27447110.06047 -17962965.91561
 91  4 30 23 25 14.9940000  0  4G 2G15G 6G13
  19429533.0184   -8391729.85448  -6487549.84463
  22105732.3304  -12149850.46445   -461892.89861
  18785780.3154  -16440167.07747 -12723238.43062
  19270979.7364  -27505332.37947 -18008333.89161
 91  4 30 23 25 29.9940000  0  4G 2G15G 6G13
  19426813.4324   -8406016.40447  -6498682.21363
  22103913.1354  -12159421.56645   -469350.88461
  18780033.7684  -16470370.24247 -12746773.36162
  19259925.6504  -27563417.78447 -18053595.17861
 91  4 30 23 25 44.9940000  0  4G 2G15G 6G13
  19424103.5334   -8420254.91647  -6509777.15963
  22102116.8304  -12168853.13845   -476700.13561
  18774307.3694  -16500456.75747 -12770217.39563
  19248897.2134  -27621368.07447 -18098751.19061
 91  4 30 23 25 59.9940000  0  4G 2G15G 6G13
  19421401.6744   -8434449.15747  -6520837.60363
  22100345.3694  -12178149.41545   -483943.97761
  18768603.5184  -16530430.25047 -12793573.36462
  19237894.7994  -27679187.03347 -18143804.86461
 91  4 30 23 26 14.9940000  0  4G 2G15G 6G13
  19418710.2444   -8448594.11647  -6531859.65163
  22098597.2834  -12187305.25545   -491078.39461
  18762920.3464  -16560285.33747 -12816837.06063
  19226916.3384  -27736869.13547 -18188751.89161
 91  4 30 23 26 29.9940000  0  4G 2G15G 6G13
  19416028.8774   -8462691.40147  -6542844.54463
  22096888.9084  -12196322.62345   -498104.90361
  18757263.8074  -16590023.58247 -12840009.72062
  19215968.1274  -27794415.77347 -18233593.36661
 91  4 30 23 26 44.9940000  0  4G 2G15G 6G13
  19413356.2444   -8476739.07147  -6553790.77963
  22095199.9004  -12205199.35145   -505021.82761
  18751626.6824  -16619642.79847 -12863089.62462
  19205043.7364  -27851825.11747 -18278327.85361
 91  4 30 23 26 59.9940000  0  4G 2G15G 6G13
  19410689.6584   -8490738.98947  -6564699.80563
  22093536.4004  -12213937.38945   -511830.69761
  18746012.7754  -16649144.62647 -12886078.06062
  19194144.0804  -27909098.75147 -18322956.60461
 91  4 30 23 27 14.9940000  0  4G 2G15G 6G13
  19408036.9404   -8504688.42748  -6575569.49963
  22091901.3934  -12222534.45945   -518529.69561
  18740422.4714  -16678526.14547 -12908972.74562
  19183272.5884  -27966233.89847 -18367477.44061
 91  4 30 23 27 29.9940000  0  4G 2G15G 6G13
  19405390.5104   -8518589.46147  -6586401.47863
  22090286.8854  -12230992.65245   -525120.48461
  18734853.0254  -16707789.11647 -12931775.05862
  19172424.8384  -28023232.46147 -18411891.84461
 91  4 30 23 27 44.9940000  0  4G 2G15G 6G13
  19402755.0334   -8532442.15447  -6597195.78863
  22088707.4164  -12239312.02045   -531603.11161
  18729306.5964  -16736933.50747 -12954484.96762
  19161605.3384  -28080094.39547 -18456199.78461
 91  4 30 23 27 59.9940000  0  4G 2G15G 6G13
  19400129.0724   -8546245.50547  -6607951.64563
  22087150.6504  -12247491.97045   -537977.08661
  18723783.0804  -16765958.15447 -12977101.57262
  19150809.6974  -28136818.33847 -18500400.19861
 91  4 30 23 28 14.9940000  0  4G 2G15G 6G13
  19397512.5184   -8560001.96348  -6618670.95863
  22085618.9244  -12255535.02745   -544244.39461
  18718281.8544  -16794865.42647 -12999626.71462
  19140043.4404  -28193407.00847 -18544495.21161
 91  4 30 23 28 29.9940000  0  4G 2G15G 6G13
  19394902.2294   -8573709.51147  -6629352.16063
  22084112.3464  -12263439.09045   -550403.40661
  18712804.1504  -16823653.07147 -13022058.64262
  19129301.0724  -28249858.05947 -18588482.98061
 91  4 30 23 28 44.9940000  0  4G 2G15G 6G13
  19392301.4864   -8587367.19847  -6639994.51063
  22082640.7444  -12271203.63445   -556453.70461
  18707349.4634  -16852319.72047 -13044396.28262
  19118584.7604  -28306170.22547 -18632362.53561
 91  4 30 23 28 59.9940000  0  4G 2G15G 6G13
  19389711.0024   -8600983.45247  -6650604.57963
  22081187.7364  -12278836.97845   -562401.74761
  18701916.9084  -16880873.65747 -13066646.10662
  19107892.2444  -28362351.81047 -18676140.33461
 91  4 30 23 29 14.9940000  0  4G 2G15G 6G13
  19387131.6114   -8614548.84548  -6661175.00963
  22079763.9634  -12286329.74045   -568240.25161
  18696504.4554  -16909305.41547 -13088800.71562
  19097229.3154  -28418393.34247 -18719809.00262
 91  4 30 23 29 29.9940000  0  4G 2G15G 6G13
  19384558.3694   -8628069.62848  -6671710.68663
  22078364.2684  -12293688.49745   -573974.37461
  18691117.3074  -16937621.10147 -13110864.88862
  19086588.5414  -28474301.25947 -18763373.55362
 91  4 30 23 29 44.9940000  0  4G 2G15G 6G13
  19381995.0184   -8641541.63947  -6682208.35063
  22076984.9084  -12300909.54545   -579601.15061
  18685751.6904  -16965816.32547 -13132835.18463
  19075977.1504  -28530071.27747 -18806830.64561
 91  4 30 23 29 59.9940000  0  4G 2G15G 6G13
  19379439.7364   -8654962.92847  -6692666.50563
  22075639.1584  -12307990.59645   -585118.83061
  18680410.4004  -16993888.87947 -13154709.90063
  19065390.8224  -28585701.12047 -18850178.51561
 91  4 30 23 30 14.9940000  0  4G 2G15G 6G13
  19376897.1904   -8668333.24548  -6703084.93763
  22074312.2914  -12314931.34945   -590527.20061
  18675090.1044  -17021838.29747 -13176488.65962
  19054831.3224  -28641190.18647 -18893416.68661
 91  4 30 23 30 29.9940000  0  4G 2G15G 6G13
  19374359.6824   -8681657.93748  -6713467.82663
  22073018.8464  -12321737.42445   -595830.63561
  18669796.0884  -17049669.52547 -13198175.32363
  19044298.2604  -28696543.79547 -18936549.31861
 91  4 30 23 30 44.9940000  0  4G 2G15G 6G13
  19371833.9164   -8694933.57448  -6723812.47463
  22071750.5184  -12328405.48745   -601026.55161
  18664522.2834  -17077379.13347 -13219767.21963
  19033790.8154  -28751758.51847 -18979573.71661
 91  4 30 23 30 59.9940000  0  4G 2G15G 6G13
  19369318.4084   -8708165.52248  -6734123.09463
  22070511.1744  -12334941.62245   -606119.64361
  18659271.0804  -17104972.59747 -13241268.60762
  19023309.6664  -28806839.72347 -19022494.07061
 91  4 30 23 31 14.9940000  0  4G 2G15G 6G13
  19366807.9474   -8721344.60347  -6744392.50863
  22069290.0104  -12341336.53445   -611102.69761
  18654046.1274  -17132440.42047 -13262672.10363
  19012853.6664  -28861778.20347 -19065303.21761
 91  4 30 23 31 29.9940000  0  4G 2G15G 6G13
  19364308.9714   -8734474.88147  -6754623.90163
  22068100.7054  -12347594.28345   -615978.84761
  18648841.3074  -17159786.32647 -13283980.60363
  19002425.2364  -28916577.73547 -19108004.10161
 91  4 30 23 31 44.9940000  0  4G 2G15G 6G13
  19361820.6584   -8747561.85948  -6764821.54663
  22066933.2214  -12353720.49145   -620752.52861
  18643658.5574  -17187015.65147 -13305198.25162
  18992022.3384  -28971243.73247 -19150600.92761
 91  4 30 23 31 59.9940000  0  4G 2G15G 6G13
  19359338.5184   -8760600.45148  -6774981.49663
  22065797.6504  -12359710.21245   -625419.83761
  18638500.0254  -17214123.15747 -13326320.97263
  18981648.2444  -29025770.86047 -19193089.54162
 91  4 30 23 32 14.9940000  0  4G 2G15G 6G13
  19356865.5574   -8773591.92548  -6785104.71463
  22064685.4244  -12365565.06045   -629982.04661
  18633365.5654  -17241109.96647 -13347349.65462
  18971297.0184  -29080160.27447 -19235470.84362
 91  4 30 23 32 29.9940000  0  4G 2G15G 6G13
  19354402.1274   -8786536.95548  -6795191.75163
  22063590.5184  -12371285.58245   -634439.58761
  18628252.2214  -17267976.44247 -13368284.56262
  18960973.8854  -29134412.47047 -19277745.22261
 91  4 30 23 32 44.9940000  0  4G 2G15G 6G13
  19351948.4714   -8799436.17748  -6805243.09563
  22062529.9004  -12376872.79945   -638793.29561
  18623162.6904  -17294723.33447 -13389126.29562
  18950677.8694  -29188528.33747 -19319913.38561
 91  4 30 23 32 59.9940000  0  4G 2G15G 6G13
  19349504.1974   -8812285.33948  -6815255.42163
  22061491.3384  -12382322.53245   -643039.82161
  18618097.1744  -17321346.07547 -13409871.28062
  18940403.8774  -29242503.43447 -19361971.84361
 91  4 30 23 33 14.9940000  0  4G 2G15G 6G13
  19347068.0334   -8825083.29848  -6825227.85863
  22060481.4864  -12387633.79645   -647178.46361
  18613054.2914  -17347843.29547 -13430518.45762
  18930162.3934  -29296336.22847 -19403919.42961
 91  4 30 23 33 29.9940000  0  4G 2G15G 6G13
  19344641.5334   -8837835.30548  -6835164.49363
  22059498.4864  -12392812.25245   -651213.61461
  18608035.9324  -17374220.16247 -13451071.86063
  18919942.7364  -29350032.19147 -19445760.38261
 91  4 30 23 33 44.9940000  0  4G 2G15G 6G13
  19342223.5574   -8850538.36748  -6845062.98763
  22058538.3854  -12397854.64845   -655142.76761
  18603040.8854  -17400473.37647 -13471528.90162
  18909750.5884  -29403588.21347 -19487492.28761
 91  4 30 23 33 59.9930000  0  4G 2G15G 6G13
  19339816.6144   -8863194.41648  -6854924.85163
  22057601.1694  -12402763.93545   -658968.19761
  18598066.8494  -17426603.99747 -13491890.41962
  18899585.8964  -29457003.46647 -19529114.51961
 91  4 30 23 34 14.9930000  0  4G 2G15G 6G13
  19337414.0214   -8875802.28347  -6864749.17763
  22056697.0834  -12407538.10945   -662688.33661
  18593117.7864  -17452612.47847 -13512156.75462
  18889446.2944  -29510281.98947 -19570630.19161
 91  4 30 23 34 29.9930000  0  4G 2G15G 6G13
  19335025.2324   -8888360.83148  -6874535.06263
  22055814.8804  -12412176.66345   -666302.79761
  18588191.5604  -17478496.52947 -13532326.14862
  18879336.9584  -29563419.90347 -19612036.30561
 91  4 30 23 34 44.9930000  0  4G 2G15G 6G13
  19332647.0134   -8900870.22148  -6884282.64463
  22054954.1774  -12416679.89045   -669811.80061
  18583290.7474  -17504256.13847 -13552398.56062
  18869251.4824  -29616417.24747 -19653332.88761
 91  4 30 23 34 59.9930000  0  4G 2G15G 6G13
  19330274.3574   -8913331.50948  -6893992.73263
  22054120.9034  -12421049.12745   -673216.42161
  18578410.7554  -17529892.32847 -13572374.80662
  18859193.3104  -29669275.15347 -19694520.81061
 91  4 30 23 35 14.9930000  0  4G 2G15G 6G13
  19327910.0134   -8925746.59047  -6903666.82463
  22053322.0284  -12425286.10045   -676517.97661
  18573555.2714  -17555406.73247 -13592256.16462
  18849159.6924  -29721995.14047 -19735601.27261
 91  4 30 23 35 29.9930000  0  4G 2G15G 6G13
  19325558.9664   -8938114.99548  -6913304.53163
  22052536.4974  -12429390.78045   -679716.41461
  18568724.2004  -17580798.66447 -13612042.07462
  18839154.6144  -29774576.72747 -19776573.88061
 91  4 30 23 35 44.9930000  0  4G 2G15G 6G13
  19323214.1694   -8950435.90848  -6922905.25063
  22051780.0054  -12433362.42845   -682811.21861
  18563915.4194  -17606067.17647 -13631731.82362
  18829175.1694  -29827018.77947 -19817437.76761
 91  4 30 23 35 59.9930000  0  4G 2G15G 6G13
  19320876.8884   -8962705.89448  -6932466.27963
  22051050.9744  -12437197.54845   -685799.61161
  18559130.6224  -17631208.63847 -13651322.57162
  18819221.2324  -29879317.77947 -19858190.18561
 91  4 30 23 36 14.9930000  0  4G 2G15G 6G13
  19318552.5994   -8974926.62847  -6941988.92163
  22050342.9504  -12440898.12445   -688683.18261
  18554372.4114  -17656224.53647 -13670815.47362
  18809297.5674  -29931475.59447 -19898832.58461
 91  4 30 23 36 29.9930000  0  4G 2G15G 6G13
  19316238.2164   -8987096.53648  -6951471.96563
  22049666.9664  -12444463.00445   -691461.00861
  18549634.6924  -17681113.28747 -13690209.29162
  18799396.8644  -29983490.61747 -19939363.72261
 91  4 30 23 36 44.9930000  0  4G 2G15G 6G13
  19313932.2474   -8999212.53048  -6960913.00563
  22049015.7634  -12447889.43845   -694130.97261
  18544923.9584  -17705871.54947 -13709501.44562
  18789529.3254  -30035359.65047 -19979781.10561
 91  4 30 23 36 59.9930000  0  4G 2G15G 6G13
  19311636.2864   -9011283.74148  -6970319.14763
  22048388.5284  -12451186.52745   -696700.12161
  18540235.4194  -17730508.40047 -13728698.99262
  18779685.7634  -30087091.73847 -20020091.76761
 91  4 30 23 37 14.9930000  0  4G 2G15G 6G13
  19309348.1614   -9023304.52747  -6979685.99863
  22047784.6614  -12454348.55745   -699164.03361
  18535572.8884  -17755017.85247 -13747797.25862
  18769867.5364  -30138681.26147 -20060291.34361
 91  4 30 23 37 29.9930000  0  4G 2G15G 6G13
  19307067.4034   -9035279.45047  -6989017.11063
  22047210.5444  -12457380.30145   -701526.44061
  18530930.5834  -17779404.47947 -13766799.82262
  18760076.0214  -30190132.69547 -20100383.32161
 91  4 30 23 37 44.9930000  0  4G 2G15G 6G13
  19304798.0364   -9047203.74448  -6998308.78063
  22046662.0054  -12460277.52045   -703784.03961
  18526316.1924  -17803663.33247 -13785702.82262
  18750312.9664  -30241441.02947 -20140363.78061
 91  4 30 23 37 59.9930000  0  4G 2G15G 6G13
  19302540.2714   -9059080.51148  -7007563.41263
  22046135.4664  -12463043.39145   -705939.25361
  18521722.4664  -17827797.39247 -13804508.58362
  18740575.8724  -30292609.45447 -20180235.22561
 91  4 30 23 38 14.9930000  0  4G 2G15G 6G13
  19300289.6534   -9070906.52648  -7016778.49063
  22045632.0914  -12465674.68845   -707989.62961
  18517154.1074  -17851803.23447 -13823214.43162
  18730866.0994  -30343634.71647 -20219995.12661
 91  4 30 23 38 29.9930000  0  4G 2G15G 6G13
  19298048.1694   -9082680.27348  -7025952.83463
  22045160.7084  -12468170.16645   -709934.14561
  18512610.0134  -17875679.29347 -13841819.15462
  18721183.2004  -30394515.31447 -20259642.29461
 91  4 30 23 38 44.9930000  0  4G 2G15G 6G13
  19295818.4974   -9094403.23648  -7035087.60163
  22044707.1534  -12470531.47345   -711774.14561
  18508092.3644  -17899426.80147 -13860323.70162
  18711526.5444  -30445252.44447 -20299177.66761
 91  4 30 23 38 59.9930000  0  4G 2G15G 6G13
  19293596.5284   -9106073.83647  -7044181.58263
  22044284.6144  -12472757.23045   -713508.49461
  18503597.0364  -17923044.08447 -13878726.77762
  18701900.8804  -30495844.46847 -20338599.97561
 91  4 30 23 39 14.9930000  0  4G 2G15G 6G13
  19291385.9354   -9117692.02047  -7053234.72663
  22043886.4274  -12474847.92845   -715137.62261
  18499128.3334  -17946530.97347 -13897028.25162
  18692300.2944  -30546291.42247 -20377909.23161
 91  4 30 23 39 29.9930000  0  4G 2G15G 6G13
  19289185.2944   -9129256.37947  -7062245.91863
  22043513.9034  -12476802.22245   -716660.44861
  18494683.8174  -17969885.73147 -13915226.76162
  18682730.6074  -30596591.60547 -20417104.13461
 91  4 30 23 39 44.9930000  0  4G 2G15G 6G13
  19286992.6074   -9140772.69347  -7071219.66863
  22043166.6464  -12478626.00945   -718081.60261
  18490263.4504  -17993114.18447 -13933326.85162
  18673183.8414  -30646750.89647 -20456189.23461
 91  4 30 23 39 59.9930000  0  4G 2G15G 6G13
  19284813.5604   -9152234.22847  -7080150.74663
  22042846.7474  -12480312.64646   -719395.87261
  18485867.5604  -18016209.31547 -13951323.05562
  18663666.6614  -30696762.33247 -20495159.13961
 91  4 30 23 40 14.9930000  0  4G 2G15G 6G13
  19282641.7164   -9163642.54547  -7089040.34563
  22042551.4354  -12481863.87046   -720604.61961
  18481499.5284  -18039172.72847 -13969216.61862
  18654179.4584  -30746627.58447 -20534015.12761
 91  4 30 23 40 29.9930000  0  4G 2G15G 6G13
  19280481.0754   -9174999.77247  -7097890.14263
  22042282.0134  -12483282.10245   -721709.74761
  18477152.3644  -18062006.28747 -13987009.00162
  18644718.0674  -30796348.66547 -20572758.78261
 91  4 30 23 40 44.9930000  0  4G 2G15G 6G13
  19278329.4194   -9186305.35648  -7106699.69263
  22042033.1384  -12484566.91745   -722710.92261
  18472834.3414  -18084709.22047 -14004699.60062
  18635280.8494  -30845925.01647 -20611389.65661
 91  4 30 23 40 59.9930000  0  4G 2G15G 6G13
  19276187.7394   -9197561.13048  -7115470.42163
  22041818.6614  -12485720.66146   -723609.95661
  18468537.9744  -18107283.45547 -14022289.90762
  18625877.3574  -30895358.61447 -20649909.29961
 91  4 30 23 41 14.9930000  0  4G 2G15G 6G13
  19274055.8644   -9208760.87947  -7124197.49863
  22041622.6854  -12486737.10446   -724402.00061
  18464266.4894  -18129722.52147 -14039774.88362
  18616497.0444  -30944643.15847 -20688312.79261
 91  4 30 23 41 29.9930000  0  4G 2G15G 6G13
  19271935.2944   -9219907.73847  -7132883.36463
  22041455.5444  -12487619.58345   -725089.65061
  18460021.8574  -18152029.40047 -14057156.85962
  18607145.3174  -30993781.57547 -20726602.42661
 91  4 30 23 41 44.9930000  0  4G 2G15G 6G13
  19269822.3884   -9231003.37147  -7141529.32063
  22041312.5444  -12488369.88645   -725674.32361
  18455803.1464  -18174205.71047 -14074437.09462
  18597822.4974  -31042775.60747 -20764779.54561
 91  4 30 23 41 59.9930000  0  4G 2G15G 6G13
  19267722.7244   -9242042.78347  -7150131.46263
  22041195.9504  -12488983.47445   -726152.46261
  18451609.1854  -18196246.34147 -14091611.60162
  18588527.9504  -31091620.22747 -20802840.24261
 91  4 30 23 42 14.9930000  0  4G 2G15G 6G13
  19265631.5754   -9253030.60547  -7158693.39863
  22041104.1924  -12489465.07945   -726527.73261
  18447438.6384  -18218155.75047 -14108683.87162
  18579261.5284  -31140319.88647 -20840787.98761
 91  4 30 23 42 29.9930000  0  4G 2G15G 6G13
  19263551.2634   -9263966.21147  -7167214.65163
  22041036.8644  -12489814.35645   -726799.90761
  18443295.1614  -18239933.32047 -14125653.40862
  18570020.5364  -31188874.08947 -20878622.39362
 91  4 30 23 42 44.9930000  0  4G 2G15G 6G13
  19261480.1304   -9274846.56747  -7175692.85563
  22040997.9424  -12490028.53045
  18439176.9504  -18261575.81747 -14142517.68563
  18560810.7474  -31237279.74647 -20916341.03362
 91  4 30 23 42 59.9930000  0  4G 2G15G 6G13
  19259421.0914   -9285670.50547  -7184127.09363
  22040981.7004  -12490106.28945
  18435084.3024  -18283081.82947 -14159275.60962
  18551626.1534  -31285535.42647 -20953942.81361
 91  4 30 23 43 14.9930000  0  4G 2G15G 6G13
  19257370.7084   -9296439.23247  -7192518.32163
  22040990.0054  -12490049.19245
  18431017.9894  -18304452.42247 -14175928.03062
  18542473.5994  -31333642.56947 -20991428.86261
 91  4 30 23 43 29.9930000  0  4G 2G15G 6G13
  19255333.4744   -9307150.58348  -7200864.82763
  22041028.7634  -12489855.60445
  18426977.5604  -18325685.52147 -14192473.27862
  18533345.3174  -31381599.15647 -21028797.58662
 91  4 30 23 43 44.9930000  0  4G 2G15G 6G13
  19253307.0134   -9317802.14748  -7209164.74863
  22041095.0054  -12489523.15345
  18422963.8334  -18346778.43447 -14208909.32663
  18524249.3724  -31429402.55547 -21066046.94562
 91  4 30 23 43 59.9930000  0  4G 2G15G 6G13
  19251291.0444   -9328393.98848  -7217418.13163
  22041182.1304  -12489052.20145
  18418975.3724  -18367731.19647 -14225236.15262
  18515182.0214  -31477052.80147 -21103176.96362
 91  4 30 23 44 14.9930000  0  4G 2G15G 6G13
  19249284.6614   -9338933.63348  -7225630.85163
  22041297.9424  -12488450.40245
  18415016.0994  -18388551.12447 -14241459.46563
  18506142.7944  -31524557.05947 -21140193.23262
 91  4 30 23 44 29.9930000  0  4G 2G15G 6G13
  19247291.0994   -9349419.05048  -7233801.30463
  22041438.8174  -12487715.91845        -0.36571
  18411076.8884  -18409236.03147 -14257577.57962
  18497129.9974  -31571913.50347 -21177094.30162
 91  4 30 23 44 44.9930000  0  4G 2G15G 6G13
  19245304.8254   -9359847.91647  -7241927.70163
  22041599.6694  -12486846.89145       676.77661
  18407168.6304  -18429783.51447 -14273588.59562
  18488148.8644  -31619119.82847 -21213878.41462
 91  4 30 23 44 59.9930000  0  4G 2G15G 6G13
  19243330.7164   -9370224.30647  -7250013.21163
  22041791.2784  -12485847.35045      1455.63561
  18403283.3804  -18450197.50647 -14289495.60563
  18479192.4664  -31666180.20547 -21250548.80462
 91  4 30 23 45 14.9930000  0  4G 2G15G 6G13
  19241366.6384   -9380545.18347  -7258055.46163
  22042010.2394  -12484714.43045      2338.42561
  18399423.7554  -18470475.00447 -14305296.24962
  18470264.7784  -31713091.38147 -21287102.91662
 91  4 30 23 45 29.9930000  0  4G 2G15G 6G13
  19239414.2864   -9390814.72147  -7266057.69863
  22042250.2784  -12483452.84945      3321.46061
  18395591.2004  -18490619.91847 -14320993.57962
  18461366.9354  -31759857.54947 -21323544.04462
 91  4 30 23 45 44.9930000  0  4G 2G15G 6G13
  19237467.8884   -9401031.64047  -7274018.93863
  22042510.6774  -12482061.54745      4405.59361
  18391782.9424  -18510630.96747 -14336586.60662
  18452494.4424  -31806477.62047 -21359871.33462
 91  4 30 23 45 59.9930000  0  4G 2G15G 6G13
  19235535.4824   -9411188.36847  -7281933.27863
  22042807.2944  -12480532.82345      5596.78461
  18388000.6074  -18530500.32247 -14352069.21962
  18443650.8964  -31852943.91047 -21396078.79562
 91  4 30 23 46 14.9930000  0  4G 2G15G 6G13
  19233612.6384   -9421291.33547  -7289805.72663
  22043121.4274  -12478873.55045      6889.71661
  18384247.3104  -18550234.59147 -14367446.57262
  18434838.6534  -31899262.77047 -21432171.36962
 91  4 30 23 46 29.9930000  0  4G 2G15G 6G13
  19231701.9194   -9431337.41747  -7297633.83263
  22043458.2944  -12477080.89645      8286.58661
  18380517.5834  -18569830.47647 -14382716.09262
  18426053.5834  -31945431.26647 -21468146.78162
 91  4 30 23 46 44.9930000  0  4G 2G15G 6G13
  19229800.0054   -9441324.95947  -7305416.33563
  22043824.8024  -12475153.65445      9788.30761
  18376815.7244  -18589286.11647 -14397876.33262
  18417296.5914  -31991447.49547 -21504003.54962
 91  4 30 23 46 59.9930000  0  4G 2G15G 6G13
  19227910.2784   -9451255.43748  -7313154.38362
  22044217.8574  -12473093.54545     11393.59361
  18373142.2324  -18608602.99747 -14412928.44862
  18408567.6924  -32037312.89447 -21539742.77562
 91  4 30 23 47 14.9930000  0  4G 2G15G 6G13
  19226030.9274   -9461128.33648  -7320847.54363
  22044637.7244  -12470900.05645     13102.79861
  18369490.3644  -18627780.40047 -14427871.88762
  18399868.4194  -32083027.16547 -21575364.24962
 91  4 30 23 47 29.9930000  0  4G 2G15G 6G13
  19224165.4504   -9470941.20147  -7328493.92862
  22045080.7634  -12468570.99445     14917.63361
  18365868.8724  -18646815.74447 -14442704.61162
  18391198.1614  -32128587.79147 -21610865.99062
 91  4 30 23 47 44.9930000  0  4G 2G15G 6G13
  19222306.1224   -9480699.56747  -7336097.86263
  22045551.6614  -12466112.18845     16833.57461
  18362272.3574  -18665714.51047 -14457430.92362
  18382558.0444  -32174000.06647 -21646252.15262
 91  4 30 23 47 59.9930000  0  5G 2G15G 6G12G13
  19220461.1384   -9490406.28747  -7343661.54563
  22046039.0284  -12463526.53245     18848.34561
  18358701.3334  -18684479.34747 -14472052.87362
  23083819.9354         -0.69852
  18373941.5524  -32219266.97147 -21681525.01762
 91  4 30 23 48 14.9930000  0  5G 2G15G 6G12G13
  19218623.7244   -9500066.30547  -7351188.83663
  22046558.7164  -12460819.24045     20957.94161
  18355154.0674  -18703115.10447 -14486574.24762
  23069649.9584     -74469.20742
  18365355.0994  -32264393.45947 -21716688.47562
 91  4 30 23 48 29.9930000  0  5G 2G15G 6G12G13
  19216794.9114   -9509671.58447  -7358673.47763
  22047096.3414  -12457982.67545     23168.22761
  18351634.9824  -18721613.93047 -14500988.91262
  23055470.8884    -148945.92642
  18356796.5364  -32309371.68247 -21751736.40462
 91  4 30 23 48 44.9930000  0  5G 2G15G 6G12G13
  19214975.7474   -9519226.90247  -7366119.19563
  22047662.8574  -12455021.87145     25475.35961
  18348139.8574  -18739980.28247 -14515300.35462
  23041307.2084    -223435.43442
  18348263.4034  -32354206.54047 -21786672.61861
 91  4 30 23 48 59.9930000  0  5G 2G15G 6G12G13
  19213168.7474   -9528728.42247  -7373522.98363
  22048244.6074  -12451932.90445     27882.31161
  18344670.7084  -18758210.09647 -14529505.40962
  23027124.3574    -297933.38042
  18339761.8334  -32398893.69447 -21821493.74162
 91  4 30 23 49 14.9920000  0  5G 2G15G 6G12G13
  19211371.9384   -9538173.28147  -7380882.62263
  22048861.6334  -12448714.47645     30390.14661
  18341226.0004  -18776300.12847 -14543601.53862
  23012944.9304    -372432.79642
  18331284.6724  -32443428.43647 -21856196.10162
 91  4 30 23 49 29.9920000  0  5G 2G15G 6G12G13
  19209583.8204   -9547564.16147  -7388200.19763
  22049491.2584  -12445367.74145     32997.99961
  18337811.3204  -18794254.03447 -14557591.60062
  22998767.0394    -446944.77142
  18322840.0164  -32487818.03747 -21890785.36562
 91  4 30 23 49 44.9920000  0  4G 2G15G 6G13
  19207807.8914   -9556899.99047  -7395474.87263
  22050153.9384  -12441892.57445     35705.91561
  18334420.5864  -18812069.92747 -14571474.11462
  18314421.1174  -32532058.95947 -21925258.77262
 91  4 30 23 49 59.9920000  0  4G 2G15G 6G13
  19206040.4774   -9566184.55547  -7402709.60063
  22050839.0004  -12438292.97345     38510.78661
  18331057.2504  -18829751.67347 -14585252.10562
  18306028.6254  -32576154.94347 -21959619.24362
 91  4 30 23 50 14.9920000  0  4G 2G15G 6G13
  19204283.8754   -9575412.09647  -7409899.89963
  22051555.3364  -12434563.61245     41416.78261
  18327717.5474  -18847293.48447 -14598921.04962
  18297666.9614  -32620100.41247 -21993862.43462
 91  4 30 23 50 29.9920000  0  4G 2G15G 6G13
  19202539.2194   -9584585.05347  -7417047.65363
  22052284.5864  -12430707.29545     44421.68861
  18324407.1024  -18864697.80247 -14612482.85962
  18289332.0864  -32663897.69347 -22027990.15162
 91  4 30 23 50 44.9920000  0  4G 2G15G 6G13
  19200801.2504   -9593704.56847  -7424153.78162
  22053044.9064  -12426725.43645     47524.41861
  18321122.2894  -18881965.47447 -14625938.19262
  18281025.5474  -32707548.02047 -22062003.35462
 91  4 30 23 50 59.9920000  0  4G 2G15G 6G13
  19199077.7114   -9602774.73447  -7431221.44262
  22053820.3674  -12422622.36345     50721.62061
  18317860.0554  -18899100.51047 -14639290.16962
  18272747.3054  -32751055.50447 -22095905.25362
 91  4 30 23 51 14.9920000  0  5G 2G15G 6G12G13
  19197363.2194   -9611785.39647  -7438242.75362
  22054629.4144  -12418388.06945     54021.04561
  18314626.1254  -18916092.70747 -14652530.84762
  22899473.8594         -0.22152
  18264496.2894  -32794410.12147 -22129688.03262
 91  4 30 23 51 29.9920000  0  5G 2G15G 6G12G13
  19195660.2744   -9620742.01647  -7445221.94362
  22055457.0244  -12414027.98645     57418.50461
  18311417.5314  -18932947.30247 -14665664.30362
  22885284.9924     -74569.45243
  18256275.2664  -32837617.11047 -22163355.78862
 91  4 30 23 51 44.9920000  0  5G 2G15G 6G12G13
  19193965.1804   -9629645.44647  -7452159.68463
  22056313.1024  -12409543.58045     60912.85161
  18308236.0474  -18949665.45947 -14678691.44862
  22871090.5634    -149146.30943
  18248079.5784  -32880677.61947 -22196909.39562
 91  4 30 23 51 59.9920000  0  5G 2G15G 6G12G13
  19192281.3914   -9638493.97647  -7459054.65463
  22057192.2744  -12404933.50345     64505.08861
  18305082.4384  -18966245.26447 -14691610.77362
  22856905.9694    -223728.87343        -0.08471
  18239914.1724  -32923590.19347 -22230347.72562
 91  4 30 23 52 14.9920000  0  5G 2G15G 6G12G13
  19190607.1804   -9647291.57847  -7465909.94263
  22058090.4534  -12400201.92345     68192.02161
  18301951.5164  -18982690.37447 -14704425.15262
  22842706.9384    -298320.70643    -58123.48661
  18231775.8444  -32966358.45647 -22263673.62062
 91  4 30 23 52 29.9920000  0  5G 2G15G 6G12G13
  19188941.6644   -9656038.13447  -7472725.45163
  22059015.0944  -12395348.89445     71973.60861
  18298848.0004  -18999000.79847 -14717134.57862
  22828507.5944    -372921.63343   -116253.99261
  18223664.7274  -33008982.27347 -22296886.94362
 91  4 30 23 52 44.9920000  0  5G 2G15G 6G12G13
  19187290.6094   -9664727.88247  -7479496.69763
  22059962.0314  -12390368.91645     75854.10261
  18295770.6644  -19015170.70547 -14729734.51362
  22814311.8054    -447525.93143   -174387.22661
  18215582.5554  -33051456.00247 -22329983.32262
 91  4 30 23 52 59.9920000  0  5G 2G15G 6G12G13
  19185645.8834   -9673363.92347  -7486226.08963
  22060933.0244  -12385265.27445     79830.93661
  18292721.1884  -19031203.10047 -14742227.29762
  22800110.0944    -522136.43942   -232525.16261
  18207527.5314  -33093782.78447 -22362965.20061
 91  4 30 23 53 14.9920000  0  5G 2G15G 6G12G13
  19184011.0164   -9681945.61947  -7492913.13563
  22061925.2424  -12380037.86745     83904.22761
  18289698.4224  -19047097.36647 -14754612.44062
  22785914.7504    -596752.35543   -290667.37661
  18199501.0634  -33135962.22947 -22395832.27162
 91  4 30 23 53 29.9920000  0  5G 2G15G 6G12G13
  19182389.7034   -9690475.20747  -7499559.57263
  22062946.7194  -12374688.92345     88072.21861
  18286697.9774  -19062855.53447 -14766891.54162
  22771717.3444    -671375.70843   -348815.43061
  18191500.7424  -33177996.53847 -22428586.24062
 91  4 30 23 53 44.9920000  0  5G 2G15G 6G12G13
  19180775.7974   -9698952.15847  -7506164.99863
  22063986.4534  -12369218.26745     92335.09561
  18283723.9844  -19078477.07147 -14779064.17062
  22757512.2894    -746005.74543   -406968.62461
  18183531.1414  -33219885.21147 -22461226.72362
 91  4 30 23 53 59.9920000  0  5G 2G15G 6G12G13
  19179171.4534   -9707375.63747  -7512728.75962
  22065051.6804  -12363625.29045     96693.25261
  18280780.8914  -19093960.88247 -14791129.47762
  22743311.9144    -820641.22143   -465126.08661
  18175587.5944  -33261627.16747 -22493752.89262
 91  4 30 23 54 14.9920000  0  5G 2G15G 6G12G13
  19177579.7194   -9715749.82847  -7519254.11262
  22066137.8994  -12357914.50245    101143.18661
  18277856.8674  -19109311.19247 -14803090.76662
  22729102.4384    -895286.29543   -523290.98961
  18167672.0164  -33303226.76847 -22526168.14362
 91  4 30 23 54 29.9920000  0  5G 2G15G 6G12G13
  19175994.5314   -9724071.58347  -7525738.60262
  22067245.5244  -12352083.24145    105687.00961
  18274963.7894  -19124525.07547 -14814945.74862
  22714897.2274    -969937.93544   -581461.05261
  18159782.7194  -33344681.06347 -22558470.15162
 91  4 30 23 54 44.9920000  0  5G 2G15G 6G12G13
  19174423.8444   -9732338.30747  -7532180.21762
  22068381.2424  -12346129.03245    110326.63061
  18272094.2424  -19139599.60147 -14826692.13162
  22700695.6804   -1044593.17844   -639633.91261
  18151923.1414  -33385987.27547 -22590656.77861
 91  4 30 23 54 59.9920000  0  5G 2G15G 6G12G13
  19172860.3284   -9740554.21547  -7538582.23362
  22069538.3834  -12340056.36545    115058.55661
  18269251.7274  -19154538.84447 -14838333.10062
  22686490.1254   -1119256.01344
  18144089.5704  -33427149.83747 -22622731.46862
 91  4 30 23 55 14.9920000  0  5G 2G15G 6G12G13
  19171305.6564   -9748713.69247  -7544940.27563
  22070715.7034  -12333859.86845    119886.98561
  18266438.3054  -19169337.30347 -14849864.36962
  22672281.7584   -1193920.72745
  18136285.2194  -33468163.18547 -22654689.89262
 91  4 30 23 55 29.9920000  0  5G 2G15G 6G12G13
  19169764.7274   -9756820.34647  -7551257.16162
  22071918.3914  -12327543.52145    124808.79761
  18263645.4064  -19183998.58947 -14861288.75962
  22658071.4224   -1268590.89144
  18128507.6494  -33509031.09947 -22686534.98162
 91  4 30 23 55 44.9920000  0  5G 2G15G 6G12G13
  19168233.7894   -9764875.82747  -7557534.17062
  22073140.3834  -12321109.19445    129822.52561
  18260879.7504  -19198524.24847 -14872607.45362
  22643857.4304   -1343267.78044
  18120756.5704  -33549755.10147 -22718267.94362
 91  4 30 23 55 59.9920000  0  5G 2G15G 6G12G13
  19166709.7664   -9772877.94847  -7563769.59863
  22074386.2744  -12314555.00545    134929.66861
  18258142.0634  -19212911.91647 -14883818.62162
  22629650.2424   -1417949.03644        -0.21471
  18113037.2974  -33590332.85847 -22749886.94362
 91  4 30 23 56 14.9920000  0  5G 2G15G 6G12G13
  19165196.0944   -9780829.15947  -7569965.35862
  22075659.1254  -12307883.66145    140128.13561
  18255430.4844  -19227164.11647 -14894924.23662
  22615433.9144   -1492637.05344    -58198.56961
  18105343.2194  -33630767.17347 -22781394.18262
 91  4 30 23 56 29.9920000  0  5G 2G15G 6G12G13
  19163690.8284   -9788731.28947  -7576122.86862
  22076948.5474  -12301097.46445    145416.08061
  18252745.3994  -19241282.58247 -14905925.63862
  22601214.1724   -1567333.40344   -116403.45361
  18097675.1724  -33671059.98747 -22812791.14262
 91  4 30 23 56 44.9920000  0  5G 2G15G 6G12G13
  19162199.5784   -9796579.41947  -7582238.30863
  22078264.0004  -12294191.85145    150797.04561
  18250083.8754  -19255262.47247 -14916819.06662
  22587002.1724   -1642033.21044   -174611.05761
  18090035.3994  -33711206.48447 -22844074.09961
 91  4 30 23 56 59.9920000  0  5G 2G15G 6G12G13
  19160716.4614   -9804374.13547  -7588312.13463
  22079604.4064  -12287167.53845    156270.51761
  18247450.1334  -19269104.30047 -14927604.91862
  22572790.7194   -1716736.66744   -232821.47161
  18082424.7424  -33751207.16347 -22875243.43161
 91  4 30 23 57 14.9920000  0  5G 2G15G 6G12G13
  19159243.1094   -9812114.86947  -7594343.88063
  22080960.2814  -12280024.01245    161836.86461
  18244839.4924  -19282807.22047 -14938282.53162
  22558573.9694   -1791442.88845   -291034.05861
  18074838.7194  -33791061.44847 -22906298.69062
 91  4 30 23 57 29.9920000  0  5G 2G15G 6G12G13
  19157780.3994   -9819799.99647  -7600332.30463
  22082344.5634  -12272759.96145    167497.15861
  18242261.2814  -19296369.71847 -14948850.72062
  22544358.0244   -1866150.14545   -349247.43061
  18067283.4924  -33830767.82047 -22937238.69562
 91  4 30 23 57 44.9920000  0  5G 2G15G 6G12G13
  19156325.7424   -9827428.45447  -7606276.56863
  22083745.7274  -12265374.89945    173251.73861
  18239710.4614  -19309790.76147 -14959308.68862
  22530139.9694   -1940857.31945   -407460.77861
  18059756.2344  -33870325.28047 -22968062.65662
 91  4 30 23 57 59.9920000  0  5G 2G15G 6G12G13
  19154888.5554   -9834998.99947  -7612175.71362
  22085174.9454  -12257867.84145    179101.37361
  18237182.9454  -19323068.90647 -14969655.30362
  22515922.6884   -2015562.94144   -465672.85961
  18052259.0004  -33909732.68847 -22998769.70062
 91  4 30 23 58 14.9920000  0  5G 2G15G 6G12G13
  19153456.7114   -9842522.26347  -7618038.00562
  22086625.1254  -12250249.77945    185037.52661
  18234677.1414  -19336214.91347 -14979898.94762
  22501709.9144   -2090277.47545   -523891.90461
  18044785.3524  -33949000.93947 -23029368.31461
 91  4 30 23 58 29.9920000  0  5G 2G15G 6G12G13
  19152033.2974   -9849986.92147  -7623854.63562
  22088101.8444  -12242509.38745    191068.98861
  18232207.2504  -19349217.18247 -14990030.59462
  22487489.4614   -2164989.39244   -582108.87861
  18037341.7114  -33988118.79247 -23059849.72861
 91  4 30 23 58 44.9920000  0  5G 2G15G 6G12G13
  19150628.0864   -9857394.47147  -7629626.76262
  22089596.1804  -12234648.75345    197194.14361
  18229756.4534  -19362077.44847 -15000051.59262
  22473273.8134   -2239700.06345   -640324.92261
  18029923.9454  -34027087.76447 -23090215.14261
 91  4 30 23 58 59.9920000  0  5G 2G15G 6G12G13
  19149224.8914   -9864753.06447  -7635360.72662
  22091109.4614  -12226676.08445    203406.59861
  18227337.5784  -19374803.75747 -15009968.19362
  22459054.9144   -2314417.40944   -698546.13561
  18022537.6954  -34065915.85847 -23120470.76661
 91  4 30 23 59 14.9920000  0  5G 2G15G 6G12G13
  19147837.9144   -9872054.64947  -7641050.27462
  22092652.0314  -12218583.63645    209712.36061
  18224939.9144  -19387388.06347 -15019774.14962
  22444834.9844   -2389133.30145   -756766.20961
  18015175.6724  -34104595.05747 -23150610.37961
 91  4 30 23 59 29.9920000  0  5G 2G15G 6G12G13
  19146456.8364   -9879300.52447  -7646696.41862
  22094214.1564  -12210372.87345    216110.32961
  18222576.2274  -19399831.49147 -15029470.34262
  22430615.3524   -2463848.66844   -814985.92461
  18007842.8994  -34143126.70447 -23180635.01462
 91  4 30 23 59 44.9920000  0  5G 2G15G 6G12G13
  19145087.5944   -9886495.80447  -7652303.14062
  22095801.2584  -12202049.51145    222596.03261
  18220232.9144  -19412139.16947 -15039060.76062
  22416400.0394   -2538568.56345   -873209.13161
  18000539.8054  -34181516.11547 -23210548.80961
 91  4 30 23 59 59.9920000  0  5G 2G15G 6G12G13
  19143730.6414   -9893630.16547  -7657862.38962
  22097404.1564  -12193603.48845    229177.31861
  18217915.3914  -19424300.79647 -15048537.36762
  22402179.6884   -2613282.50744   -931427.74261
  17993262.4694  -34219753.04747 -23240343.79461
 91  5  1  0  0 14.9920000  0  5G 2G15G 6G12G13
  19142381.7344   -9900712.07747  -7663380.76663
  22099035.5314  -12185043.61245    235847.34561
  18215628.8674  -19436324.79547 -15057906.72662
  22387965.0084   -2687998.67144   -989648.05561
  17986012.9064  -34257846.15947 -23270026.71861
 91  5  1  0  0 29.9920000  0  5G 2G15G 6G12G13
  19141045.5164   -9907738.11847  -7668855.60663
  22100684.5704  -12176366.69845    242608.52561
  18213370.3594  -19448207.66447 -15067166.11662
  22373741.8444   -2762713.51844  -1047867.34461
  17978792.5944  -34295792.21447 -23299595.04262
 91  5  1  0  0 44.9920000  0  5G 2G15G 6G12G13
  19139719.3834   -9914703.42447  -7674283.13363
  22102362.2744  -12167568.17145    249464.51061
  18211137.1174  -19459944.55847 -15076311.75462
  22359521.4534   -2837421.91143  -1106081.60561
  17971600.2424  -34333586.24447 -23329044.91562
 91  5  1  0  0 59.9920000  0  5G 2G15G 6G12G13
  19138402.3204   -9921617.75947  -7679670.94262
  22104059.4694  -12158658.08845    256407.42361
  18208928.7584  -19471545.22747 -15085351.24062
  22345312.6024   -2912133.50044  -1164298.31961
  17964435.7664  -34371238.13447 -23358384.01862
 91  5  1  0  1 14.9920000  0  5G 2G15G 6G12G13
  19137097.1414   -9928479.33847  -7685017.63163
  22105770.2114  -12149634.80744    263438.52361
  18206749.0164  -19483007.65847 -15094283.00462
  22331097.3444   -2986846.19643  -1222515.91061
  17957297.7894  -34408746.09447 -23387610.97961
 91  5  1  0  1 29.9920000  0  5G 2G15G 6G12G13
  19135802.4694   -9935283.56147  -7690319.63663
  22107512.6024  -12140494.39344    270560.90661
  18204593.5084  -19494327.51947 -15103103.68762
  22316870.3134   -3061555.43442  -1280730.80061
  17950190.3444  -34446105.75547 -23416722.38362
 91  5  1  0  1 44.9920000  0  5G 2G15G 6G12G13
  19134521.1954   -9942030.28247  -7695576.83962
  22109272.9924  -12131237.08044    277774.38061
  18202465.0314  -19505504.75747 -15111813.23962
  22302662.4384   -3136260.87543  -1338942.75061
  17943105.7814  -34483317.16147 -23445718.26161
 91  5  1  0  1 59.9920000  0  5G 2G15G 6G12G13
  19133249.4614   -9948715.95547  -7700786.46562
  22111057.5634  -12121859.21245    285081.80261
  18200364.8994  -19516535.58547 -15120408.70062
  22288440.9844   -3210958.67742  -1397148.71161
  17936054.2664  -34520376.66747 -23474595.77162
 91  5  1  0  2 14.9920000  0  5G 2G15G 6G12G13
  19131987.4224   -9955344.47547  -7705951.55562
  22112861.4144  -12112365.27445    292479.65061
  18198293.7194  -19527424.01347 -15128893.20762
  22274235.7974   -3285652.61742  -1455351.69361
  17929031.0004  -34557288.22447 -23503358.00062
 91  5  1  0  2 29.9920000  0  5G 2G15G 6G12G13
  19130734.2504   -9961919.98747  -7711075.35163
  22114688.1334  -12102759.60744    299964.54561
  18196250.6564  -19538174.13447 -15137269.94462
  22260018.6494   -3360346.70942  -1513554.78261
  17922033.7114  -34594056.47947 -23532008.57661
 91  5  1  0  2 44.9920000  0  5G 2G15G 6G12G13
  19129495.7664   -9968434.32747  -7716151.46862
  22116544.0314  -12093034.25645    307542.73361
  18194230.6494  -19548777.76347 -15145532.52562
  22245795.3284   -3435032.35942  -1571751.25261
  17915064.7974  -34630673.10747 -23560540.98061
 91  5  1  0  2 59.9920000  0  4G 2G15G 6G13
  19128264.8914   -9974900.87547  -7721190.34362
  22118413.1094  -12083202.92045    315203.49961
  18192238.0704  -19559248.09647 -15153691.23362
  17908123.8834  -34667151.63147 -23588965.78161
 91  5  1  0  3 14.9920000  0  4G 2G15G 6G13
  19127045.3444   -9981307.37347  -7726182.41862
  22120310.1024  -12073253.87945    322955.98061
  18190274.5944  -19569572.87347 -15161736.53062
  17901213.5084  -34703479.77747 -23617273.40962
 91  5  1  0  3 29.9920000  0  5G 2G15G 6G12G13
  19125838.9454   -9987657.18947  -7731130.33462
  22122225.2274  -12063190.93745    330797.20361
  18188334.3204  -19579755.54747 -15169671.08562
  22203176.0704         -0.01252
  17894325.5314  -34739661.02247 -23645466.56661
 91  5  1  0  3 44.9920000  0  5G 2G15G 6G12G13
  19124639.6494   -9993956.21247  -7736038.66862
  22124155.2814  -12053020.02445    338722.56161
  18186425.0004  -19589802.03547 -15177499.52162
  22188955.1024     -74679.57442
  17887468.9064  -34775701.49047 -23673550.02662
 91  5  1  0  3 59.9920000  0  5G 2G15G 6G12G13
  19123449.1564  -10000198.96047  -7740903.16362
  22126114.1494  -12042735.96545    346736.07861
  18184539.1884  -19599706.96047 -15185217.65562
  22174746.5784    -149354.80842
  17880637.9224  -34811595.78347 -23701519.57761
 91  5  1  0  4 14.9920000  0  5G 2G15G 6G12G13
  19122275.5084  -10006387.53247  -7745725.44862
  22128093.8444  -12032341.22845    354835.83961
  18182680.0314  -19609472.39747 -15192827.10262
  22160540.0784    -224027.57643
  17873834.6564  -34847346.22647 -23729377.04562
 91  5  1  0  4 29.9920000  0  5G 2G15G 6G12G13
  19121107.1024  -10012521.68447  -7750505.32062
  22130091.0004  -12021835.77645    363021.88261
  18180848.0784  -19619097.91547 -15200327.52162
  22146333.6414    -298697.20244        -0.16271
  17867058.1884  -34882952.44547 -23757122.13162
 91  5  1  0  4 44.9910000  0  5G 2G15G 6G12G13
  19119947.5504  -10018595.13547  -7755237.89562
  22132115.7614  -12011214.79345    371297.95761
  18179048.1984  -19628576.89247 -15207713.74562
  22132124.9644    -373352.73344    -58173.20961
  17860311.9484  -34918406.29847 -23784748.48461
 91  5  1  0  4 59.9910000  0  5G 2G15G 6G12G13
  19118805.4484  -10024606.48847  -7759922.07762
  22134157.6914  -12000475.05445    379666.58461
  18177271.1284  -19637908.68847 -15214985.28662
  22117919.8084    -448001.92144   -116341.27261
  17853593.4564  -34953710.51247 -23812258.24061
 91  5  1  0  5 14.9910000  0  5G 2G15G 6G12G13
  19117672.5974  -10030560.48247  -7764561.56862
  22136220.0894  -11989622.88045    388122.79861
  18175521.0584  -19647097.78947 -15222145.64662
  22103714.1754    -522644.70944   -174504.39061
  17846902.4564  -34988868.02847 -23839653.68761
 91  5  1  0  5 29.9910000  0  5G 2G15G 6G12G13
  19116552.3164  -10036462.26347  -7769160.37463
  22138304.9334  -11978663.67545    396662.42561
  18173797.5344  -19656149.17847 -15229198.68562
  22089510.5034    -597285.88145
  17840238.9954  -35023883.98447 -23866938.82262
 91  5  1  0  5 44.9910000  0  5G 2G15G 6G12G13
  19115438.6914  -10042302.15747  -7773710.95863
  22140414.4174  -11967588.07045    405292.74861
  18172104.2694  -19665053.21547 -15236136.91762
  22075308.6984    -671915.64045
  17833606.1054  -35058748.94447 -23894106.30262
 91  5  1  0  5 59.9910000  0  5G 2G15G 6G12G13
  19114335.9414  -10048088.45047  -7778219.77163
  22142543.1514  -11956404.49945    414007.18761
  18170437.7224  -19673818.29747 -15242966.86862
  22061108.2224    -746542.00445        -0.01271
  17826998.9644  -35093471.32047 -23921162.67761
 91  5  1  0  6 14.9910000  0  5G 2G15G 6G12G13
  19113244.6594  -10053819.68247  -7782685.68563
  22144691.2304  -11945111.67945    422806.78461
  18168797.4874  -19682442.78647 -15249687.26062
  22046912.8234    -821163.24445    -58146.30561
  17820419.0734  -35128049.61547 -23948106.78361
 91  5  1  0  6 29.9910000  0  5G 2G15G 6G12G13
  19112167.1124  -10059492.30047  -7787105.92563
  22146863.2224  -11933706.69145    431693.78661
  18167183.2374  -19690923.21047 -15256295.40562
  22032711.3784    -895775.75445   -116285.86161
  17813866.5584  -35162480.59047 -23974936.09262
 91  5  1  0  6 44.9910000  0  5G 2G15G 6G12G13
  19111101.5974  -10065107.06547  -7791481.08562
  22149053.1984  -11922190.58545    440667.35461
  18165593.9644  -19699260.49047 -15262792.00062
  22018510.6364    -970380.05345   -174418.96261
  17807341.9724  -35196765.10447 -24001651.27161
 91  5  1  0  6 59.9910000  0  5G 2G15G 6G12G13
  19110043.6834  -10070664.04747  -7795811.22263
  22151261.9644  -11910564.13044    449726.94361
  18164035.0264  -19707454.69547 -15269177.10762
  22004320.9564   -1044976.16545   -232545.69361
  17800845.6444  -35230903.43347 -24028252.54761
 91  5  1  0  7 14.9910000  0  5G 2G15G 6G12G13
  19108996.4724  -10076159.33247  -7800093.29062
  22153502.7454  -11898823.19244    458875.68061
  18162506.4094  -19715501.92247 -15275447.68862
  21990119.1054   -1119559.77144   -290662.71961
  17794377.6364  -35264891.59147 -24054736.80361
 91  5  1  0  7 29.9910000  0  5G 2G15G 6G12G13
  19107963.1674  -10081593.57147  -7804327.76762
  22155757.9254  -11886968.90145    468112.75361
  18161000.9254  -19723402.72747 -15281604.16462
  21975925.6674   -1194131.45444   -348770.41261
  17787938.3164  -35298730.33347 -24081104.63762
 91  5  1  0  7 44.9910000  0  5G 2G15G 6G12G13
  19106938.1984  -10086972.37347  -7808519.05062
  22158033.8394  -11875007.24345    477433.52061
  18159525.6124  -19731162.86147 -15287651.04762
  21961744.9174   -1268696.55944   -406873.00861
  17781526.1124  -35332425.65347 -24107360.70062
 91  5  1  0  7 59.9910000  0  5G 2G15G 6G12G13
  19105927.5034  -10092293.96047  -7812665.75762
  22160336.5734  -11862936.70745    486839.14261
  18158074.4174  -19738780.40647 -15293586.80962
  21947555.6444   -1343253.04444   -464968.83961
  17775143.1364  -35365975.61347 -24133503.50962
 91  5  1  0  8 14.9910000  0  5G 2G15G 6G12G13
  19104922.3164  -10097558.05747  -7816767.66662
  22162647.3784  -11850757.46245    496329.42661
  18156651.9874  -19746255.32147 -15299411.42962
  21933372.2304   -1417800.63144   -523057.79361
  17768785.5424  -35399380.12347 -24159532.98461
 91  5  1  0  8 29.9910000  0  5G 2G15G 6G12G13
  19103935.1444  -10102764.12247  -7820824.36562
  22164986.8864  -11838469.31645    505904.58661
  18155257.1594  -19753586.78647 -15305124.27062
  21919185.6514   -1492338.41144   -581139.08961
  17762456.4014  -35432638.86547 -24185448.87062
 91  5  1  0  8 44.9910000  0  5G 2G15G 6G12G13
  19102953.2224  -10107913.77547  -7824837.09162
  22167348.6204  -11826073.94845    515563.28761
  18153890.2924  -19760776.63247 -15310726.76062
  21905001.8164   -1566867.66744   -639213.79561
  17756156.5584  -35465753.51547 -24211252.46761
 91  5  1  0  8 59.9910000  0  5G 2G15G 6G12G13
  19101982.8004  -10113003.61747  -7828803.22762
  22169723.0424  -11813568.41245    525307.84461
  18152550.0344  -19767821.50347 -15316216.28562
  21890822.9334   -1641384.91644   -697279.07661
  17749882.4094  -35498720.90847 -24236941.33262
 91  5  1  0  9 14.9910000  0  5G 2G15G 6G12G13
  19101027.2454  -10118034.00547  -7832723.02862
  22172123.1984  -11800953.38145    535137.69661
  18151235.7694  -19774721.66447 -15321593.05462
  21876648.4334   -1715890.34245
  17743636.9804  -35531541.58747 -24262515.86662
 91  5  1  0  9 29.9910000  0  5G 2G15G 6G12G13
  19100083.4484  -10123005.42047  -7836596.88962
  22174545.7694  -11788229.69845    545052.27661
  18149947.8944  -19781477.64547 -15326857.47362
  21862474.9414   -1790384.01245
  17737417.5034  -35564216.06447 -24287976.48461
 91  5  1  0  9 44.9910000  0  5G 2G15G 6G12G13
  19099149.2304  -10127913.26647  -7840421.20062
  22176992.7064  -11775393.20345    555054.69161
  18148689.8784  -19788084.92847 -15332006.02762
  21848300.9874   -1864861.29145
  17731228.9014  -35596740.11547 -24313319.88061
 91  5  1  0  9 59.9910000  0  5G 2G15G 6G12G13
  19098226.6364  -10132762.14247  -7844199.56662
  22179455.8864  -11762448.72844    565141.26461
  18147460.9724  -19794548.11547 -15337042.29862
  21834128.5114   -1939326.61644        -0.18771
  17725067.6984  -35629118.34247 -24338549.64561
 91  5  1  0 10 14.9910000  0  5G 2G15G 6G12G13
  19097314.6364  -10137549.82647  -7847930.25562
  22181939.3004  -11749394.37645    575313.45461
  18146259.3394  -19800865.01047 -15341964.56962
  21819959.7614   -2013777.47544    -58013.80861
  17718934.5504  -35661348.54047 -24363664.07861
 91  5  1  0 10 29.9910000  0  5G 2G15G 6G12G13
  19096416.6514  -10142275.91047  -7851612.92462
  22184441.6124  -11736230.25744    585571.18261
  18145083.7844  -19807035.42547 -15346772.70062
  21805797.1284   -2088213.36344   -116015.69661
  17712830.1754  -35693430.62947 -24388663.08362
 91  5  1  0 10 44.9910000  0  5G 2G15G 6G12G13
  19095528.6834  -10146940.73147  -7855247.86762
  22186966.2144  -11722957.06844    595913.94961
  18143936.8554  -19813059.58447 -15351466.85962
  21791625.0734   -2162634.24244   -174005.94761
  17706752.5034  -35725364.89847 -24413546.91161
 91  5  1  0 10 59.9910000  0  5G 2G15G 6G12G13
  19094650.4644  -10151546.66747  -7858836.92962
  22189513.8394  -11709577.32644    606339.71261
  18142820.3944  -19818939.84447 -15356048.90162
  21777467.1284   -2237042.31444   -231986.16761
  17700702.5584  -35757153.92647 -24438317.56561
 91  5  1  0 11 14.9910000  0  5G 2G15G 6G12G13
  19093783.2064  -10156090.92947  -7862377.93362
  22192082.1444  -11696088.53344    616850.44361
  18141731.9954  -19824673.49647 -15360516.70062
  21763314.8474   -2311434.70944   -289954.20061
  17694682.2534  -35788795.27847 -24462973.15461
 91  5  1  0 11 29.9910000  0  5G 2G15G 6G12G13
  19092934.1754  -10160571.73647  -7865869.48062
  22194665.9334  -11682489.23144    627447.31561
  18140667.1284  -19830258.65947 -15364868.78862
  21749164.0814   -2385809.24644   -347908.31661
  17688688.9334  -35820287.24247 -24487512.33162
 91  5  1  0 11 44.9910000  0  5G 2G15G 6G12G13
  19092089.3784  -10164998.99247  -7869319.31962
  22197275.4724  -11668789.84445    638122.13761
  18139629.8624  -19835705.63747 -15369113.20862
  21735011.0034   -2460175.77344   -405856.21061
  17682722.1124  -35851639.99947 -24511943.03562
 91  5  1  0 11 59.9910000  0  5G 2G15G 6G12G13
  19091258.3474  -10169363.76947  -7872720.46562
  22199903.1754  -11654981.65244    648881.76961
  18138623.8704  -19841005.23347 -15373242.77962
  21720862.0734   -2534525.03744   -463790.63361
  17676785.2224  -35882844.49447 -24536258.21261
 91  5  1  0 12 14.9910000  0  5G 2G15G 6G12G13
  19090442.3944  -10173666.95347  -7876073.61362
  22202548.6594  -11641066.01644    659725.08861
  18137638.8624  -19846158.58747 -15377258.39862
  21706716.5034   -2608857.75745   -521712.16461
  17670875.5264  -35913901.77847 -24560458.67561
 91  5  1  0 12 29.9910000  0  5G 2G15G 6G12G13
  19089634.4254  -10177905.73247  -7879376.57462
  22205220.3704  -11627040.72744    670653.89561
  18136689.9174  -19851162.92747 -15381157.89662
  21692578.8784   -2683170.96245   -579618.47361
  17664993.5424  -35944809.36147 -24584542.49462
 91  5  1  0 12 44.9910000  0  5G 2G15G 6G12G13
  19088841.6984  -10182085.78247  -7882633.77462
  22207908.0194  -11612911.47444
  18135761.9414  -19856023.79147 -15384945.60862
  21678437.8314   -2757470.01745   -637513.75761
  17659139.0894  -35975573.09347 -24608514.21661
 91  5  1  0 12 59.9910000  0  5G 2G15G 6G12G13
  19088055.2064  -10186203.84347  -7885842.67162
  22210614.9564  -11598675.40143
  18134868.5814  -19860738.12647 -15388619.13262
  21664303.2064   -2831751.47745   -695395.33361
  17653314.0734  -36006189.71747 -24632371.31062
 91  5  1  0 13 14.9910000  0  5G 2G15G 6G12G13
  19087282.2534  -10190262.01247  -7889004.89562
  22213343.9954  -11584334.85743
  18133997.3004  -19865307.94147 -15392180.04562
  21650170.7064   -2906017.33445   -753264.74161
  17647513.6284  -36036661.44747 -24656115.50561
 91  5  1  0 13 29.9910000  0  5G 2G15G 6G12G13
  19086524.4334  -10194258.27247  -7892118.87762
  22216099.2534  -11569888.10943
  18133153.7454  -19869731.25247 -15395626.80062
  21636040.0034   -2980265.20845   -811120.11761
  17641743.6284  -36066986.47647 -24679745.38361
 91  5  1  0 13 44.9910000  0  5G 2G15G 6G12G13
  19085775.4174  -10198191.14447  -7895183.47362
  22218862.5734  -11555334.12642
  18132341.2534  -19874006.80747 -15398958.43862
  21621914.1514   -3054493.37845   -868960.15061
  17636001.4014  -36097163.61647 -24703260.02261
 91  5  1  0 13 59.9910000  0  5G 2G15G 6G12G13
  19085038.2064  -10202057.57347  -7898196.29462
  22221654.4564  -11540670.20743        -0.00771
  18131558.9254  -19878131.59347 -15402172.57862
  21607795.8084   -3128698.68545   -926782.36461
  17630287.4954  -36127189.93347 -24726657.13961
 91  5  1  0 14 14.9910000  0  5G 2G15G 6G12G13
  19084312.8164  -10205863.70747  -7901162.13062
  22224463.5664  -11525902.98043     11506.93361
  18130801.4954  -19882111.82047 -15405274.07862
  21593679.1754   -3202887.03645   -984591.35961
  17624601.4414  -36157071.90347 -24749941.77562
 91  5  1  0 14 29.9910000  0  5G 2G15G 6G12G13
  19083600.7764  -10209607.38747
  22227294.2304  -11511030.37943     23095.97061
  18130072.5894  -19885945.06547
  21579566.6054   -3277055.86145  -1042385.14561
  17618942.3314  -36186807.37047 -24773112.25362
 91  5  1  0 14 44.9910000  0  5G 2G15G 6G12G13
  19082901.7694  -10213286.56447
  22230139.3554  -11496050.76842     34768.36661
  18129371.2374  -19889629.73047
  21565455.0974   -3351203.09445  -1100162.11461
  17613312.7614  -36216394.40647 -24796167.07161
 91  5  1  0 14 59.9910000  0  5G 2G15G 6G12G13
  19082214.0504  -10216902.28447  -7909763.65962
  22233022.6284  -11480965.47643     46523.09261
  18128698.9094  -19893166.69447 -15413888.32562
  21551348.8394   -3425329.43345  -1157922.82761
  17607711.0344  -36245834.38347 -24819107.30161
 91  5  1  0 15 14.9910000  0  5G 2G15G 6G12G13
  19081537.3084  -10220455.84047  -7912532.68762
  22235906.7454  -11465776.38743     58358.69261
  18128053.2144  -19896557.39647 -15416530.44462
  21537248.7454   -3499435.95045  -1215668.04561
  17602135.4954  -36275128.58247 -24841933.93161
 91  5  1  0 15 29.9910000  0  5G 2G15G 6G12G13
  19080876.1054  -10223944.60447  -7915251.21862
  22238815.8864  -11450481.00842     70277.20861
  18127434.3164  -19899799.15747 -15419056.51262
  21523152.2304   -3573519.85245  -1273395.67161
  17596590.2374  -36304274.49847 -24864645.02962
 91  5  1  0 15 44.9910000  0  5G 2G15G 6G12G13
  19080223.5814  -10227370.88447  -7917921.06462
  22241749.2144  -11435082.23343     82276.22661
  18126842.6284  -19902894.51047 -15421468.49262
  21509058.6674   -3647583.27945  -1331107.32161
  17591071.8004  -36333274.72847 -24887242.58561
 91  5  1  0 15 59.9910000  0  5G 2G15G 6G12G13
  19079581.4564  -10230734.42047  -7920542.01662
  22244694.4804  -11419580.11042
  18126284.7064  -19905843.24147 -15423766.21862
  21494966.9094   -3721625.73645  -1388802.64861
  17585579.3234  -36362129.30447 -24909726.66062
 91  5  1  0 16 14.9910000  0  5G 2G15G 6G12G13
  19078951.9484  -10234036.87747  -7923115.38162
  22247661.2454  -11403976.56742
  18125752.6204  -19908646.99647 -15425950.98462
  21480883.4644   -3795648.61445  -1446482.68761
  17580117.1834  -36390839.93047 -24932098.56561
 91  5  1  0 16 29.9910000  0  5G 2G15G 6G12G13
  19078339.8704  -10237276.89447  -7925640.09662
  22250652.2374  -11388270.56642
  18125243.4804  -19911304.49647 -15428021.78262
  21466800.3234   -3869650.19445  -1504146.13261
  17574681.3944  -36419405.32747 -24954357.30562
 91  5  1  0 16 44.9910000  0  5G 2G15G 6G12G13
  19077731.6054  -10240449.92447  -7928112.60362
  22253664.1204  -11372457.74142
  18124768.7224  -19913811.17647 -15429975.06962
  21452723.2534   -3943625.64845  -1561789.25161
  17569272.6674  -36447821.22047 -24976499.54162
 91  5  1  0 16 59.9910000  0  5G 2G15G 6G12G13
  19077144.6054  -10243559.50747  -7930535.68362
  22256697.3314  -11356542.26942
  18124316.5664  -19916170.78147 -15431813.74462
  21438648.1754   -4017578.45045  -1619414.67861
  17563895.0424  -36476091.29648 -24998528.15762
 91  5  1  0 17 14.9910000  0  5G 2G15G 6G12G13
  19076559.2924  -10246608.22847  -7932911.32762
  22259742.5814  -11340526.72142
  18123898.2144  -19918385.82947 -15433539.77062
  21424581.6124   -4091511.01145  -1677024.36461
  17558540.3864  -36504218.57348 -25020445.50362
 91  5  1  0 17 29.9910000  0  5G 2G15G 6G12G13
  19075994.3394  -10249593.36347  -7935237.41162
  22262807.3624  -11324408.92041
  18123502.5344  -19920453.83447 -15435151.22662
  21410513.4804   -4165420.41844  -1734615.97061
  17553215.7064  -36532200.37747 -25042249.49762
 91  5  1  0 17 44.9910000  0  5G 2G15G 6G12G13
  19075437.6054  -10252513.54647  -7937512.90162
  22265896.5114  -11308187.97941
  18123139.6284  -19922373.43547 -15436647.04462
  21396447.8004   -4239304.96544  -1792188.26661
  17547920.3864  -36560035.45547 -25063939.15662
 91  5  1  0 17 59.9910000  0  5G 2G15G 6G12G13
  19074891.7144  -10255376.31947  -7939743.65962
  22269000.7304  -11291871.62041        -0.02071
  18122801.1674  -19924152.11347 -15438033.04362
  21382397.4874   -4313171.90545  -1849746.79661
  17542650.2924  -36587731.50847 -25085520.48762
 91  5  1  0 18 14.9910000  0  4G 2G 6G12G13
  19074361.0114  -10258179.11947  -7941927.67562
  18122487.6594  -19925787.56747 -15439307.43362
  21368347.7064   -4387018.53244  -1907289.50861
  17537404.5034  -36615286.40848 -25106991.81661
 91  5  1  0 18 29.9910000  0  4G 2G 6G12G13
  19073837.4414  -10260919.51047  -7944063.05762
  18122203.7694  -19927277.36147 -15440468.33062
  21354296.7844   -4460842.05244  -1964814.20361
  17532190.0504  -36642697.73148 -25128351.28962
 91  5  1  0 18 44.9910000  0  4G 2G 6G12G13
  19073329.7764  -10263598.96047  -7946150.95162
  18121949.2374  -19928623.09247 -15441516.96862
  21340250.8234   -4534643.78544  -2022321.93661
  17527000.5034  -36669967.12847 -25149600.14262
 91  5  1  0 18 59.9910000  0  4G 2G 6G12G13
  19072832.4804  -10266210.56347  -7948185.98762
  18121722.7694  -19929818.06747 -15442448.14162
  21326215.9014   -4608416.63845  -2079807.15161
  17521839.6054  -36697087.82847 -25170733.15462
 91  5  1  0 19 14.9910000  0  4G 2G 6G12G13
  19072346.8864  -10268758.82247  -7950171.66062
  18121522.8004  -19930866.68947 -15443265.27062
  21312180.7454   -4682164.89845  -2137273.20161
  17516705.4484  -36724064.50947 -25191753.92362
 91  5  1  0 19 29.9910000  0  4G 2G 6G12G13
  19071874.3704  -10271234.96947  -7952101.14362
  18121353.0264  -19931760.35147 -15443961.64262
  21298151.5034   -4755879.49945  -2194713.07061
  17511601.4954  -36750888.71847 -25212655.88062
 91  5  1  0 19 44.9910000  0  4G 2G 6G12G13
  19071417.2064  -10273646.93547  -7953980.60862
  18121208.9564  -19932506.94347 -15444543.42162
  21284126.7224   -4829568.02445  -2252132.58761
  17506524.2534  -36777568.56247 -25233445.36262
 91  5  1  0 19 59.9910000  0  4G 2G 6G12G13
  19070969.8164  -10275997.17547  -7955811.98162
  18121094.8554  -19933109.03647 -15445012.61162
  21270113.0114   -4903232.71645  -2309533.55961
  17501474.8004  -36804106.50947 -25254124.27061
 91  5  1  0 20 14.9910000  0  4G 2G 6G12G13
  19070532.5114  -10278285.66947  -7957595.24362
  18121009.1834  -19933566.88347 -15445369.38162
  21256101.7614   -4976873.51745  -2366915.90361
  17496450.1834  -36830502.88547 -25274692.86061
 91  5  1  0 20 29.9900000  0  4G 2G 6G12G13
  19070109.1154  -10280511.82247  -7959329.92562
  18120949.7564  -19933879.97747 -15445613.37162
  21242093.7644   -5050484.69245  -2424275.11161
  17491455.8574  -36856755.64448 -25295149.54562
 91  5  1  0 20 44.9900000  0  4G 2G 6G12G13
  19069697.3264  -10282672.34747  -7961013.48462
  18120917.9364  -19934044.73247
  21228091.3344   -5124072.16145  -2481615.87061
  17486486.8184  -36882864.88347 -25315494.39162
 91  5  1  0 20 59.9900000  0  4G 2G 6G12G13
  19069301.8814  -10284763.90847  -7962643.28362
  18120914.1314  -19934058.33147
  21214092.0064   -5197627.81145  -2538931.86061
  17481546.0614  -36908826.11347 -25335723.90462
 91  5  1  0 21 14.9900000  0  4G 2G 6G12G13
  19068912.3734  -10286792.16947  -7964223.78262
  18120942.6394  -19933926.41647
  21200100.3344   -5271156.97445  -2596227.20761
  17476634.0144  -36934645.14247 -25355842.61961
 91  5  1  0 21 29.9900000  0  4G 2G 6G12G13
  19068541.4434  -10288758.83447  -7965756.27362
  18120991.2794  -19933650.73947
  21186113.0454   -5344661.13645  -2653503.08661
  17471746.8574  -36960323.91148 -25375852.04062
 91  5  1  0 21 44.9900000  0  4G 2G 6G12G13
  19068178.2794  -10290661.26747  -7967238.71462
  18121071.4044  -19933228.90947        -0.14272
  21172130.0764   -5418137.36245  -2710757.19161
  17466887.7874  -36985859.85148 -25395750.16362
 91  5  1  0 21 59.9900000  0  4G 2G 6G12G13
  19067830.9824  -10292495.40347  -7968667.92862
  18121179.2014  -19932656.65547       445.75462
  21158147.3264   -5491581.36445  -2767986.18761
  17462055.5374  -37011249.06947 -25415533.95762
 91  5  1  0 22 14.9900000  0  4G 2G 6G12G13
  19067493.0064  -10294265.45647  -7970047.19662
  18121318.5374  -19931938.55347      1005.29162
  21144180.7794   -5564997.20145  -2825193.23061
  17457252.9204  -37036496.11248 -25435206.96562
 91  5  1  0 22 29.9900000  0  4G 2G 6G12G13
  19067168.3574  -10295969.34147  -7971374.92562
  18121483.0374  -19931072.53747      1680.09162
  21130218.4594   -5638382.35045  -2882376.35361
  17452474.7794  -37061599.12348 -25454767.73861
 91  5  1  0 22 44.9900000  0  4G 2G 6G12G13
  19066859.0294  -10297603.58147  -7972648.36662
  18121675.0684  -19930055.09747      2472.88062
  21116260.3654   -5711733.14145  -2939532.72061
  17447725.6314  -37086554.80448 -25474213.71262
 91  5  1  0 22 59.9900000  0  4G 2G 6G12G13
  19066559.4514  -10299170.71847  -7973869.52162
  18121899.8814  -19928888.95947      3381.54662
  21102307.4434   -5785051.78445  -2996664.04061
  17443005.0144  -37111365.66248 -25493546.84561
 91  5  1  0 23 14.9900000  0  4G 2G 6G12G13
  19066271.5224  -10300671.03947  -7975038.61762
  18122151.8894  -19927574.56847      4405.72262
  21088357.7094   -5858338.42545  -3053770.41661
  17438310.5224  -37136032.17348 -25512767.48862
 91  5  1  0 23 29.9900000  0  4G 2G 6G12G13
  19065998.9904  -10302107.45747  -7976157.92462
  18122426.7254  -19926114.95847      5543.06862
  21074422.2564   -5931595.83945  -3110854.01161
  17433644.2174  -37160557.73547 -25531878.29862
 91  5  1  0 23 44.9900000  0  4G 2G 6G12G13
  19065740.0294  -10303474.26247  -7977222.98062
  18122734.0684  -19924504.42247      6798.01062
  21060490.0684   -6004817.86345  -3167910.05061
  17429005.2954  -37184936.49747 -25550874.72462
 91  5  1  0 23 59.9900000  0  4G 2G 6G12G13
  19065491.1784  -10304773.67847  -7978235.53562
  18123068.4674  -19922745.48247      8168.60162
  21046557.6704   -6078006.49045  -3224940.01861
  17424393.0374  -37209171.07348 -25569758.80662
 91  5  1  0 24 14.9900000  0  4G 2G 6G12G13
  19065257.4514  -10306008.50447  -7979197.75762
  18123429.9824  -19920841.05047      9652.54762
  21032639.6784   -6151164.35045  -3281946.02761
  17419807.3504  -37233264.78547 -25588533.11261
 91  5  1  0 24 29.9900000  0  4G 2G 6G12G13
  19065035.0764  -10307171.35947  -7980103.90562
  18123824.1624  -19918783.61247     11255.72062
  21018722.8034   -6224283.75545  -3338922.11561
  17415251.2564  -37257210.19548 -25607191.87262
 91  5  1  0 24 44.9900000  0  4G 2G 6G12G13
  19064828.7484  -10308267.65047  -7980958.17162
  18124242.7174  -19916578.65347     12973.84862
  21004812.7724   -6297369.72045  -3395872.12761
  17410721.4904  -37281012.97048 -25625739.47462
 91  5  1  0 24 59.9900000  0  4G 2G 6G12G13
  19064630.5224  -10309299.34947  -7981762.11462
  18124687.6474  -19914228.52347     14805.10962
  20990907.4674   -6370424.13745  -3452797.53261
  17406219.5144  -37304675.31048 -25644177.65062
 91  5  1  0 25 14.9900000  0  4G 2G 6G12G13
  19064450.8034  -10310263.38947  -7982513.34562
  18125162.4204  -19911730.18447     16751.84662
  20977017.1004   -6443443.73345  -3509695.83361
  17401744.0294  -37328194.50848 -25662504.28362
 91  5  1  0 25 29.9900000  0  4G 2G 6G12G13
  19064278.5924  -10311155.35847  -7983208.40162
  18125670.2794  -19909079.37347     18817.39362
  20963129.7954   -6516423.82245  -3566563.32561
  17397296.2404  -37351566.38548 -25680716.12662
 91  5  1  0 25 44.9900000  0  4G 2G 6G12G13
  19064124.5764  -10311974.12147  -7983846.42362
  18126202.9594  -19906274.95947     21002.64762
  20949248.3974   -6589362.98045  -3623398.94961
  17392876.1784  -37374789.76748 -25698812.26262
 91  5  1  0 25 59.9900000  0  4G 2G 6G12G13
  19063984.6704  -10312723.69347  -7984430.52562
  18126762.5764  -19903321.30347     23304.17062
  20935378.0294   -6662265.10345  -3680205.68861
  17388484.2254  -37397869.20348 -25716796.23061
 91  5  1  0 26 14.9900000  0  4G 2G 6G12G13
  19063850.4824  -10313398.77047  -7984956.58962
  18127356.6784  -19900213.21247     25726.03962
  20921516.2724   -6735124.61145  -3736979.21961
  17384121.3814  -37420799.61448 -25734664.07462
 91  5  1  0 26 29.9900000  0  4G 2G 6G12G13
  19063736.2874  -10314000.86547  -7985425.77362
  18127975.6704  -19896952.13547     28267.11062
  20907656.6394   -6807942.64745  -3793720.47361
  17379786.4124  -37443582.68348 -25752417.11162
 91  5  1  0 26 44.9900000  0  4G 2G 6G12G13
  19063633.9044  -10314533.45347  -7985840.79862
  18128626.3894  -19893541.68447     30924.58662
  20893807.2644   -6880722.51945  -3850431.98061
  17375476.8734  -37466221.92348 -25770058.06762
 91  5  1  0 26 59.9900000  0  4G 2G 6G12G13
  19063549.3344  -10314999.27347  -7986203.80062
  18129304.3184  -19889984.59247     33696.32762
  20879962.3264   -6953466.65345  -3907115.61061
  17371196.7254  -37488720.15248 -25787589.14562
 91  5  1  0 27 14.9900000  0  4G 2G 6G12G13
  19063473.2324  -10315399.21447  -7986515.47162
  18130005.3424  -19886282.07647     36581.37762
  20866127.7014   -7026175.61745  -3963771.86461
  17366941.3114  -37511078.67748 -25805011.36862
 91  5  1  0 27 29.9900000  0  4G 2G 6G12G13
  19063408.0454  -10315727.97247  -7986771.67862
  18130741.2324  -19882429.02847     39583.73962
  20852301.6704   -7098843.95045  -4020396.46661
  17362714.6234  -37533292.49648 -25822320.83162
 91  5  1  0 27 44.9900000  0  4G 2G 6G12G13
  19063362.2484  -10315982.26447  -7986969.85162
  18131501.0374  -19878422.14847     42705.95262
  20838480.9284   -7171468.00845  -4076986.54761
  17358516.1784  -37555358.40148 -25839515.03662
 91  5  1  0 27 59.9900000  0  4G 2G 6G12G13
  19063324.8654  -10316172.34947
  18132290.9824  -19874271.90347     45939.89062
  20824666.2484   -7244057.89845  -4133550.00261
  17354342.9594  -37577287.01148 -25856602.24761
 91  5  1  0 28 14.9900000  0  4G 2G 6G12G13
  19063302.6004  -10316296.37847
  18133109.2794  -19869976.46847     49286.96062
  20810858.1784   -7316611.44045  -4190085.14061
  17350195.1784  -37599076.59048 -25873581.13662
 91  5  1  0 28 29.9900000  0  4G 2G 6G12G13
  19063291.7874  -10316345.85247
  18133955.3574  -19865527.51547     52753.65462
  20797061.8974   -7389119.92545  -4246585.15361
  17346079.0144  -37620719.08348 -25890445.41462
 91  5  1  0 28 44.9900000  0  4G 2G 6G12G13
  19063299.0224  -10316320.87947
  18134831.4754  -19860925.45347     56339.65162
  20783269.9364   -7461583.07345  -4303049.88661
  17341987.3654  -37642214.82348 -25907195.33062
 91  5  1  0 28 59.9900000  0  4G 2G 6G12G13
  19063318.2174  -10316226.29647
  18135734.9514  -19856175.07947     60041.21562
  20769487.2794   -7534005.45245  -4359482.82361
  17337924.7254  -37663568.76848 -25923834.76562
 91  5  1  0 29 14.9900000  0  4G 2G 6G12G13
  19063346.3654  -10316058.04247
  18136668.1544  -19851272.44347     63861.42462
  20755720.7484   -7606382.75445  -4415880.64861
  17333888.2014  -37684777.16348 -25940360.78762
 91  5  1  0 29 29.9900000  0  4G 2G 6G12G13
  19063393.3344  -10315817.97847
  18137629.0534  -19846219.51047     67798.75562
  20741953.9824   -7678716.64145  -4472244.64161
  17329879.6934  -37705842.02248 -25956774.94962
 91  5  1  0 29 44.9900000  0  4G 2G 6G12G13
  19063449.3894  -10315503.16847
  18138622.2794  -19841013.57747     71855.29262
  20728199.3734   -7751003.99045  -4528572.38861
  17325899.7324  -37726760.77848 -25973075.27862
 91  5  1  0 29 59.9900000  0  4G 2G 6G12G13
  19063522.6474  -10315117.75847
  18139640.6074  -19835659.00947     76027.66862
  20714449.6004   -7823248.53046  -4584866.79061
  17321944.8184  -37747537.49948 -25989264.92362
 91  5  1  0 30 14.9900000  0  4G 2G 6G12G13
  19063614.5764  -10314661.17747
  18140686.5614  -19830155.35547     80316.20462
  20700705.8814   -7895449.29545  -4641127.06661
  17318018.2874  -37768171.91648 -26005343.68962
 91  5  1  0 30 29.9900000  0  4G 2G 6G12G13
  19063712.4904  -10314127.75047        -0.00872
  18141763.4364  -19824496.86447     84725.38462
  20686979.7794   -7967600.45745  -4697348.68161
  17314120.5144  -37788658.66848 -26021307.38362
 91  5  1  0 30 44.9900000  0  4G 2G 6G12G13
  19063828.2724  -10313522.69447       471.43962
  18142869.2324  -19818688.91747     89251.02762
  20673262.3974   -8039707.06945  -4753535.59061
  17310246.9754  -37809003.50748 -26037160.50462
 91  5  1  0 30 59.9900000  0  4G 2G 6G12G13
  19063958.8184  -10312843.70947      1000.49862
  18144003.4514  -19812729.75847     93894.49462
  20659546.9984   -8111766.42745  -4809685.67161
  17306405.0144  -37829203.94448 -26052901.09361
 91  5  1  0 31 14.9900000  0  4G 2G 6G12G13
  19064101.5144  -10312086.99847      1590.11362
  18145168.6004  -19806615.28247     98658.99262
  20645841.4204   -8183774.61145  -4865795.88161
  17302588.6864  -37849256.79448 -26068526.68562
 91  5  1  0 31 29.9900000  0  4G 2G 6G12G13
  19064257.7254  -10311256.59447      2237.15662
  18146358.1154  -19800349.86447    103541.11762
  20632147.1624   -8255735.43345  -4921869.16061
  17298799.9124  -37869166.35848 -26084040.63062
 91  5  1  0 31 44.9900000  0  4G 2G 6G12G13
  19064431.8654  -10310352.12347      2941.92362
  18147581.8424  -19793933.37547    108540.95562
  20618461.6864   -8327648.20645  -4977905.02761
  17295038.6074  -37888932.26148 -26099442.62762
 91  5  1  0 31 59.9900000  0  4G 2G 6G12G13
  19064615.8184  -10309374.06247      3704.02562
  18148832.0294  -19787366.56047    113657.93762
  20604787.9984   -8399513.00545  -5033903.51061
  17291304.2254  -37908555.25348 -26114733.26962
 91  5  1  0 32 14.9900000  0  4G 2G 6G12G13
  19064821.9364  -10308320.22547      4525.17062
  18150106.0684  -19780647.16846    118893.79962
  20591124.8424   -8471327.44346  -5089862.77461
  17287597.4434  -37928033.41748 -26129911.05862
 91  5  1  0 32 29.9900000  0  4G 2G 6G12G13
  19065033.5064  -10307189.79247      5406.00862
  18151417.2874  -19773774.41047    124249.16362
  20577466.0684   -8543090.59645  -5145782.06261
  17283919.4204  -37947366.29448 -26144975.63262
 91  5  1  0 32 44.9900000  0  4G 2G 6G12G13
  19065260.4984  -10305986.22347      6343.83162
  18152753.7254  -19766752.11847    129721.04062
  20563821.9754   -8614805.49145  -5201663.72261
  17280266.6234  -37966557.53948 -26159929.84262
 91  5  1  0 32 59.9900000  0  4G 2G 6G12G13
  19065507.1394  -10304706.24047      7341.20762
  18154120.0454  -19759577.14047    135311.90262
  20550184.2404   -8686468.57645  -5257505.02361
  17276643.1394  -37985603.99748 -26174771.23962
 91  5  1  0 33 14.9900000  0  4G 2G 6G12G13
  19065763.3504  -10303354.63147      8394.39262
  18155510.3344  -19752254.43447    141017.87162
  20536557.2794   -8758084.37646  -5313309.47761
  17273045.0064  -38004510.83648 -26189503.83662
 91  5  1  0 33 29.9900000  0  4G 2G 6G12G13
  19066036.7954  -10301927.71447      9506.24462
  18156934.3574  -19744780.15247    146841.96662
  20522937.7644   -8829648.65446  -5369073.79361
  17269473.8814  -38023274.36648 -26204124.76862
 91  5  1  0 33 44.9900000  0  4G 2G 6G12G13
  19066321.3264  -10300422.80547     10678.87462
  18158384.2094  -19737152.09047    152785.87562
  20509331.8264   -8901158.77046  -5424795.90861
  17265931.9674  -38041892.44848 -26218632.36262
 91  5  1  0 33 59.9900000  0  4G 2G 6G12G13
  19066624.6784  -10298840.78147     11911.60162
  18159865.1394  -19729371.26947    158848.82662
  20495734.0684   -8972615.26346  -5480476.24461
  17262414.8974  -38060366.14548 -26233027.44962
 91  5  1  0 34 14.9900000  0  4G 2G 6G12G13
  19066939.3734  -10297184.66647     13202.06162
  18161373.4594  -19721440.79047    165028.38762
  20482143.0534   -9044020.84046  -5536116.87061
  17258926.4754  -38078698.56048 -26247312.44362
 91  5  1  0 34 29.9900000  0  4G 2G 6G12G13
  19067266.7014  -10295455.04347     14549.79962
  18162913.5294  -19713361.43047    171323.96762
  20468562.4824   -9115375.76345  -5591718.04861
  17255464.8574  -38096890.38948 -26261487.89262
 91  5  1  0 34 44.9900000  0  4G 2G 6G12G13
  19067609.7324  -10293648.60347     15957.39462
  18164480.0294  -19705130.00547    177738.03862
  20454994.3034   -9186676.66846  -5647277.12561
  17252031.4824  -38114938.84148 -26275551.62362
 91  5  1  0 34 59.9900000  0  4G 2G 6G12G13
  19067968.1624  -10291769.67247     17421.47062
  18166075.9204  -19696751.10447    184267.00862
  20441436.4754   -9257927.67546  -5702797.33861
  17248623.7794  -38132848.86948 -26289507.49762
 91  5  1  0 35 14.9900000  0  4G 2G 6G12G13
  19068340.4674  -10289815.04047     18944.53262
  18167695.8264  -19688221.84847    190913.14162
  20427891.9514   -9329125.11046  -5758275.77861
  17245241.4904  -38150617.22848 -26303352.96462
 91  5  1  0 35 29.9900000  0  4G 2G 6G12G13
  19068726.3654  -10287784.79247     20526.51762
  18169349.2254  -19679542.33447    197676.35862
  20414350.5064   -9400268.81346  -5813712.36761
  17241885.8034  -38168244.28548 -26317088.33162
 91  5  1  0 35 44.9900000  0  4G 2G 6G12G13
  19069124.4824  -10285681.28347     22165.58562
  18171030.0064  -19670714.95947    204554.79562
  20400824.6074   -9471360.65146  -5869108.53161
  17238559.2014  -38185732.58748 -26330715.57662
 91  5  1  0 35 59.9900000  0  4G 2G 6G12G13
  19069543.5374  -10283507.58747     23859.33562
  18172735.1474  -19661742.76047    211546.09562
  20387305.5454   -9542403.48746  -5924466.52861
  17235257.7254  -38203085.45648 -26344237.29261
 91  5  1  0 36 14.9900000  0  4G 2G 6G12G13
  19069968.3894  -10281258.11947     25612.12462
  18174473.6704  -19652620.69147    218654.19062
  20373795.9204   -9613391.51446  -5979781.81261
  17231981.8424  -38220297.82448 -26357649.52962
 91  5  1  0 36 29.9900000  0  4G 2G 6G12G13
  19070412.2014  -10278932.75847     27424.06862
  18176235.7484  -19643348.87047    225878.95462
  20360298.7254   -9684324.47046  -6035054.18261
  17228732.7254  -38237369.63848 -26370952.23662
 91  5  1  0 36 44.9900000  0  4G 2G 6G12G13
  19070865.2644  -10276533.57547     29293.54662
  18178030.0374  -19633929.40247    233218.77562
  20346811.1234   -9755204.07246  -6090284.95961
  17225510.2484  -38254303.04448 -26384147.09962
 91  5  1  0 36 59.9890000  0  4G 2G 6G12G13
  19071340.4854  -10274057.10247     31223.23762
  18179849.9314  -19624359.46047    240675.83562
  20333333.3684   -9826021.69446  -6145467.44461
  17222315.5564  -38271093.72648 -26397230.73962
 91  5  1  0 37 14.9890000  0  4G 2G 6G12G13
  19071823.7354  -10271509.79547     33208.11962
  18181698.5794  -19614644.78247    248245.68962
  20319865.2044   -9896793.14546  -6200613.95961
  17219145.1654  -38287751.07547 -26410210.49462
 91  5  1  0 37 29.9890000  0  4G 2G 6G12G13
  19072321.0644  -10268888.65747     35250.54462
  18183576.3534  -19604783.01747    255930.14562
  20306406.3924   -9967510.26546  -6255718.13161
  17216001.8144  -38304270.77248 -26423082.99162
 91  5  1  0 37 44.9890000  0  4G 2G 6G12G13
  19072836.1964  -10266194.15047     37350.12661
  18185481.1814  -19594774.80947    263728.71362
  20292963.9784  -10038173.27946  -6310780.14761
  17212884.0244  -38320653.86948 -26435849.03662
 91  5  1  0 37 59.9890000  0  4G 2G 6G12G13
  19073360.8214  -10263425.46147     39507.51662
  18187410.6814  -19584619.28647    271642.07362
  20279525.5404  -10108781.08046  -6365799.13661
  17209793.2434  -38336899.50748 -26448507.97762
 91  5  1  0 38 14.9890000  0  4G 2G 6G12G13
  19073905.1494  -10260582.95747     41722.42562
  18189371.9624  -19574317.16347    279669.66762
  20266102.2674  -10179333.63146  -6420775.07761
  17206727.0644  -38353008.64248 -26461060.55162
 91  5  1  0 38 29.9890000  0  4G 2G 6G12G13
  19074458.8214  -10257671.09147     43991.37062
  18191360.1494  -19563873.27847    287807.72462
  20252686.2984  -10249835.24846  -6475711.33361
  17203687.7284  -38368985.73148 -26473510.23162
 91  5  1  0 38 44.9890000  0  4G 2G 6G12G13
  19075027.1964  -10254685.80547     46317.54161
  18193375.4234  -19553283.38547    296059.56162
  20239279.8374  -10320281.57246  -6530604.50061
  17200673.1814  -38384826.93748 -26485854.02962
 91  5  1  0 38 59.9890000  0  4G 2G 6G12G13
  19075607.8144  -10251627.53347     48700.57461
  18195419.0564  -19542548.30347    304424.52562
  20225884.0094  -10390672.78346  -6585454.72661
  17197685.0324  -38400533.10048 -26498092.60062
 91  5  1  0 39 14.9890000  0  4G 2G 6G12G13
  19076201.8844  -10248496.13947     51140.58361
  18197487.5874  -19531668.22747    312902.47162
  20212498.2044  -10461008.46546  -6640261.68061
  17194720.9624  -38416104.48348 -26510226.14462
 91  5  1  0 39 29.9890000  0  4G 2G 6G12G13
  19076815.0244  -10245288.10547     53640.33461
  18199588.8144  -19520639.59247    321496.17662
  20199127.9074  -10531284.59146  -6695022.24461
  17191783.9464  -38431537.61948 -26522251.95962
 91  5  1  0 39 44.9890000  0  4G 2G 6G12G13
  19077438.5954  -10242007.20947     56196.84461
  18201713.6034  -19509466.40647    330202.52562
  20185761.6814  -10601504.83646  -6749739.25361
  17188873.0874  -38446836.63848 -26534173.27562
 91  5  1  0 39 59.9890000  0  4G 2G 6G12G13
  19078076.5404  -10238655.46546     58808.56061
  18203867.0954  -19498151.01247    339019.66962
  20172407.9314  -10671670.97246  -6804414.09561
  17185986.4784  -38462003.98948 -26545991.99061
 91  5  1  0 40 14.9890000  0  4G 2G 6G12G13
  19078727.9234  -10235236.27447     61472.83261
  18206045.8604  -19486696.88647    347944.92962
  20159067.0874  -10741785.95446  -6859049.08461
  17183123.5324  -38477043.32148 -26557710.95662
 91  5  1  0 40 29.9890000  0  4G 2G 6G12G13
  19079388.5014  -10231744.71147     64193.50661
  18208254.6424  -19475099.17147    356982.07662
  20145735.9234  -10811844.57046  -6913640.15061
  17180289.2434  -38491949.79448 -26569326.39262
 91  5  1  0 40 44.9890000  0  4G 2G 6G12G13
  19080071.0324  -10228175.11447     66974.98661
  18210488.8684  -19463352.68447    366135.14762
  20132416.2984  -10881840.95846  -6968182.71161
  17177477.8294  -38506718.04848 -26580834.12362
 91  5  1  0 40 59.9890000  0  4G 2G 6G12G13
  19080763.1894  -10224530.68347     69814.77961
  18212750.5484  -19451460.63747    375401.65762
  20119110.6264  -10951777.96646  -7022679.01561
  17174693.2284  -38521351.57848 -26592236.87662
 91  5  1  0 41 14.9890000  0  4G 2G 6G12G13
  19081472.1424  -10220812.92247     72711.70661
  18215042.7204  -19439424.69347    384780.28962
  20105812.0404  -11021656.78146  -7077129.98461
  17171933.1964  -38535852.00548 -26603535.91762
 91  5  1  0 41 29.9890000  0  4G 2G 6G12G13
  19082194.9624  -10217021.05547     75666.36661
  18217357.2904  -19427244.21446    394271.52862
  20092524.1494  -11091476.32746  -7131534.74661
  17169199.1894  -38550219.16248 -26614731.11362
 91  5  1  0 41 44.9890000  0  4G 2G 6G12G13
  19082928.2824  -10213156.01647     78678.04761
  18219706.3454  -19414920.63547    403874.28062
  20079247.9074  -11161237.30546  -7185893.88061
  17166491.7514  -38564454.06048 -26625823.24262
 91  5  1  0 41 59.9890000  0  4G 2G 6G12G13
  19083677.0014  -10209217.80147     81746.75561
  18222075.9154  -19402453.89346    413588.58662
  20065985.3924  -11230939.42846  -7240207.17761
  17163807.1494  -38578556.92948 -26636812.49562
 91  5  1  0 42 14.9890000  0  4G 2G 6G12G13
  19084442.5564  -10205203.87247     84874.46261
  18224479.6034  -19389841.71847    423416.21662
  20052735.2204  -11300579.88046  -7294472.38861
  17161149.3924  -38592525.65148 -26647697.22262
 91  5  1  0 42 29.9890000  0  4G 2G 6G12G13
  19085220.0174  -10201115.03346     88060.53861
  18226903.1264  -19377085.28546    433356.24162
  20039493.6104  -11370159.26246  -7348690.02761
  17158516.3764  -38606361.42048 -26658478.34261
 91  5  1  0 42 44.9890000  0  4G 2G 6G12G13
  19086013.2204  -10196948.05447     91307.49761
  18229360.4624  -19364181.20746    443411.33562
  20026263.6104  -11439673.66646  -7402857.03161
  17155909.9544  -38620060.74048 -26669153.13362
 91  5  1  0 42 59.9890000  0  4G 2G 6G12G13
  19086820.4854  -10192709.92947     94609.91262
  18231843.2284  -19351136.66146    453575.88262
  20013047.8604  -11509129.88246  -7456978.70261
  17153327.2824  -38633631.05648 -26679727.40862
 91  5  1  0 43 14.9890000  0  4G 2G 6G12G13
  19087639.9854  -10188396.97947     97970.61661
  18234352.6344  -19337948.63446    463852.23562
  19999841.2124  -11578524.20646  -7511052.14161
  17150769.5484  -38647069.35048 -26690198.80562
 91  5  1  0 43 29.9890000  0  4G 2G 6G12G13
  19088473.4074  -10184010.69846    101388.47561
  18236889.1964  -19324618.79746    474239.09362
  19986648.0954  -11647857.83946  -7565078.27861
  17148236.8844  -38660377.40548 -26700568.71362
 91  5  1  0 43 44.9890000  0  4G 2G 6G12G13
  19089324.1264  -10179546.85246    104866.78061
  18239455.1184  -19311142.71246    484739.90262
  19973468.7434  -11717125.99246  -7619053.41061
  17145730.9784  -38673551.11048 -26710833.94162
 91  5  1  0 43 59.9890000  0  4G 2G 6G12G13
  19090186.1494  -10175015.22946    108397.88561
  18242043.3064  -19297530.58147    495346.72162
  19960297.3374  -11786338.21846  -7672984.94961
  17143246.3844  -38686600.52148 -26721002.31962
 91  5  1  0 44 14.9890000  0  4G 2G 6G12G13
  19091063.9624  -10170409.30547    111986.88361
  18244660.7674  -19283776.10746    506064.46162
  19947135.2674  -11855487.78946  -7726867.67361
  17140789.9314  -38699519.29948 -26731068.89662
 91  5  1  0 44 29.9890000  0  4G 2G 6G12G13
  19091955.6814  -10165725.02347    115636.93961
  18247306.3144  -19269875.32847    516896.19062
  19933991.4154  -11924570.18946  -7780698.04661
  17138356.0644  -38712303.57948 -26741030.65862
 91  5  1  0 44 44.9890000  0  4G 2G 6G12G13
  19092857.2594  -10160970.29646    119341.88461
  18249977.5174  -19255836.39746    527835.58562
  19920860.1654  -11993593.12546  -7834482.07861
  17135948.5644  -38724961.61448 -26750894.07062
 91  5  1  0 44 59.9890000  0  4G 2G 6G12G13
  19093778.7284  -10156140.95347    123104.99161
  18252675.0484  -19241655.52146    538885.56962
  19907735.0874  -12062552.00246  -7888216.21961
  17133563.5874  -38737489.61548 -26760656.14262
 91  5  1  0 45 14.9890000  0  4G 2G 6G12G13
  19094712.6184  -10151236.05547    126926.95861
  18255402.5404  -19227331.66147    550046.98262
  19894623.4074  -12131445.57846  -7941899.45561
  17131205.0484  -38749886.98448 -26770316.43162
 91  5  1  0 45 29.9890000  0  4G 2G 6G12G13
  19095656.6574  -10146255.21046    130808.09662
  18258156.7904  -19212864.62347    561319.96762
  19881525.3994  -12200273.12946  -7995531.24961
  17128869.8374  -38762153.28448 -26779874.58262
 91  5  1  0 45 44.9890000  0  4G 2G 6G12G13
  19096622.6894  -10141199.17246    134747.85561
  18260934.1104  -19198255.58146    572703.59362
  19868438.6424  -12269035.05746  -8049111.92961
  17126560.1424  -38774289.67648 -26789331.50962
 91  5  1  0 45 59.9890000  0  4G 2G 6G12G13
  19097598.1184  -10136068.82746    138745.50061
  18263742.8684  -19183505.73547    584196.93962
  19855368.8764  -12337732.11646  -8102642.04161
  17124274.6964  -38786297.44548 -26798688.21162
 91  5  1  0 46 14.9890000  0  4G 2G 6G12G13
  19098590.6654  -10130861.65146    142803.01361
  18266577.0484  -19168612.66646    595801.88562
  19842310.7514  -12406361.39046  -8156119.33961
  17122015.7594  -38798174.39848 -26807942.97962
 91  5  1  0 46 29.9890000  0  4G 2G 6G12G13
  19099593.6424  -10125577.24846    146920.69461
  18269438.4544  -19153576.12447    607518.65362
  19829261.6654  -12474922.21946  -8209543.29761
  17119779.4234  -38809920.54848 -26817095.81862
 91  5  1  0 46 44.9890000  0  4G 2G 6G12G13
  19100615.1034  -10120220.16147    151095.02361
  18272326.0244  -19138401.03947    619343.35762
  19816225.7434  -12543418.90646  -8262917.27861
  17117567.7594  -38821540.65148 -26826150.44862
 91  5  1  0 46 59.9890000  0  4G 2G 6G12G13
  19101648.4314  -10114788.28246    155327.63161
  18275240.1184  -19123085.52047    631277.48762
  19803203.7044  -12611849.05746  -8316239.40961
  17115382.3534  -38833032.69248 -26835105.28162
 91  5  1  0 47 14.9890000  0  4G 2G 6G12G13
  19102695.3294  -10109280.05546    159619.72661
  18278181.6104  -19107628.00646    643322.26262
  19790193.7744  -12680210.78246  -8369508.23061
  17113219.5404  -38844395.58948 -26843959.48062
 91  5  1  0 47 29.9890000  0  4G 2G 6G12G13
  19103758.8994  -10103699.39046    163968.26761
  18281148.5174  -19092032.90346    655474.24662
  19777199.3374  -12748507.72546  -8422726.57161
  17111081.6264  -38855633.49948 -26852716.29161
 91  5  1  0 47 44.9890000  0  4G 2G 6G12G13
  19104835.5244  -10098043.92846    168375.09661
  18284142.9704  -19076297.90146    667735.25262
  19764217.6734  -12816736.93146  -8475892.12561
  17108965.9784  -38866744.20448 -26861373.97762
 91  5  1  0 47 59.9890000  0  4G 2G 6G12G13
  19105923.4154  -10092316.61146    172837.92661
  18287164.2674  -19060426.00447    680102.93862
  19751246.2904  -12884901.04346  -8529006.96261
  17106876.7674  -38877730.86848 -26869935.00462
 91  5  1  0 48 14.9890000  0  4G 2G 6G12G13
  19107030.4624  -10086510.87646    177361.84261
  18290213.0094  -19044410.99546    692582.13061
  19738288.4314  -12952993.35046  -8582065.83461
  17104810.6814  -38888587.49948 -26878394.71662
 91  5  1  0 48 29.9890000  0  4G 2G 6G12G13
  19108148.9464  -10080630.38046    181944.00561
  18293286.0324  -19028256.98646    705169.61862
  19725344.9624  -13021017.22146  -8635071.39361
  17102768.8844  -38899318.02548 -26886756.15962
 91  5  1  0 48 44.9890000  0  4G 2G 6G12G13
  19109280.7434  -10074675.31846    186584.28161
  18296383.6104  -19011964.03646    717865.37561
  19712411.8064  -13088972.40746  -8688023.41761
  17100751.8064  -38909922.82148 -26895019.63461
 91  5  1  0 48 59.9890000  0  4G 2G 6G12G13
  19110427.2284  -10068645.53246    191282.78961
  18299513.2514  -18995532.38546    730669.21062
  19699494.8374  -13156858.40646  -8740921.54261
  17098756.3064  -38920401.79948 -26903185.06462
 91  5  1  0 49 14.9890000  0  4G 2G 6G12G13
  19111589.0644  -10062540.78246    196039.70861
  18302666.0404  -18978961.89146    743581.23862
  19686589.6654  -13224674.77446  -8793765.39561
  17096787.4464  -38930755.24748 -26911252.68562
 91  5  1  0 49 29.9890000  0  4G 2G 6G12G13
  19112765.1184  -10056355.74546    200859.18961
  18305845.3604  -18962247.73646    756605.20362
  19673700.4394  -13292415.90446  -8846550.64061
  17094840.7284  -38940978.06648 -26919218.51662
 91  5  1  0 49 44.9890000  0  4G 2G 6G12G13
  19113961.1894  -10050093.25746    205739.02161
  18309054.1424  -18945392.84846    769738.83562
  19660819.9784  -13360084.18646  -8899279.12061
  17092919.9854  -38951073.32548 -26927084.94562
 91  5  1  0 49 59.9890000  0  4G 2G 6G12G13
  19115162.5324  -10043758.44846    210675.20561
  18312288.5244  -18928402.52946    782977.99462
  19647956.5794  -13427684.52446  -8951954.65761
  17091021.6494  -38961046.52548 -26934856.27362
 91  5  1  0 50 14.9890000  0  4G 2G 6G12G13
  19116384.5014  -10037352.84546    215666.56361
  18315545.7124  -18911278.61746    796321.25361
  19635105.0564  -13495218.09046  -9004578.16661
  17089147.9314  -38970899.40548 -26942533.84062
 91  5  1  0 50 29.9890000  0  4G 2G 6G12G13
  19117616.4314  -10030876.84546    220712.76161
  18318830.8684  -18894021.59546    809768.24161
  19622265.9314  -13562684.97846  -9057149.70161
  17087293.2044  -38980632.84448 -26950118.33662
 91  5  1  0 50 44.9890000  0  4G 2G 6G12G13
  19118862.5484  -10024324.60146    225818.36361
  18322138.6264  -18876626.11846    823323.09462
  19609444.9934  -13630079.07346  -9109664.50761
  17085466.4154  -38990241.24048 -26957605.39862
 91  5  1  0 50 59.9890000  0  4G 2G 6G12G13
  19120123.0324  -10017697.60746    230982.22661
  18325477.9624  -18859093.75246    836984.62462
  19596634.3064  -13697401.51746  -9162123.49561
  17083661.3924  -38999726.28648 -26964996.34862
 91  5  1  0 51 14.9890000  0  4G 2G 6G12G13
  19121399.0244  -10010993.17146    236206.42361
  18328838.1424  -18841422.14346    850754.67062
  19583833.7354  -13764649.40146  -9214524.37161
  17081880.7124  -39009085.61748 -26972289.32862
 91  5  1  0 51 29.9890000  0  4G 2G 6G12G13
  19122687.5244  -10004216.25246    241487.10261
  18332227.8294  -18823616.38246    864629.25361
  19571048.6734  -13831827.28046  -9266870.71561
  17080121.7744  -39018324.50348 -26979488.46462
 91  5  1  0 51 44.9890000  0  4G 2G 6G12G13
  19123994.2984   -9997366.01746    246824.90461
  18335641.5564  -18805675.98346    878608.73661
  19558277.8294  -13898933.88146  -9319161.52161
  17078386.4934  -39027442.49848 -26986593.38962
 91  5  1  0 51 59.9890000  0  4G 2G 6G12G13
  19125313.4464   -9990439.79946    252221.91561
  18339081.8994  -18787598.35846    892695.15161
  19545522.8994  -13965966.27746  -9371394.50361
  17076675.7984  -39036436.99848 -26993602.09461
 91  5  1  0 52 14.9890000  0  4G 2G 6G12G13
  19126640.4784   -9983439.56146    257676.61461
  18342547.0954  -18769385.85446    906886.64862
  19532780.6424  -14032926.15946  -9423570.96461
  17074987.5404  -39045310.39248 -27000516.42262
 91  5  1  0 52 29.9890000  0  4G 2G 6G12G13
  19127990.8924   -9976361.24646    263192.15861
  18346039.1184  -18751034.60746    921186.26961
  19520054.4854  -14099809.06346  -9475687.46461
  17073321.6814  -39054058.81048 -27007333.37062
 91  5  1  0 52 44.9890000  0  4G 2G 6G12G13
  19129352.3374   -9969203.76846    268769.37261
  18349558.0484  -18732543.65146    935594.74961
  19507341.2204  -14166613.57246  -9527742.86061
  17071680.6184  -39062681.66248 -27014052.47862
 91  5  1  0 52 59.9890000  0  4G 2G 6G12G13
  19130728.9314   -9961971.44246    274404.92961
  18353100.7284  -18713917.64246    950108.46362
  19494644.8374  -14233343.61546  -9579740.23761
  17070063.2744  -39071183.49648 -27020677.27962
 91  5  1  0 53 14.9890000  0  4G 2G 6G12G13
  19132118.5094   -9954663.51246    280099.38861
  18356675.7984  -18695155.94146    964727.91362
  19481961.0404  -14299998.15846  -9631678.79961
  17068468.8764  -39079563.68048 -27027207.29262
 91  5  1  0 53 29.9890000  0  4G 2G 6G12G13
  19133524.3454   -9947278.10746    285854.21561
  18360268.8454  -18676256.94746    979454.33361
  19469291.7824  -14366574.97446  -9683556.77061
  17066896.7904  -39087820.56348 -27033641.22962
 91  5  1  0 53 44.9890000  0  4G 2G 6G12G13
  19134944.2744   -9939824.30446    291662.33261
  18363890.4544  -18657230.04546    994280.43162
  19456635.0644  -14433082.98446  -9735381.13861
  17065347.0564  -39095963.59848 -27039986.45062
 91  5  1  0 53 59.9890000  0  4G 2G 6G12G13
  19136374.7044   -9932297.94846    297526.98561
  18367537.3994  -18638071.25646   1009209.29362
  19443995.3374  -14499517.55846  -9787148.28461
  17063820.6964  -39103989.00448 -27046240.01762
 91  5  1  0 54 14.9880000  0  4G 2G 6G12G13
  19137823.1454   -9924691.90346    303453.74261
  18371209.8404  -18618774.52446   1024245.65062
  19431369.2314  -14565866.39746  -9838848.61961
  17062317.0904  -39111888.88848 -27052395.77362
 91  5  1  0 54 29.9880000  0  4G 2G 6G12G13
  19139284.4494   -9917017.98146    309433.38361
  18374904.5204  -18599350.29346   1039381.35562
  19418753.9884  -14632150.75846  -9890498.71561
  17060836.0744  -39119677.55248 -27058464.86162
 91  5  1  0 54 44.9880000  0  4G 2G 6G12G13
  19140756.2074   -9909265.60746    315474.15561
  18378625.5904  -18579788.98746   1054623.88161
  19406155.7234  -14698354.72546  -9942086.17361
  17059375.6524  -39127343.40248 -27064438.24762
 91  5  1  0 54 59.9880000  0  4G 2G 6G12G13
  19142247.1924   -9901443.75746    321569.08061
  18382374.3014  -18560100.05546   1069965.86161
  19393572.3404  -14764487.04346  -9993617.80461
  17057940.1844  -39134895.86448 -27070323.28862
 91  5  1  0 55 14.9880000  0  4G 2G 6G12G13
  19143749.6924   -9893553.45346    327717.33761
  18386145.1454  -18540284.54346   1085406.45761
  19380999.6764  -14830548.49846 -10045094.22561
  17056522.2774  -39142336.35848 -27076121.07462
 91  5  1  0 55 29.9880000  0  4G 2G 6G12G13
  19145264.3954   -9885588.68746    333923.61161
  18389938.3324  -18520336.70546   1100950.16562
  19368443.5514  -14896532.65146 -10096510.41061
  17055129.4184  -39149659.19848 -27081827.18262
 91  5  1  0 55 44.9880000  0  4G 2G 6G12G13
  19146794.3794   -9877549.38146    340187.96361
  18393762.8014  -18500256.86846   1116596.73462
  19355901.6764  -14962439.24246 -10147866.14561
  17053758.4654  -39156864.51148 -27087441.70662
 91  5  1  0 55 59.9880000  0  4G 2G 6G12G13
  19148337.6604   -9869433.77346    346511.78161
  18397608.5434  -18480043.41446   1132347.41062
  19343374.3634  -15028266.14246 -10199159.79061
  17052410.5354  -39163950.73748 -27092963.44862
 91  5  1  0 56 14.9880000  0  4G 2G 6G12G13
  19149895.3484   -9861247.16146    352890.91861
  18401478.5044  -18459701.88946   1148197.89461
  19330863.0984  -15094018.14246 -10250395.06861
  17051083.5354  -39170923.40848 -27098396.69262
 91  5  1  0 56 29.9880000  0  4G 2G 6G12G13
  19151468.5434   -9852990.14246    359324.93361
  18405375.4574  -18439233.29546   1164147.38962
  19318365.9654  -15159695.66546 -10301572.30761
  17049776.8564  -39177783.69248 -27103742.36662
 91  5  1  0 56 44.9880000  0  4G 2G 6G12G13
  19153052.3714   -9844662.86646    365813.67861
  18409291.9344  -18418637.82146   1180195.74562
  19305883.3244  -15225298.28746 -10352691.19061
  17048493.8794  -39184531.61848 -27109000.48962
 91  5  1  0 56 59.9880000  0  4G 2G 6G12G13
  19154647.2384   -9836266.87846    372355.96461
  18413236.1064  -18397917.36646   1196341.49761
  19293412.5204  -15290827.36346 -10403752.76361
  17047231.3324  -39191169.39548 -27114172.78662
 91  5  1  0 57 14.9880000  0  4G 2G 6G12G13
  19156260.0824   -9827802.02346    378951.92961
  18417202.8954  -18377071.97046   1212584.60461
  19280956.0514  -15356282.31546 -10454756.57261
  17045988.8954  -39197696.84248 -27119259.10962
 91  5  1  0 57 29.9880000  0  4G 2G 6G12G13
  19157884.2384   -9819262.13746    385606.33761
  18421196.1134  -18356095.66546   1228929.70961
  19268515.7314  -15421656.63146 -10505697.55961
  17044766.8874  -39204108.27748 -27124255.03262
 91  5  1  0 57 44.9880000  0  4G 2G 6G12G13
  19159522.4494   -9810651.07046    392316.21561
  18425209.8634  -18334992.67946   1245373.54461
  19256088.7704  -15486953.97246 -10556578.57361
  17043569.1924  -39210407.96448 -27129163.86962
 91  5  1  0 57 59.9880000  0  4G 2G 6G12G13
  19161176.4494   -9801969.31846    399081.18461
  18429252.1684  -18313763.74746   1261915.52061
  19243678.9184  -15552174.47246 -10607399.69761
  17042392.6214  -39216596.82148 -27133986.35762
 91  5  1  0 58 14.9880000  0  4G 2G 6G12G13
  19162842.3794   -9793212.81746    405904.39161
  18433314.9344  -18292405.10946   1278558.56061
  19231282.8634  -15617313.77146 -10658157.53461
  17041237.3794  -39222670.89048 -27138719.39862
 91  5  1  0 58 29.9880000  0  4G 2G 6G12G13
  19164522.8794   -9784382.68846    412784.97161
  18437402.8484  -18270918.19246   1295301.55461
  19218902.2384  -15682372.61246 -10708852.68961
  17040102.0674  -39228631.44448 -27143363.98462
 91  5  1  0 58 44.9880000  0  4G 2G 6G12G13
  19166217.5904   -9775484.10446    419718.89261
  18441516.8484  -18249308.16646   1312140.47661
  19206537.0984  -15747355.69946 -10759488.81661
  17038988.9964  -39234483.92648 -27147924.36462
 91  5  1  0 58 59.9880000  0  4G 2G 6G12G13
  19167923.1684   -9766511.49846    426710.47861
  18445653.1134  -18227569.96546   1329079.26161
  19194185.1604  -15812257.26046 -10810061.42361
  17037896.9654  -39240223.24648 -27152396.56062
 91  5  1  0 59 14.9880000  0  4G 2G 6G12G13
  19169645.4184   -9757472.27946    433753.98161
  18449813.2704  -18205711.05546   1346112.12161
  19181850.5274  -15877084.33846 -10860575.97061
  17036824.5204  -39245857.17248 -27156786.63562
 91  5  1  0 59 29.9880000  0  4G 2G 6G12G13
  19171376.3874   -9748359.88146    440854.50761
  18453999.4344  -18183725.34346   1363243.79561
  19169531.3404  -15941830.08846 -10911027.15861
  17035773.1374  -39251379.42248 -27161089.69062
 91  5  1  0 59 44.9880000  0  4G 2G 6G12G13
  19173126.9814   -9739177.81146    448009.32761
  18458204.8564  -18161616.55346   1380471.36561
  19157226.1924  -16006497.68346 -10961417.44061
  17034742.7544  -39256793.67948 -27165308.59762
 91  5  1  0 59 59.9880000  0  4G 2G 6G12G13
  19174885.6604   -9729920.46546    455222.80361
  18462435.5354  -18139379.46946   1397798.90861
  19144933.6604  -16071081.23846 -11011742.24061
  17033733.9884  -39262094.85048 -27169439.38262
 91  5  1  1  0 14.9880000  0  4G 2G 6G12G13
  19176662.0124   -9720591.15346    462492.34961
  18466691.0824  -18117017.26346   1415223.95061
  19132659.5674  -16135583.40546 -11062003.59461
  17032745.6764  -39267286.23848 -27173484.62262
 91  5  1  1  0 29.9880000  0  4G 2G 6G12G13
  19178450.7314   -9711190.51246    469817.49461
  18470970.1684  -18094530.95446   1432745.70161
  19120401.7384  -16200004.60246 -11112201.87261
  17031779.1294  -39272368.77048 -27177445.05062
 91  5  1  1  0 44.9880000  0  4G 2G 6G12G13
  19180252.9734   -9701715.66846    477200.44661
  18475272.5354  -18071918.04946   1450366.09461
  19108157.3094  -16264341.68346 -11162334.60661
  17030832.5744  -39277340.05248 -27181318.78462
 91  5  1  1  0 59.9880000  0  4G 2G 6G12G13
  19182070.4574   -9692170.84446    484637.93161
  18479598.0904  -18049182.94146   1468081.70961
  19095929.7464  -16328598.61546 -11212404.90761
  17029907.4264  -39282204.64748 -27185109.38362
 91  5  1  1  1 14.9880000  0  4G 2G 6G12G13
  19183900.8954   -9682557.63646    492128.69861
  18483947.3954  -18026327.68046   1485890.95361
  19083717.7314  -16392776.64346 -11262413.70561
  17029002.3874  -39286964.25348 -27188818.17362
 91  5  1  1  1 29.9880000  0  4G 2G 6G12G13
  19185742.0594   -9672870.87746    499676.77661
  18488320.2314  -18003347.11746   1503797.83661
  19071521.3794  -16456870.06546 -11312356.57761
  17028117.1064  -39291613.95648 -27192441.32462
 91  5  1  1  1 44.9880000  0  4G 2G 6G12G13
  19187600.2314   -9663112.08946    507280.98661
  18492718.1294  -17980243.17546   1521800.86961
  19059339.8954  -16520880.05046 -11362234.43561
  17027251.8564  -39296155.66848 -27195980.32362
 91  5  1  1  1 59.9880000  0  4G 2G 6G12G13
  19189469.6604   -9653284.36446    514938.91761
  18497137.2234  -17957019.04946   1539897.53361
  19047174.3874  -16584809.26246 -11412049.35861
  17026407.9024  -39300592.51648 -27199437.61662
 91  5  1  1  2 14.9880000  0  4G 2G 6G12G13
  19191354.7384   -9643386.90646    522651.17461
  18501580.0984  -17933674.46546   1558088.07461
  19035023.4964  -16648656.73446 -11461800.59161
  17025584.0274  -39304924.41148 -27202813.12262
 91  5  1  1  2 29.9880000  0  4G 2G 6G12G13
  19193252.6844   -9633419.46046    530417.97361
  18506045.4884  -17910209.49446   1576372.42761
  19022889.3324  -16712421.96346 -11511487.72661
  17024779.1924  -39309151.27048 -27206106.78262
 91  5  1  1  2 44.9880000  0  4G 2G 6G12G13
  19195161.9574   -9623380.66946    538240.36661
  18510532.8014  -17886622.70446   1594751.69061
  19010770.1064  -16776103.10246 -11561109.34361
  17023995.6924  -39313271.92048 -27209317.69262
 91  5  1  1  2 59.9880000  0  4G 2G 6G12G13
  19197084.2774   -9613275.58546    546114.42261
  18515043.6524  -17862919.58546   1613221.60061
  18998671.4654  -16839704.89747 -11610669.12761
  17023231.0904  -39317291.79748 -27212450.06562
 91  5  1  1  3 14.9880000  0  4G 2G 6G12G13
  19199019.0124   -9603104.55846    554039.85361
  18519575.9654  -17839100.78946   1631781.64461
  18986581.9494  -16903227.46546 -11660167.18261
  17022484.7704  -39321211.76148 -27215504.58862
 91  5  1  1  3 29.9880000  0  4G 2G 6G12G13
  19200965.2464   -9592864.88446    562018.77561
  18524131.3014  -17815163.87046   1650433.72561
  18974506.4884  -16966667.63246 -11709601.03961
  17021756.1454  -39325029.19448 -27218479.21762
 91  5  1  1  3 44.9880000  0  4G 2G 6G12G13
  19202930.2934   -9582555.30246    570052.17561
  18528710.7234  -17791107.66346   1669178.78261
  18962450.9814  -17030023.67946 -11758969.35561
  17021050.2314  -39328742.92348 -27221373.04062
 91  5  1  1  3 59.9880000  0  4G 2G 6G12G13
  19204904.8014   -9572172.17846    578142.85661
  18533309.1214  -17766928.88446   1688019.33061
  18950413.0204  -17093291.69246 -11808269.06461
  17020364.9024  -39332349.80948 -27224183.60562
 91  5  1  1  4 14.9880000  0  4G 2G 6G12G13
  19206894.0204   -9561718.17246    586288.78561
  18537932.9024  -17742630.68546   1706952.93761
  18938391.1374  -17156474.09047 -11857502.04761
  17019699.1214  -39335852.91648 -27226913.30162
 91  5  1  1  4 29.9880000  0  4G 2G 6G12G13
  19208894.9734   -9551198.02546    594486.26361
  18542578.9654  -17718217.95146   1725975.80161
  18926382.3174  -17219575.23847 -11906671.72961
  17019050.0514  -39339257.21848 -27229566.01062
 91  5  1  1  4 44.9880000  0  4G 2G 6G12G13
  19210914.1844   -9540604.81246    602740.68561
  18547246.7314  -17693684.04846   1745093.06961
  18914389.9964  -17282587.92646 -11955772.48761
  17018422.9574  -39342556.25048 -27232136.68962
 91  5  1  1  4 59.9880000  0  4G 2G 6G12G13
  19212942.9024   -9529941.12246    611050.00361
  18551941.0434  -17669031.69546   1764302.65561
  18902414.1134  -17345514.20346 -12004805.90061
  17017814.8874  -39345752.45448 -27234627.24962
 91  5  1  1  5 14.9880000  0  4G 2G 6G12G13
  19214982.6064   -9519207.55246    619413.77061
  18556653.7544  -17644261.92846   1783603.71561
  18890456.6374  -17408354.51446 -12053772.33661
  17017225.5594  -39348847.18448 -27237038.73062
 91  5  1  1  5 29.9880000  0  4G 2G 6G12G13
  19217041.4344   -9508407.81046    627829.11161
  18561390.5744  -17619378.83946   1802993.06761
  18878515.2854  -17471112.06246 -12102674.28861
  17016655.1454  -39351844.40848 -27239374.23662
 91  5  1  1  5 44.9880000  0  4G 2G 6G12G13
  19219107.5674   -9497537.68046    636299.28761
  18566146.4264  -17594378.22346   1822474.01861
  18866589.4734  -17533782.19747 -12151508.11961
  17016105.2384  -39354739.63548 -27241630.26762
 91  5  1  1  5 59.9880000  0  4G 2G 6G12G13
  19221191.2624   -9486595.22946    644825.83661
  18570926.1374  -17569258.60846   1842047.68761
  18854682.0744  -17596362.85847 -12200272.23461
  17015572.7074  -39357531.73448 -27243805.93962
 91  5  1  1  6 14.9880000  0  4G 2G 6G12G13
  19223282.5204   -9475582.02246    653407.50861
  18575729.2154  -17544021.80646   1861712.65661
  18842788.0824  -17658855.26947 -12248967.58761
  17015060.9884  -39360222.51748 -27245902.65962
 91  5  1  1  6 29.9880000  0  4G 2G 6G12G13
  19225399.3954   -9464496.74346    662045.33861
  18580553.6684  -17518666.62546   1881469.88661
  18830914.6454  -17721257.66047 -12297592.80961
  17014569.1524  -39362810.70248 -27247919.42962
 91  5  1  1  6 44.9880000  0  4G 2G 6G12G13
  19227519.7544   -9453340.29046    670738.63161
  18585398.8484  -17493194.25046   1901318.43661
  18819056.6604  -17783570.63747 -12346148.34061
  17014095.4574  -39365297.52948 -27249857.22362
 91  5  1  1  6 59.9880000  0  4G 2G 6G12G13
  19229653.8484   -9442112.20546    679487.74461
  18590272.0904  -17467604.68946   1921258.30361
  18807216.9884  -17845793.28747 -12394633.48861
  17013640.8484  -39367682.79348 -27251715.88062
 91  5  1  1  7 14.9880000  0  4G 2G 6G12G13
  19231807.7154   -9430812.41446    688292.74461
  18595161.3634  -17441898.15846   1941289.30261
  18795393.0044  -17907925.25547 -12443047.96261
  17013206.5124  -39369967.04548 -27253495.81562
 91  5  1  1  7 29.9880000  0  4G 2G 6G12G13
  19233967.8174   -9419445.89446    697149.70861
  18600076.1454  -17416079.76546   1961407.48461
  18783587.8404  -17969971.03447 -12491395.28761
  17012790.9654  -39372155.41048 -27255201.03562
 91  5  1  1  7 44.9880000  0  4G 2G 6G12G13
  19236142.7624   -9408012.27246    706059.00261
  18605010.3014  -17390149.47246   1981612.84761
  18771795.1924  -18031929.92047 -12539674.91961
  17012391.8714  -39374247.95748 -27256831.59362
 91  5  1  1  7 59.9880000  0  4G 2G 6G12G13
  19238338.1214   -9396505.03046    715025.65661
  18609967.3954  -17364101.13146   2001910.19861
  18760024.3634  -18093795.10747 -12587881.54961
  17012013.1924  -39376238.20948 -27258382.44362
 91  5  1  1  8 14.9880000  0  4G 2G 6G12G13
  19240537.2234   -9384929.82846    724045.25861
  18614944.3404  -17337940.52346   2022295.03461
  18748265.2544  -18155571.80447 -12636019.21661
  17011653.7464  -39378132.18548 -27259858.27562
 91  5  1  1  8 29.9880000  0  4G 2G 6G12G13
  19242748.2314   -9373284.14146    733119.77961
  18619942.7544  -17311665.52146   2042769.01861
  18736526.8324  -18217257.30746 -12684085.81561
  17011311.2774  -39379927.68648 -27261257.36562
 91  5  1  1  8 44.9880000  0  4G 2G 6G12G13
  19244983.9024   -9361569.83846    742247.76061
  18624968.3634  -17285278.17946   2063330.52061
  18724808.6064  -18278852.93847 -12732082.37361
  17010987.1924  -39381626.79248 -27262581.35062
 91  5  1  1  8 59.9880000  0  4G 2G 6G12G13
  19247221.8244   -9349786.44146    751429.58661
  18630009.3714  -17258778.23346   2083979.76761
  18713104.7704  -18340358.01747 -12780008.36861
  17010683.0274  -39383229.27648 -27263830.04662
 91  5  1  1  9 14.9880000  0  4G 2G 6G12G13
  19249480.3244   -9337934.30946    760664.96961
  18635073.2854  -17232166.32146   2104716.27461
  18701417.9184  -18401772.34247 -12827863.65961
  17010395.8564  -39384735.89448 -27265004.03862
 91  5  1  1  9 29.9880000  0  4G 2G 6G12G13
  19251748.4184   -9326015.55746    769952.27161
  18640158.3484  -17205444.98446   2125538.02661
  18689747.5274  -18463097.92347 -12875649.80661
  17010127.0744  -39386149.17148 -27266105.29162
 91  5  1  1  9 44.9880000  0  4G 2G 6G12G13
  19254031.2544   -9314027.88946    779293.26561
  18645262.6294  -17178612.29746   2146446.55561
  18678095.4264  -18524332.19347 -12923364.79061
  17009877.2074  -39387466.95348 -27267132.14562
 91  5  1  1  9 59.9880000  0  4G 2G 6G12G13
  19256325.5904   -9301970.87046    788688.29661
  18650389.6294  -17151667.80646   2167442.19961
  18666457.7704  -18585474.08047 -12971007.79261
  17009645.0204  -39388688.92248 -27268084.33562
 91  5  1  1 10 14.9880000  0  4G 2G 6G12G13
  19258633.6454   -9289841.25146    798139.91161
  18655542.7854  -17124608.72346   2188527.14161
  18654840.6064  -18646520.02246 -13018576.02961
  17009431.9494  -39389812.06248 -27268959.50762
 91  5  1  1 10 29.9880000  0  4G 2G 6G12G13
  19260953.0744   -9277639.91646    807647.40561
  18660712.4964  -17097436.14146   2209700.51261
  18643244.8244  -18707470.57447 -13066069.93761
  17009235.2154  -39390837.68448 -27269758.69962
 91  5  1  1 10 44.9880000  0  4G 2G 6G12G13
  19263290.6924   -9265365.86146    817211.55261
  18665904.5204  -17070149.54046   2230962.75061
  18631663.5274  -18768324.52847 -13113488.57461
  17009057.2544  -39391765.23248 -27270481.47062
 91  5  1  1 10 59.9880000  0  4G 2G 6G12G13
  19265640.1294   -9253021.63046    826830.38961
  18671117.5274  -17042751.66846   2252311.67561
  18620101.3564  -18829083.90847 -13160833.51461
  17008900.2544  -39392597.51948 -27271130.01362
 91  5  1  1 11 14.9880000  0  4G 2G 6G12G13
  19268001.9814   -9240611.04446    836500.93461
  18676351.1214  -17015246.55646   2273744.17661
  18608557.2234  -18889752.25647 -13208107.51161
  17008758.9184  -39393338.80348 -27271707.64862
 91  5  1  1 11 29.9880000  0  4G 2G 6G12G13
  19270377.2464   -9228133.62446    846223.55061
  18681607.1924  -16987634.00446   2295260.38061
  18597029.9344  -18950328.63047 -13255309.85761
  17008635.6214  -39393988.61148 -27272213.99962
 91  5  1  1 11 44.9880000  0  4G 2G 6G12G13
  19272760.5354   -9215582.11146    856003.89861
  18686882.6994  -16959907.20046   2316865.62661
  18585523.4344  -19010805.58347 -13302434.72161
  17008529.3174  -39394540.01648 -27272643.66562
 91  5  1  1 11 59.9880000  0  4G 2G 6G12G13
  19275166.9654   -9202954.98046    865843.18261
  18692183.2774  -16932064.72946   2338560.98961
  18574033.2464  -19071180.97247 -13349480.43861
  17008446.1374  -39394991.81148 -27272995.71662
 91  5  1  1 12 14.9880000  0  4G 2G 6G12G13
  19277584.0744   -9190259.40346    875735.79061
  18697500.0124  -16904114.03546   2360340.68461
  18562563.0514  -19131461.60947 -13396452.33161
  17008376.2314  -39395351.52548 -27273276.02162
 91  5  1  1 12 29.9870000  0  4G 2G 6G12G13
  19280010.8594   -9177495.91746    885681.30861
  18702838.2884  -16876057.15746   2382203.12561
  18551110.7964  -19191643.01047 -13443346.89261
  17008325.2024  -39395619.14248 -27273484.56062
 91  5  1  1 12 44.9870000  0  4G 2G 6G12G13
  19282452.5384   -9164663.93546    895680.21761
  18708199.0464  -16847891.67646   2404150.19961
  18539674.0384  -19251733.93947 -13490170.96961
  17008293.9764  -39395796.13848
 91  5  1  1 12 59.9870000  0  4G 2G 6G12G13
  19284909.3124   -9151768.61246    905728.47661
  18713579.1404  -16819623.96146   2426176.93361
  18528256.4444  -19311734.24947 -13536924.42361
  17008272.4054  -39395886.93748
 91  5  1  1 13 14.9870000  0  4G 2G 6G12G13
  19287370.1714   -9138805.82546    915829.28761
  18718979.3124  -16791250.12246   2448286.36061
  18516856.9294  -19371639.40047 -13583603.72461
  17008273.5384  -39395887.65048
 91  5  1  1 13 29.9870000  0  4G 2G 6G12G13
  19289854.0694   -9125771.85646    925985.60461
  18724396.9604  -16762766.94046   2470480.97661
  18505473.7184  -19431445.42647 -13630205.77961
  17008293.7104  -39395794.88848
 91  5  1  1 13 44.9870000  0  4G 2G 6G12G13
  19292348.5854   -9112667.93146    936196.41161
  18729839.1714  -16734175.84046   2492759.69961
  18494113.6634  -19491153.06247 -13676731.15661
  17008328.2734  -39395610.21848
 91  5  1  1 13 59.9870000  0  4G 2G 6G12G13
  19294856.2414   -9099489.61246    946465.16161
  18735300.2734  -16705472.56946   2515125.81561
  18482773.1014  -19550757.41547 -13723176.06561
  17008379.3044  -39395329.33848
 91  5  1  1 14 14.9870000  0  4G 2G 6G12G13
  19297376.5544   -9086240.68946    956788.93861
  18740783.4764  -16676661.33846   2537576.05861
  18471448.9764  -19610262.08647 -13769543.30661
  17008451.4374  -39394956.54848        -0.30072
 91  5  1  1 14 29.9870000  0  4G 2G 6G12G13
  19299910.1634   -9072925.49746    967164.35161
  18746287.1244  -16647746.78246   2560106.81261
  18460142.8594  -19669671.03847 -13815835.97361
  17008538.8594  -39394496.34948       358.28862
 91  5  1  1 14 44.9870000  0  4G 2G 6G12G13
  19302459.6554   -9059540.96246    977593.80261
  18751809.3664  -16618726.10546   2582720.25661
  18448856.8664  -19728980.84747 -13862051.37361
  17008642.6164  -39393946.04948       787.08962
 91  5  1  1 14 59.9870000  0  4G 2G 6G12G13
  19305018.8274   -9046087.84246    988076.70061
  18757351.7574  -16589600.45346   2605415.50761
  18437590.3124  -19788191.88347 -13908189.80161
  17008765.7104  -39393306.69848      1285.27462
 91  5  1  1 15 14.9870000  0  4G 2G 6G12G13
  19307588.8434   -9032562.37546    998615.95261
  18762913.4374  -16560366.13146   2628195.42761
  18426342.2574  -19847299.96047 -13954247.98961
  17008903.9374  -39392574.68148      1855.66662
 91  5  1  1 15 29.9870000  0  4G 2G 6G12G13
  19310178.1634   -9018963.88046   1009212.12361
  18768497.8744  -16531022.82546   2651060.27261
  18415113.6714  -19906303.95047 -14000225.08861
  17009063.6164  -39391749.52648      2498.63662
 91  5  1  1 15 44.9870000  0  4G 2G 6G12G13
  19312781.6244   -9005298.85946   1019860.14461
  18774101.3434  -16501577.20546   2674004.83661
  18403904.3434  -19965210.00247 -14046125.87461
  17009235.6484  -39390837.83048      3209.04162
 91  5  1  1 15 59.9870000  0  4G 2G 6G12G13
  19315393.2494   -8991564.37346   1030562.30161
  18779723.7574  -16472026.85146   2697031.02461
  18392712.5384  -20024014.81947 -14091947.77661
  17009425.4844  -39389837.24648      3988.70662
 91  5  1  1 16 14.9870000  0  4G 2G 6G12G13
  19318016.4844   -8977761.82745   1041317.49861
  18785367.2804  -16442373.31546   2720137.60061
  18381541.8194  -20082719.63247 -14137691.75661
  17009632.3354  -39388749.73548      4836.10662
 91  5  1  1 16 29.9870000  0  4G 2G 6G12G13
  19320659.6244   -8963895.04546   1052122.72061
  18791027.8744  -16412620.87946   2743321.24361
  18370391.3044  -20141327.84247 -14183360.45361
  17009856.2184  -39387579.16548      5748.22862
 91  5  1  1 16 44.9870000  0  4G 2G 6G12G13
  19323310.8664   -8949959.61246   1062981.42661
  18796709.5464  -16382765.21646   2766585.32761
  18359257.4764  -20199834.62047 -14228950.10261
  17010094.3594  -39386321.33348      6728.34962
 91  5  1  1 16 59.9870000  0  4G 2G 6G12G13
  19325976.6484   -8935957.75046   1073891.90261
  18802410.6634  -16352809.10246   2789927.68161
  18348142.4914  -20258241.94447 -14274462.26062
  17010349.0694  -39384978.88548      7774.40262
 91  5  1  1 17 14.9870000  0  4G 2G 6G12G13
  19328654.4914   -8921886.84446   1084856.17761
  18808131.4684  -16322750.01646   2813350.27261
  18337046.9054  -20316546.74447 -14319894.53961
  17010622.1324  -39383549.26148      8888.37862
 91  5  1  1 17 29.9870000  0  4G 2G 6G12G13
  19331345.0544   -8907745.47146   1095875.36961
  18813870.9294  -16292586.83546   2836853.98061
  18325971.1634  -20374747.22647 -14365245.52862
  17010910.9134  -39382031.28348     10071.20662
 91  5  1  1 17 44.9870000  0  4G 2G 6G12G13
  19334045.6244   -8893536.84546   1106946.97861
  18819629.4294  -16262323.21646   2860435.92961
  18314913.9374  -20432846.22747 -14410517.44661
  17011215.5384  -39380428.71848     11319.95262
 91  5  1  1 17 59.9870000  0  4G 2G 6G12G13
  19336763.3194   -8879261.68246   1118070.40561
  18825406.3434  -16231959.86046   2884095.62361
  18303878.8594  -20490843.89547 -14455710.40461
  17011536.3434  -39378742.28348     12634.04062
 91  5  1  1 18 14.9870000  0  4G 2G 6G12G13
  19339495.2494   -8864912.79746   1129251.27361
  18831206.4764  -16201490.05346   2907838.26661
  18292863.1164  -20548732.99947 -14500818.75761
  17011875.8514  -39376965.06348     14018.87462
 91  5  1  1 18 29.9870000  0  4G 2G 6G12G13
  19342238.4134   -8850495.44846   1140485.50161
  18837022.2574  -16170919.34146   2931659.51061
  18281867.8354  -20606518.33647 -14545846.27261
  17012228.2884  -39375102.70648     15470.04362
 91  5  1  1 18 44.9870000  0  4G 2G 6G12G13
  19344991.7104   -8836012.45946   1151770.87361
  18842858.3824  -16140250.85446   2955556.96361
  18270889.9294  -20664202.24147 -14590794.72962
  17012599.1874  -39373158.21948     16985.21762
 91  5  1  1 18 59.9870000  0  4G 2G 6G12G13
  19347765.7734   -8821457.93146   1163112.01861
  18848714.6944  -16109479.00646   2979534.94461
  18259933.7264  -20721778.50547 -14635659.32262
  17012985.4134  -39371126.20847     18568.58962
 91  5  1  1 19 14.9870000  0  4G 2G 6G12G13
  19350547.3744   -8806838.37346   1174503.81261
  18854588.2654  -16078610.61046   3003588.15561
  18248996.0154  -20779253.29247 -14680444.84962
  17013388.4914  -39369013.21548     20215.06062
 91  5  1  1 19 29.9870000  0  4G 2G 6G12G13
  19353342.8904   -8792148.35946   1185950.51561
  18860482.8434  -16047640.55146   3027720.59261
  18238078.3044  -20836620.71447 -14725146.69662
  17013806.1244  -39366814.07348     21928.66462
 91  5  1  1 19 44.9870000  0  4G 2G 6G12G13
  19356150.1324   -8777386.50246   1197453.18461
  18866394.8904  -16016567.60046   3051933.18861
  18227182.3594  -20893879.02247 -14769763.52462
  17014241.8824  -39364527.96648     23710.03362
 91  5  1  1 19 59.9870000  0  4G 2G 6G12G13
  19358973.0384   -8762556.93146   1209008.62761
  18872328.6324  -15985396.29946   3076222.45061
  18216306.1324  -20951032.02847 -14814298.29962
  17014692.6404  -39362158.98248     25555.97862
 91  5  1  1 20 14.9870000  0  4G 2G 6G12G13
  19361805.5384   -8747662.33246   1220614.73161
  18878274.6554  -15954129.63946   3100585.99561
  18205451.0074  -21008082.15547 -14858752.92662
  17015160.0544  -39359710.30348     27464.02662
 91  5  1  1 20 29.9870000  0  4G 2G 6G12G13
  19364652.8514   -8732696.17445   1232276.58661
  18884247.7414  -15922761.34546   3125028.74261
  18194615.8664  -21065022.35147 -14903121.88562
  17015641.4374  -39357175.52448     29439.17162
 91  5  1  1 20 44.9870000  0  4G 2G 6G12G13
  19367520.6244   -8717660.22246   1243992.84261
  18890237.4844  -15891293.66946   3149548.92561
  18183801.9764  -21121854.24347 -14947406.45162
  17016139.0544  -39354557.01548     31479.55762
 91  5  1  1 20 59.9870000  0  4G 2G 6G12G13
  19370388.9994   -8702554.32046   1255763.59761
  18896242.9294  -15859726.59746   3174146.55561
  18173007.7344  -21178577.15247 -14991606.09062
  17016654.2104  -39351854.57348     33585.34662
 91  5  1  1 21 14.9870000  0  4G 2G 6G12G13
  19373282.8434   -8687378.52146   1267588.83661
  18902267.8514  -15828060.43046   3198821.41461
  18162233.4914  -21235190.54047 -15035720.38362
  17017183.1324  -39349068.46048     35756.33062
 91  5  1  1 21 29.9870000  0  4G 2G 6G12G13
  19376180.5074   -8672132.01546   1279469.15461
  18908312.9914  -15796294.64646   3223573.88961
  18151481.9134  -21291693.40847 -15079748.56362
  17017730.4994  -39346198.32348     37992.78962
 91  5  1  1 21 44.9870000  0  4G 2G 6G12G13
  19379098.2104   -8656821.28646   1291399.52461
  18914374.7494  -15764436.12446   3248398.62461
  18140749.7414  -21348091.91047 -15123695.42062
  17018291.2804  -39343250.79148     40289.56762
 91  5  1  1 21 59.9870000  0  4G 2G 6G12G13
  19382022.9914   -8641439.65546   1303385.14861
  18920455.4214  -15732478.49046   3273300.58761
  18130038.6484  -21404378.93047 -15167555.41662
  17018866.8824  -39340219.54048     42651.57262
 91  5  1  1 22 14.9870000  0  4G 2G 6G12G13
  19384961.3354   -8625987.48045   1315425.72461
  18926557.8274  -15700422.28946   3298279.35161
  18119348.8664  -21460554.57547 -15211328.61762
  17019461.7884  -39337105.18248     45078.32162
 91  5  1  1 22 29.9870000  0  4G 2G 6G12G13
  19387913.3744   -8610469.58645   1327517.51361
  18932675.2024  -15668272.66446   3323330.92061
  18108680.5544  -21516623.16447 -15255018.39262
  17020067.9294  -39333912.93348     47565.78262
 91  5  1  1 22 44.9870000  0  4G 2G 6G12G13
  19390878.9604   -8594882.30045   1339663.36661
  18938811.4994  -15636026.32446   3348457.85661
  18098032.2574  -21572580.72147 -15298621.66062
  17020691.1634  -39330639.37448     50116.59662
 91  5  1  1 22 59.9870000  0  4G 2G 6G12G13
  19393859.0234   -8579231.40045   1351858.79461
  18944965.9994  -15603689.42346   3373655.34561
  18087403.0234  -21628432.68647 -15342142.64362
  17021328.2574  -39327290.48448     52726.11062
 91  5  1  1 23 14.9870000  0  4G 2G 6G12G13
  19396847.7184   -8563510.57345   1364108.73061
  18951137.2574  -15571255.77946   3398928.23161
  18076795.8514  -21684172.22247 -15385576.01362
  17021980.3594  -39323860.09648     55399.13362
 91  5  1  1 23 29.9870000  0  4G 2G 6G12G13
  19399856.7964   -8547724.75345   1376409.31661
  18957325.3514  -15538730.72046   3424272.34061
  18066208.8664  -21739803.95647 -15428925.39462
  17022647.8664  -39320353.43548     58131.58562
 91  5  1  1 23 44.9870000  0  4G 2G 6G12G13
  19402871.8824   -8531873.95645   1388760.53161
  18963535.1404  -15506114.40146   3449687.57161
  18055644.4764  -21795327.54647 -15472190.50262
  17023330.3664  -39316770.87848     60923.18062
 91  5  1  1 23 59.9870000  0  4G 2G 6G12G13
  19405904.0544   -8515954.06146   1401165.58261
  18969759.2104  -15473403.16646   3475176.74861
  18045098.6324  -21850738.55447 -15515367.88562
  17024026.8194  -39313108.39548     63777.05362
 91  5  1  1 24 14.9870000  0  4G 2G 6G12G13
  19408944.8124   -8499965.72746   1413623.93161
  18976002.2104  -15440597.93446   3500739.18361
  18034574.5624  -21906037.25147 -15558457.74762
  17024739.0854  -39309367.03448     66692.39262
 91  5  1  1 24 29.9870000  0  4G 2G 6G12G13
  19412000.4524   -8483907.18246   1426137.01761
  18982263.4684  -15407697.12946   3526376.08361
  18024075.3664  -21961221.40047 -15601458.35662
  17025467.4844  -39305545.10248     69670.52462
 91  5  1  1 24 44.9870000  0  4G 2G 6G12G13
  19415070.2964   -8467782.95546   1438701.30461
  18988538.7024  -15374705.85246   3552083.47961
  18013594.6554  -22016295.23647 -15644373.00362
  17026208.2344  -39301647.54848     72707.56362
 91  5  1  1 24 59.9870000  0  4G 2G 6G12G13
  19418150.1794   -8451591.20546   1451318.20261
  18994834.8434  -15341622.21546   3577862.84661
  18003134.8664  -22071256.54447 -15687199.97462
  17026964.9994  -39297672.65948     75804.88062
 91  5  1  1 25 14.9870000  0  4G 2G 6G12G13
  19421241.3744   -8435332.16045   1463987.53161
  19001149.0624  -15308446.91746   3603713.64361
  17992700.0934  -22126105.26747 -15729939.21762
  17027734.4134  -39293621.03848     78961.98162
 91  5  1  1 25 29.9870000  0  4G 2G 6G12G13
  19424350.3124   -8419003.82545   1476710.81461
  19007476.9134  -15275178.43246   3629637.05661
  17982282.1404  -22180838.97647 -15772588.83262
  17028522.1404  -39289491.18848     82180.03862
 91  5  1  1 25 44.9870000  0  4G 2G 6G12G13
  19427469.6634   -8402606.64945   1489487.78661
  19013826.2654  -15241817.32646   3655632.62361
  17971889.8354  -22235457.84047 -15815148.95762
  17029322.9994  -39285283.67748     85458.61162
 91  5  1  1 25 59.9870000  0  4G 2G 6G12G13
  19430602.7414   -8386140.05045   1502318.83261
  19020195.4444  -15208363.27846   3681700.61261
  17961517.3904  -22289960.79947 -15857618.77562
  17030138.2344  -39280998.09348     88798.02862
 91  5  1  1 26 14.9870000  0  4G 2G 6G12G13
  19433749.4214   -8369605.58645   1515202.79261
  19026577.2494  -15174818.27346   3707839.47561
  17951168.9994  -22344349.03147 -15899999.18762
  17030967.5854  -39276636.42548     92196.72262
 91  5  1  1 26 29.9870000  0  4G 2G 6G12G13
  19436909.6874   -8353000.92245   1528141.41561
  19032977.8664  -15141179.99446   3734051.02461
  17940839.3594  -22398619.68547 -15942287.98462
  17031811.9994  -39272196.19848     95656.63862
 91  5  1  1 26 44.9870000  0  4G 2G 6G12G13
  19440083.4684   -8336328.47845   1541132.86861
  19039396.9214  -15107451.30946   3760333.00861
  17930534.9294  -22452774.95247 -15984486.86962
  17032671.7494  -39267680.33748     99175.48262
 91  5  1  1 26 59.9870000  0  4G 2G 6G12G13
  19443269.2344   -8319590.63545   1554175.28161
  19045832.3124  -15073634.99046   3786683.28861
  17920250.2964  -22506816.86447 -16026597.42162
  17033545.9764  -39263091.60948    102751.11662
 91  5  1  1 27 14.9870000  0  4G 2G 6G12G13
  19446466.3044   -8302784.98945   1567270.52261
  19052282.4524  -15039729.00746   3813103.43861
  17909989.4914  -22560742.67247 -16068617.51362
  17034432.9444  -39258427.90948    106385.17262
 91  5  1  1 27 29.9870000  0  4G 2G 6G12G13
  19449676.9444   -8285912.81645   1580417.62661
  19058756.4444  -15005734.79046   3839592.34061
  17899749.4524  -22614553.28447 -16110547.83462
  17035333.8904  -39253690.71348    110076.48862
 91  5  1  1 27 44.9870000  0  4G 2G 6G12G13
  19452897.1014   -8268977.08645   1593614.25361
  19065236.6014  -14971655.76246   3866147.33861
  17889531.3124  -22668251.28447 -16152390.40862
  17036249.0694  -39248883.29548    113822.51962
 91  5  1  1 27 59.9870000  0  4G 2G 6G12G13
  19456137.3984   -8251979.75745   1606858.86561
  19071740.1484  -14937494.07646   3892766.73461
  17879335.8664  -22721838.20647 -16194146.42962
  17037175.3904  -39244007.54648    117621.79062
 91  5  1  1 28 14.9870000  0  4G 2G 6G12G13
  19459383.8354   -8234911.26445   1620158.91961
  19078260.0774  -14903240.44146   3919457.77761
  17869157.1404  -22775304.08047 -16235808.12462
  17038119.4524  -39239054.09848    121481.60962
 91  5  1  1 28 29.9870000  0  4G 2G 6G12G13
  19462642.9684   -8217771.58945   1633514.46361
  19084790.0694  -14868895.11945   3946220.24761
  17859007.3434  -22828648.69647 -16277375.33562
  17039077.3434  -39234023.47448    125401.57162
 91  5  1  1 28 44.9870000  0  4G 2G 6G12G13
  19465922.1874   -8200560.29845   1646925.80861
  19091346.8904  -14834458.07846   3973054.21661
  17848879.7884  -22881871.16147 -16318847.35362
  17040049.1874  -39228915.37248    129381.90862
 91  5  1  1 28 59.9870000  0  4G 2G 6G12G13
  19469205.4444   -8183282.00645   1660389.32361
  19097918.7734  -14799934.24846   3999955.80361
  17838775.7494  -22934975.73147 -16360227.50262
  17041035.1164  -39223734.79748    133418.71462
 91  5  1  1 29 14.9870000  0  4G 2G 6G12G13
  19472510.1094   -8165939.82645   1673902.66561
  19104500.3904  -14765327.01746   4026922.36261
  17828691.3664  -22987965.11347 -16401517.92362
  17042033.5074  -39218485.15548    137509.33462
 91  5  1  1 29 29.9870000  0  4G 2G 6G12G13
  19475820.6244   -8148529.83445   1687468.82761
  19111102.4444  -14730632.66445   4053956.82661
  17818630.1404  -23040834.95747 -16442715.17362
  17043046.8434  -39213162.42548    141656.91162
 91  5  1  1 29 44.9870000  0  4G 2G 6G12G13
  19479140.9844   -8131052.47245   1701087.48261
  19117719.8274  -14695851.94645   4081058.57961
  17808593.1244  -23093585.26847 -16483819.28262
  17044072.5304  -39207767.44648    145860.77862
 91  5  1  1 29 59.9870000  0  4G 2G 6G12G13
  19482487.6794   -8113509.70145   1714757.13061
  19124357.6634  -14660987.17646   4108225.84261
  17798576.6794  -23146217.77047 -16524831.60162
  17045113.0074  -39202302.52248    150119.15362
 91  5  1  1 30 14.9870000  0  4G 2G 6G12G13
  19485834.3044   -8095898.34245   1728480.20761
  19131008.8824  -14626035.41646   4135460.87261
  17788585.0154  -23198728.87647 -16565749.32462
  17046166.9844  -39196764.72448    154434.31362
 91  5  1  1 30 29.9870000  0  4G 2G 6G12G13
  19489201.9444   -8078223.08745   1742253.07361
  19137678.1714  -14591001.85246   4162759.65261
  17778614.5544  -23251122.96547 -16606575.86062
  17047233.7884  -39191159.02348    158802.40062
 91  5  1  1 30 44.9870000  0  4G 2G 6G12G13
  19492577.6554   -8060483.56845   1756076.00861
  19144356.7024  -14555886.15945   4190122.43461
  17768665.7344  -23303399.25247 -16647310.58862
  17048312.3194  -39185485.07048    163223.65662
 91  5  1  1 30 59.9870000  0  4G 2G 6G12G13
  19495965.1634   -8042673.64745   1769953.81661
  19151058.2184  -14520682.43945   4217553.78561
  17758740.8354  -23355551.02347 -16687948.31562
  17049406.5694  -39179736.97148    167702.68462
 91  5  1  1 31 14.9870000  0  4G 2G 6G12G13
  19499365.0154   -8024794.67645   1783885.42461
  19157770.5304  -14485392.57845   4245052.27661
  17748840.9914  -23407579.46447 -16728489.92662
  17050513.6094  -39173916.35948    172238.21262
 91  5  1  1 31 29.9860000  0  4G 2G 6G12G13
  19502784.8694   -8006850.26745   1797868.04161
  19164502.6974  -14450021.48046   4272614.07161
  17738964.8774  -23459483.01647 -16768934.22962
  17051635.4554  -39168026.21848    176827.92862
 91  5  1  1 31 44.9860000  0  4G 2G 6G12G13
  19506212.1194   -7988838.04645   1811903.47661
  19171252.2294  -14414564.91346   4300242.49161
  17729110.6514  -23511268.35447 -16809286.41562
  17052769.8854  -39162066.17448    181472.12162
 91  5  1  1 31 59.9860000  0  4G 2G 6G12G13
  19509650.9554   -7970758.39745   1825991.46961
  19178014.0414  -14379024.69146   4327936.05161
  17719280.6354  -23562930.87647 -16849542.90062
  17053918.1354  -39156036.45348    186170.60762
 91  5  1  1 32 14.9860000  0  4G 2G 6G12G13
  19513101.5334   -7952611.29145   1840132.01461
  19184792.4164  -14343401.04946   4355694.63161
  17709470.5654  -23614470.05947 -16889703.28262
  17055075.6354  -39149936.88247    190923.49962
 91  5  1  1 32 29.9860000  0  4G 2G 6G12G13
  19516569.4404   -7934392.59145   1854328.35061
  19191585.9944  -14307690.14245   4383521.21061
  17699688.2134  -23665881.53447 -16929764.14162
  17056251.9794  -39143763.66948    195733.78062
 91  5  1  1 32 44.9860000  0  4G 2G 6G12G13
  19520049.7054   -7916107.51845   1868576.40661
  19198399.7214  -14271897.58745   4411411.39461
  17689927.6194  -23717170.15947 -16969729.28262
  17057439.8934  -39137522.17148    200597.28362
 91  5  1  1 32 59.9860000  0  4G 2G 6G12G13
  19523541.7994   -7897756.88245   1882875.54961
  19205223.9864  -14236024.45145   4439364.39261
  17680190.6744  -23768336.40347 -17009599.04762
  17058641.8074  -39131213.50448    205513.12762
 91  5  1  1 33 14.9860000  0  4G 2G 6G12G13
  19527046.6974   -7879338.52545   1897227.44961
  19212068.7834  -14200068.82545   4467381.67061
  17670478.3544  -23819377.68847 -17049371.45862
  17059854.3074  -39124835.71248    210482.82562
 91  5  1  1 33 29.9860000  0  4G 2G 6G12G13
  19530564.9714   -7860854.07646   1911630.87361
  19218928.9714  -14164032.61745   4495461.70661
  17660790.4324  -23870295.22047 -17089047.43662
  17061080.5494  -39118390.54748    215505.00562
 91  5  1  1 33 44.9860000  0  4G 2G 6G12G13
  19534097.0494   -7842301.61846   1926087.28361
  19225799.6664  -14127914.36245   4523605.69561
  17651125.0494  -23921086.86747 -17128625.32262
  17062319.9634  -39111876.36148    220580.98262
 91  5  1  1 33 59.9860000  0  4G 2G 6G12G13
  19537636.6514   -7823684.55145   1940594.02961
  19232688.5654  -14091717.62845   4551810.84161
  17641482.1974  -23971755.42647 -17168107.30362
  17063572.8304  -39105296.73148    225707.96162
 91  5  1  1 34 14.9860000  0  4G 2G 6G12G13
  19541193.0494   -7805001.46145   1955152.23361
  19239587.8074  -14055441.33545   4580077.97861
  17631861.9474  -24022299.23747 -17207492.07162
  17064838.6194  -39098650.55148    230886.80462
 91  5  1  1 34 29.9860000  0  4G 2G 6G12G13
  19544762.6044   -7786255.80045   1969759.19661
  19246507.2764  -14019089.18945   4608404.21361
  17622268.9164  -24072721.24247 -17246781.92062
  17066114.9084  -39091941.61248    236114.54362
 91  5  1  1 34 44.9860000  0  4G 2G 6G12G13
  19548338.6514   -7767441.76545   1984419.42761
  19253439.2444  -13982655.82445   4636793.74861
  17612699.9794  -24123015.46747 -17285972.20162
  17067402.1664  -39085164.31748    241395.54462
 91  5  1  1 34 59.9860000  0  4G 2G 6G12G13
  19551930.5414   -7748557.73945   1999134.20561
  19260391.7134  -13946139.77245   4665247.69561
  17603152.6744  -24173179.85147 -17325061.31362
  17068706.8224  -39078317.23848    246730.91962
 91  5  1  1 35 14.9860000  0  4G 2G 6G12G13
  19555545.4474   -7729603.58046   2013903.63261
  19267353.6434  -13909541.27945   4693765.87261
  17593629.8074  -24223213.87847 -17364048.85462
  17070022.6194  -39071400.60248    252120.49062
 91  5  1  1 35 29.9860000  0  4G 2G 6G12G13
  19559157.3304   -7710579.46745   2028727.56261
  19274333.7914  -13872860.65345   4722348.06961
  17584134.4244  -24273117.29347 -17402934.60562
  17071352.8614  -39064414.59748    257564.12262
 91  5  1  1 35 44.9860000  0  4G 2G 6G12G13
  19562793.2834   -7691488.11045   2043603.92061
  19281328.0024  -13836100.99345   4750991.84861
  17574662.2914  -24322892.35647 -17441720.35462
  17072693.7294  -39057362.13348    263059.54161
 91  5  1  1 35 59.9860000  0  4G 2G 6G12G13
  19566439.1274   -7672329.49945   2058532.64961
  19288342.8544  -13799262.68945   4779696.89661
  17565214.5414  -24372538.91647 -17480405.96062
  17074047.4634  -39050243.43148    268606.58362
 91  5  1  1 36 14.9860000  0  4G 2G 6G12G13
  19570096.6824   -7653101.01045   2073515.82561
  19295368.6664  -13762343.37745   4808465.06661
  17555793.4554  -24422054.03247 -17518989.15062
  17075416.0104  -39043056.31748    274206.93362
 91  5  1  1 36 29.9860000  0  4G 2G 6G12G13
  19573771.4164   -7633806.10945   2088550.77961
  19302401.9084  -13725346.78845   4837293.45961
  17546395.1744  -24471440.66547 -17557472.22262
  17076797.7134  -39035804.54248    279857.65862
 91  5  1  1 36 44.9860000  0  4G 2G 6G12G13
  19577452.9324   -7614447.18545   2103635.57161
  19309462.3854  -13688275.59545   4866179.98961
  17537019.3544  -24520700.78947 -17595856.71662
  17078187.7294  -39028490.52048    285556.87162
 91  5  1  1 36 59.9860000  0  4G 2G 6G12G13
  19581152.6904   -7595019.42245   2118774.03661
  19316535.5184  -13651125.30545   4895128.14061
  17527672.6584  -24569829.26447 -17634138.63962
  17079593.2054  -39021109.62548    291308.20462
 91  5  1  1 37 14.9860000  0  4G 2G 6G12G13
  19584861.4944   -7575522.82445   2133966.13461
  19323615.4474  -13613896.22945   4924137.67861
  17518349.6274  -24618825.74847 -17672317.69862
  17081012.1274  -39013662.06848    297111.49162
 91  5  1  1 37 29.9860000  0  4G 2G 6G12G13
  19588584.7444   -7555960.29045   2149209.65561
  19330712.8304  -13576591.51245   4953206.16561
  17509048.7294  -24667692.63747 -17710395.77562
  17082439.4324  -39006151.22648    302964.09662
 91  5  1  1 37 44.9860000  0  4G 2G 6G12G13
  19592316.5334   -7536328.76245   2164506.87361
  19337825.7524  -13539208.50945   4982335.65761
  17499777.1824  -24716426.68648 -17748370.35062
  17083880.2444  -38998574.15148    308868.30962
 91  5  1  1 37 59.9860000  0  4G 2G 6G12G13
  19596066.0184   -7516630.14845   2179856.38161
  19344958.2524  -13501749.36545   5011524.47761
  17490525.1904  -24765029.31047 -17786242.50562
  17085335.9944  -38990932.86448    314822.54062
 91  5  1  1 38 14.9860000  0  4G 2G 6G12G13
  19599826.4014   -7496863.22345   2195259.13561
  19352099.9014  -13464213.00145   5040773.45761
  17481303.3854  -24813498.86247 -17824010.96862
  17086800.7524  -38983226.32448    320827.61562
 91  5  1  1 38 29.9860000  0  4G 2G 6G12G13
  19603607.6194   -7477029.63545   2210713.81861
  19359256.6664  -13426601.62145   5070080.89661
  17472104.1274  -24861836.72047 -17861676.82162
  17088280.0414  -38975456.48348    326882.02462
 91  5  1  1 38 44.9860000  0  4G 2G 6G12G13
  19607388.9554   -7457132.59445   2226217.92261
  19366425.0494  -13388918.66045   5099444.13061
  17462931.9474  -24910045.97047 -17899242.44962
  17089771.5334  -38967626.79648    332983.07162
 91  5  1  1 38 59.9860000  0  4G 2G 6G12G13
  19611189.0804   -7437173.34045   2241770.56861
  19373616.0724  -13351165.64445   5128861.94261
  17453781.8304  -24958127.32847 -17936708.42362
  17091270.9244  -38959738.80748    339129.54162
 91  5  1  1 39 14.9860000  0  4G 2G 6G12G13
  19614998.4324   -7417143.57545   2257378.09761
  19380812.5414  -13313334.67645   5158340.49161
  17444656.8694  -25006072.18647 -17974068.04662
  17092785.2604  -38951784.29848    345327.84162
 91  5  1  1 39 29.9860000  0  4G 2G 6G12G13
  19618830.0104   -7397042.24545   2273041.40361
  19388023.3544  -13275424.95345   5187880.39661
  17435561.7054  -25053879.22647 -18011320.26262
  17094311.5414  -38943762.45148    351578.61462
 91  5  1  1 39 44.9860000  0  4G 2G 6G12G13
  19622660.4794   -7376874.72145   2288756.31361
  19395254.4324  -13237441.97845   5217477.39761
  17426487.6044  -25101553.07447 -18048468.68762
  17095848.9864  -38935678.83348    357877.52062
 91  5  1  1 39 59.9860000  0  4G 2G 6G12G13
  19626512.0724   -7356638.79045   2304524.52161
  19402491.7524  -13199383.94945   5247132.86861
  17417441.9474  -25149091.30347 -18085511.44962
  17097401.2364  -38927531.56648    364226.02962
 91  5  1  1 40 14.9860000  0  4G 2G 6G12G13
  19630374.8934   -7336335.56745   2320345.14161
  19409751.1664  -13161252.20545   5276845.79061
  17408421.4084  -25196494.61947 -18122449.08062
  17098960.6744  -38919321.88948    370623.17562
 91  5  1  1 40 29.9860000  0  4G 2G 6G12G13
  19634252.7994   -7315965.95045   2336217.51461
  19417018.6904  -13123047.90945   5306615.23161
  17399425.5654  -25243763.50947 -18159281.97562
  17100535.4324  -38911050.78448    377068.18762
 91  5  1  1 40 44.9860000  0  4G 2G 6G12G13
  19638138.3224   -7295531.69845   2352140.23261
  19424304.3854  -13084773.34545   5336439.45961
  17390457.5654  -25290899.59147 -18196011.37662
  17102121.9474  -38902720.51748    383559.29462
 91  5  1  1 40 59.9860000  0  4G 2G 6G12G13
  19642045.8614   -7275028.61145   2368116.61361
  19431601.0184  -13046424.49045   5366321.55961
  17381511.6274  -25337898.18747 -18232633.63662
  17103718.8934  -38894326.94848    390099.72262
 91  5  1  1 41 14.9860000  0  4G 2G 6G12G13
  19645955.8074   -7254455.59945   2384147.47161
  19438911.5184  -13008000.46545   5396262.22861
  17372595.2914  -25384757.74647 -18269147.56162
  17105327.4864  -38885869.29748    396690.08762
 91  5  1  1 41 29.9860000  0  4G 2G 6G12G13
  19649883.4554   -7233814.37545   2400231.47261
  19446237.8694  -12969503.33145   5426259.85461
  17363704.6434  -25431479.60447 -18305554.19462
  17106948.6824  -38877349.47648    403328.90462
 91  5  1  1 41 44.9860000  0  4G 2G 6G12G13
  19653825.6044   -7213104.25745   2416369.17661
  19453582.0414  -12930932.60745   5456314.82761
  17354842.1114  -25478062.66047 -18341852.66062
  17108583.3614  -38868766.79748    410016.70162
 91  5  1  1 41 59.9860000  0  4G 2G 6G12G13
  19657780.6434   -7192327.60545   2432558.72261
  19460933.6664  -12892290.95945   5486425.08161
  17346003.6114  -25524509.03147 -18378044.62262
  17110228.1824  -38860123.70748    416751.58062
 91  5  1  1 42 14.9860000  0  4G 2G 6G12G13
  19661750.8774   -7171481.05245   2448802.76161
  19468300.0724  -12853575.33045   5516592.95661
  17337190.9634  -25570814.93347 -18414127.12662
  17111884.7054  -38851417.29748    423535.79562
 91  5  1  1 42 29.9860000  0  4G 2G 6G12G13
  19665729.3614   -7150569.27945   2465097.56861
  19475683.2134  -12814790.80945   5546814.52061
  17328404.3614  -25616984.81247 -18450103.63462
  17113551.7604  -38842652.50848    430365.49462
 91  5  1  1 42 44.9860000  0  4G 2G 6G12G13
  19669720.5024   -7129590.41945   2481444.64761
  19483073.5024  -12775935.99245   5577090.87561
  17319644.1194  -25663016.61447 -18485972.55362
  17115232.3854  -38833827.72248    437241.92762
 91  5  1  1 42 59.9860000  0  4G 2G 6G12G13
  19673722.9474   -7108547.04145   2497842.05361
  19490483.9634  -12737013.42645   5607420.01361
  17310911.4474  -25708912.27347 -18521735.38662
  17116921.7364  -38824945.38648    444163.22062
 91  5  1  1 43 14.9860000  0  4G 2G 6G12G13
  19677737.0184   -7087439.09645   2514289.71361
  19497902.9634  -12698023.46445   5637801.66961
  17302203.1514  -25754671.43947 -18557391.86362
  17118622.9164  -38816005.99548    451128.97262
 91  5  1  1 43 29.9860000  0  4G 2G 6G12G13
  19681773.8854   -7066264.90345   2530789.02461
  19505337.6584  -12658964.71345   5668236.93261
  17293521.8074  -25800291.94847 -18592940.29562
  17120335.4404  -38807007.86348    458140.48962
 91  5  1  1 43 44.9860000  0  4G 2G 6G12G13
  19685815.1664   -7045021.99945   2547341.89461
  19512784.2604  -12619835.06445   5698727.43561
  17284868.0184  -25845771.13447 -18628378.59962
  17122059.2444  -38797948.95848    465199.36562
 91  5  1  1 43 59.9860000  0  4G 2G 6G12G13
  19689866.8154   -7023713.79745   2563945.63461
  19520239.9944  -12580638.12545   5729270.34061
  17276240.5264  -25891112.05447 -18663709.17162
  17123792.7914  -38788832.74748    472302.89462
 91  5  1  1 44 14.9860000  0  4G 2G 6G12G13
  19693935.6434   -7002337.84245   2580602.13461
  19527711.2684  -12541371.90145   5759867.25261
  17267639.2054  -25936312.09247 -18698929.96262
  17125540.1354  -38779657.04548    479452.77262
 91  5  1  1 44 29.9860000  0  4G 2G 6G12G13
  19698017.2054   -6980894.32945   2597311.31461
  19535195.9324  -12502036.88845   5790517.77761
  17259064.6114  -25981370.97147 -18734040.75962
  17127298.1514  -38770422.23948    486648.72262
 91  5  1  1 44 44.9860000  0  4G 2G 6G12G13
  19702112.0494   -6959384.92045   2614071.83061
  19542690.7834  -12462634.90445   5821220.50861
  17250516.2054  -26026289.96047 -18769042.55062
  17129066.1824  -38761129.88948    493889.50062
 91  5  1  1 44 59.9860000  0  4G 2G 6G12G13
  19706214.8934   -6937813.38445   2630880.76661
  19550208.2444  -12423169.94845   5851972.25661
  17241995.2994  -26071072.39547 -18803937.94462
  17130842.6044  -38751784.10248    501171.92562
 91  5  1  1 45 14.9860000  0  4G 2G 6G12G13
  19710331.0494   -6916176.33745   2647740.76961
  19557732.4864  -12383638.74345   5882775.64061
  17233498.7524  -26115714.32647 -18838723.84862
  17132632.2294  -38742381.81548    508498.36962
 91  5  1  1 45 29.9860000  0  4G 2G 6G12G13
  19714464.2054   -6894472.39645   2664652.88261
  19565261.7134  -12344040.59245   5913631.19761
  17225030.2994  -26160214.25147 -18873399.09162
  17134431.4794  -38732921.89048    515869.73362
 91  5  1  1 45 44.9860000  0  4G 2G 6G12G13
  19718608.7364   -6872700.21545   2681618.15361
  19572805.9864  -12304374.31145   5944539.84461
  17216590.8464  -26204570.43747 -18907962.33462
  17136245.2524  -38723403.02848    523287.00962
 91  5  1  1 45 59.9860000  0  4G 2G 6G12G13
  19722759.8384   -6850860.30145   2698636.19461
  19580372.7134  -12264640.46245   5975501.15161
  17208178.3544  -26248782.89747 -18942413.58762
  17138066.4084  -38713825.76048    530749.80662
 91  5  1  1 46 14.9860000  0  4G 2G 6G12G13
  19726927.9474   -6828957.04245   2715703.61061
  19587946.6434  -12224843.90145   6006511.31061
  17199790.5264  -26292855.74847 -18976756.04762
  17139899.9244  -38704194.66548    538254.54461
 91  5  1  1 46 29.9860000  0  4G 2G 6G12G13
  19731108.6974   -6806989.49745   2732821.13061
  19595532.1974  -12184983.90345   6037570.87761
  17191428.9714  -26336787.73347 -19010988.74862
  17141741.8774  -38694509.40248    545801.50062
 91  5  1  1 46 44.9860000  0  4G 2G 6G12G13
  19735302.8774   -6784954.78645   2749990.97261
  19603126.6664  -12145058.07345   6068681.75161
  17183098.0724  -26380575.71747 -19045109.23062
  17143597.9864  -38684767.14948    553392.86162
 91  5  1  1 46 59.9860000  0  4G 2G 6G12G13
  19739510.2214   -6762853.30445   2767212.86661
  19610735.1974  -12105067.12145   6099843.40561
  17174792.9244  -26424219.72147 -19079117.53062
  17145462.4794  -38674968.44448    561028.20262
 91  5  1  1 47 14.9860000  0  4G 2G 6G12G13
  19743727.4324   -6740689.79345   2784483.08961
  19618363.1904  -12065016.01445   6131051.91561
  17166514.0104  -26467724.15147 -19113017.06362
  17147334.9164  -38665118.52147    568703.45362
 91  5  1  1 47 29.9860000  0  4G 2G 6G12G13
  19747955.2834   -6718455.92345   2801808.11261
  19625995.3774  -12024896.67045   6162313.57461
  17158263.3464  -26511080.35548 -19146801.10462
  17149221.1434  -38655208.86047    576425.25161
 91  5  1  1 47 44.9860000  0  4G 2G 6G12G13
  19752203.1974   -6696160.81445   2819180.88761
  19633637.8384  -11984718.56645   6193621.05561
  17150040.6194  -26554296.98047 -19180476.37362
  17151116.2914  -38645248.54747    584186.52261
 91  5  1  1 47 59.9860000  0  4G 2G 6G12G13
  19756450.3774   -6673804.34645   2836601.45061
  19641296.1744  -11944481.82945   6224974.19161
  17141842.2294  -26597373.69747 -19214042.62462
  17153022.0654  -38635237.83448    591987.06761
 91  5  1  1 48 14.9860000  0  4G 2G 6G12G13
  19760718.7604   -6651385.53445   2854070.56961
  19648966.4014  -11904185.83745   6256373.51361
  17133672.2994  -26640309.13547 -19247498.79062
  17154935.9084  -38625176.08348    599827.39361
 91  5  1  1 48 29.9860000  0  4G 2G 6G12G13
  19764999.2604   -6628900.57645   2871591.25661
  19656644.1044  -11863826.92645   6287821.85461
  17125529.2444  -26683098.99147 -19280841.52162
  17156860.9014  -38615059.59948    607710.37062
 91  5  1  1 48 44.9860000  0  4G 2G 6G12G13
  19769286.7214   -6606352.20745   2889161.35761
  19664338.5724  -11823408.11345   6319316.86961
  17117413.8074  -26725745.72647 -19314072.72362
  17158796.7364  -38604891.21148    615633.78862
 91  5  1  1 48 59.9860000  0  4G 2G 6G12G13
  19773592.6434   -6583735.70245   2906784.56261
  19672043.2834  -11782925.07045   6350861.91761
  17109326.9014  -26768244.28748 -19347188.46062
  17160742.1744  -38594666.53348    623601.05862
 91  5  1  1 49 14.9860000  0  4G 2G 6G12G13
  19777908.7294   -6561055.68245   2924457.26661
  19679757.8544  -11742382.71845   6382453.21761
  17101268.5654  -26810598.99848 -19380192.12162
  17162698.2214  -38584390.50447    631608.33861
 91  5  1  1 49 29.9860000  0  4G 2G 6G12G13
  19782241.0804   -6538310.89945   2942180.38961
  19687486.1584  -11701780.11945   6414091.45561
  17093235.1114  -26852808.14348 -19413082.33862
  17164662.8304  -38574061.84848    639656.63161
 91  5  1  1 49 44.9860000  0  4G 2G 6G12G13
  19786578.1274   -6515500.24045   2959954.86461
  19695225.2134  -11661116.24845   6445777.41061
  17085232.2994  -26894870.20247 -19445857.95362
  17166639.0104  -38563679.44448    647746.81861
 91  5  1  1 49 59.9860000  0  4G 2G 6G12G13
  19790930.3544   -6492621.85945   2977782.13161
  19702973.7524  -11620389.65145   6477512.26361
  17077255.5104  -26936782.95647 -19478517.22662
  17168624.2214  -38553241.79748    655880.05661
 91  5  1  1 50 14.9860000  0  4G 2G 6G12G13
  19795303.0024   -6469678.31145   2995660.17761
  19710730.8774  -11579603.20445   6509293.75561
  17069306.6824  -26978548.88247 -19511062.08862
  17170622.0964  -38542751.81048    664054.08161
 91  5  1  1 50 29.9860000  0  4G 2G 6G12G13
  19799672.7134   -6446669.84445   3013588.78461
  19718506.3934  -11538757.47745   6541121.41861
  17061388.4634  -27020167.70048 -19543492.31762
  17172628.2054  -38532209.65148    672268.73561
 91  5  1  1 50 44.9860000  0  4G 2G 6G12G13
  19804071.4864   -6423600.47845   3031564.89761
  19726286.5024  -11497856.53645   6572992.14361
  17053494.8614  -27061643.03847 -19575810.74362
  17174642.3154  -38521619.51947    680520.77361
 91  5  1  1 50 59.9860000  0  4G 2G 6G12G13
  19808472.2364   -6400466.18845   3049591.49961
  19734086.7524  -11456896.85345   6604908.61361
  17045630.1974  -27102970.66047 -19608014.06962
  17176666.6514  -38510977.63648    688813.13861
 91  5  1  1 51 14.9860000  0  4G 2G 6G12G13
  19812885.0884   -6377268.65145   3067667.44661
  19741891.7914  -11415880.36345   6636869.34861
  17037795.7444  -27144151.91047 -19640103.33762
  17178703.3224  -38500285.92848    697144.32061
 91  5  1  1 51 29.9850000  0  4G 2G 6G12G13
  19817312.9974   -6354001.91545   3085797.35161
  19749710.0054  -11374802.33245   6668878.01561
  17029987.9894  -27185176.07947 -19672070.20662
  17180750.2474  -38489537.62448    705519.61161
 91  5  1  1 51 44.9850000  0  4G 2G 6G12G13
  19821753.8574   -6330664.33345   3103982.41161
  19757536.0914  -11333659.48445   6700937.20361
  17022209.5214  -27226049.84547 -19703919.88862
  17182803.0364  -38478733.00748    713938.79361
 91  5  1  1 51 59.9850000  0  4G 2G 6G12G13
  19826204.0604   -6307259.19544   3122220.15861
  19765377.9664  -11292456.24845   6733043.47961
  17014459.0994  -27266771.84247 -19735651.29762
  17184869.6934  -38467874.74548    722399.76561
 91  5  1  1 52 14.9850000  0  4G 2G 6G12G13
  19830669.1854   -6283790.70343   3140507.23961
  19773230.0054  -11251197.27245   6765193.14861
  17006738.8174  -27307346.02148 -19767267.52263
  17186945.2394  -38456967.20348    730899.13961
 91  5  1  1 52 29.9850000  0  4G 2G 6G12G13
  19835150.4274   -6260261.48444   3158841.62061
  19781085.7944  -11209885.51344   6797383.94461
  16999045.9584  -27347774.64048 -19798770.33162
  17189029.7554  -38446013.06248    739434.81761
 91  5  1  1 52 44.9850000  0  4G 2G 6G12G13
  19839640.1534   -6236669.06244   3177225.25661
  19788957.7474  -11168518.64544   6829617.69961
  16991380.5994  -27388054.90547 -19830157.54262
  17191123.7324  -38435010.12448    748008.53061
 91  5  1  1 52 59.9850000  0  4G 2G 6G12G13
  19844144.6224   -6213013.26944   3195658.29561
  19796843.7554  -11127096.78244   6861894.30661
  16983743.9034  -27428186.07047 -19861428.57363
  17193227.5604  -38423958.21148    756620.39762
 91  5  1  1 53 14.9850000  0  4G 2G 6G12G13
  19848646.6934   -6189293.33543   3214141.36361
  19804737.5054  -11085619.26145   6894214.29661
  16976135.6384  -27468167.11847 -19892582.62162
  17195340.4824  -38412856.80548    765270.83962
 91  5  1  1 53 29.9850000  0  4G 2G 6G12G13
  19853178.2164   -6165507.51943   3232675.72761
  19812647.4434  -11044084.93445   6926578.51561
  16968557.5834  -27507996.16148 -19923618.23263
  17197462.2474  -38401704.29748    773961.09562
 91  5  1  1 53 44.9850000  0  4G 2G 6G12G13
  19857720.8884   -6141660.48144   3251257.75961
  19820553.7474  -11002498.68545   6958983.22461
  16961003.6224  -27547677.47247 -19954538.73063
  17199593.3804  -38390505.55048    782687.38261
 91  5  1  1 53 59.9850000  0  4G 2G 6G12G13
  19862273.9974   -6117750.10943   3269889.20461
  19828480.0684  -10960858.57145   6991429.86361
  16953483.6854  -27587208.46748 -19985342.09263
  17201732.2084  -38379258.39548    791451.39361
 91  5  1  1 54 14.9850000  0  4G 2G 6G12G13
  19866830.5214   -6093778.68243   3288568.17061
  19836407.3964  -10919167.24444   7023916.43861
  16945987.4744  -27626591.18447 -20016029.91462
  17203883.4664  -38367965.42548    800251.11061
 91  5  1  1 54 29.9850000  0  4G 2G 6G12G13
  19871401.5214   -6069747.18343   3307293.95361
  19844348.8254  -10877426.01044   7056441.88761
  16938521.9504  -27665826.18947 -20046602.63663
  17206040.2244  -38356627.99948    809085.46661
 91  5  1  1 54 44.9850000  0  4G 2G 6G12G13
  19875991.3724   -6045649.88243   3326071.00161
  19852308.7784  -10835629.39044   7089010.52761
  16931085.5364  -27704907.58547 -20077055.66862
  17208208.8254  -38345240.51548    817958.82761
 91  5  1  1 54 59.9850000  0  4G 2G 6G12G13
  19880589.6614   -6021485.75644   3344900.12561
  19860275.8494  -10793776.73044   7121622.80961
  16923678.3804  -27743833.97647 -20107387.91063
  17210382.5914  -38333801.90448    826872.02161
 91  5  1  1 55 14.9850000  0  4G 2G 6G12G13
  19885203.1074   -5997258.24144   3363778.65861
  19868245.4504  -10751871.53044   7154276.02961
  16916299.2944  -27782608.43548 -20137601.76462
  17212568.3494  -38322315.85048    835822.18062
 91  5  1  1 55 29.9850000  0  4G 2G 6G12G13
  19889820.0684   -5972968.86645   3382705.37861
  19876232.2244  -10709915.66345   7186968.74561
  16908950.5214  -27821232.14748 -20167698.16463
  17214763.1774  -38310784.03248    844808.00161
 91  5  1  1 55 44.9850000  0  4G 2G 6G12G13
  19894451.5054   -5948623.72944   3401675.55161
  19884221.3494  -10667915.53644   7219695.91961
  16901627.6304  -27859710.86348 -20197681.57563
  17216964.8724  -38299212.97248    853824.39661
 91  5  1  1 55 59.9850000  0  4G 2G 6G12G13
  19899099.6934   -5924208.62044   3420700.23561
  19892229.8724  -10625857.07544   7252468.53261
  16894336.3804  -27898029.93848 -20227540.58262
  17219178.1464  -38287588.13048    862882.69661
 91  5  1  1 56 14.9850000  0  4G 2G 6G12G13
  19903759.7324   -5899729.56644   3439774.80561
  19900243.8024  -10583746.76945   7285281.59261
  16887072.8494  -27936195.22347 -20257279.76562
  17221399.4034  -38275915.78148    871978.03761
 91  5  1  1 56 29.9850000  0  4G 2G 6G12G13
  19908430.2324   -5875186.53144   3458899.15061
  19908268.3024  -10541584.89045   7318134.78161
  16879839.8334  -27974206.35948 -20286898.82563
  17223629.4504  -38264195.93148    881110.37561
 91  5  1  1 56 44.9850000  0  4G 2G 6G12G13
  19913109.8964   -5850576.39143   3478075.77961
  19916298.1614  -10499368.51845   7351030.49161
  16872635.7864  -28012059.93548 -20316395.11163
  17225869.6774  -38252426.02248    890281.73361
 91  5  1  1 56 59.9850000  0  4G 2G 6G12G13
  19917815.5214   -5825901.93345   3497302.60361
  19924341.4824  -10457100.73445   7383966.24561
  16865461.6384  -28049758.30948 -20345770.46963
  17228116.4034  -38240608.71448    899490.01161
 91  5  1  1 57 14.9850000  0  4G 2G 6G12G13
  19922511.7714   -5801158.63344   3516583.03961
  19932393.0834  -10414777.19144   7416945.42861
  16858318.4824  -28087296.53048 -20375021.02063
  17230376.0444  -38228739.85948    908738.46061
 91  5  1  1 57 29.9850000  0  4G 2G 6G12G13
  19927234.0364   -5776352.33044   3535912.56061
  19940456.5134  -10372404.05144   7449963.27061
  16851206.4194  -28124680.22848 -20404151.17162
  17232643.2004  -38216825.54048    918022.32161
 91  5  1  1 57 44.9850000  0  4G 2G 6G12G13
  19931963.4894   -5751485.72644   3555289.06561
  19948531.1774  -10329984.44444   7483017.32161
  16844121.7474  -28161911.80548 -20433162.78863
  17234918.2084  -38204868.42748    927339.54761
 91  5  1  1 57 59.9850000  0  4G 2G 6G12G13
  19936711.3574   -5726554.94444   3574715.59061
  19956616.1694  -10287514.47544   7516110.60861
  16837066.5834  -28198986.94948 -20462052.50462
  17237202.7244  -38192864.57648    936693.18161
 91  5  1  1 58 14.9850000  0  4G 2G 6G12G13
  19941460.5994   -5701558.71144   3594193.14061
  19964703.1854  -10244993.27544   7549243.82761
  16830041.0674  -28235904.17447 -20490819.17562
  17239497.8104  -38180813.01548    946083.99561
 91  5  1  1 58 29.9850000  0  4G 2G 6G12G13
  19946238.6534   -5676503.16045   3613716.89061
  19972805.0604  -10202427.11244   7582412.04961
  16823044.6144  -28272669.15747 -20519467.20763
  17241798.4744  -38168719.70848    955507.33362
 91  5  1  1 58 44.9850000  0  4G 2G 6G12G13
  19951016.9034   -5651379.89045   3633293.41561
  19980918.4974  -10159807.94045   7615621.58961
  16816078.8644  -28309273.19048 -20547989.82663
  17244109.5134  -38156576.44748    964969.59862
 91  5  1  1 58 59.9850000  0  4G 2G 6G12G13
  19955813.0054   -5626195.64945   3652917.41861
  19989036.8104  -10117143.00345   7648866.78061
  16809142.7084  -28345722.89148 -20576392.18162
  17246428.2324  -38144390.42848    974465.18262
 91  5  1  1 59 14.9850000  0  4G 2G 6G12G13
  19960611.8024   -5600944.96245   3672593.22861
  19997164.0364  -10074426.78044   7682151.95061
  16802236.9974  -28382012.31748 -20604669.65363
  17248755.6694  -38132156.17448    983998.36161
 91  5  1  1 59 29.9850000  0  4G 2G 6G12G13
  19965433.3574   -5575635.46945   3692314.86561
  20005301.0834  -10031667.50344   7715470.63261
  16795360.3494  -28418148.97848 -20632828.08163
  17251090.8964  -38119881.66048    993562.90661
 91  5  1  1 59 44.9850000  0  4G 2G 6G12G13
  19970259.0444   -5550262.77645   3712085.75061
  20013446.0054   -9988860.81944   7748826.31061
  16788512.4354  -28454127.88148 -20660863.58563
  17253434.3494  -38107562.41748   1003162.30561
 91  5  1  1 59 59.9850000  0  4G 2G 6G12G13
  19975093.9744   -5524827.73045   3731905.20261
  20021599.7394   -9946007.95244   7782217.93261
  16781696.8334  -28489949.67848 -20688776.67263
  17255787.9664  -38095199.67347   1012795.60361
 91  5  1  2  0 14.9850000  0  4G 2G 6G12G13
  19979952.7944   -5499328.13845   3751774.98961
  20029757.5914   -9903106.88344   7815647.09761
  16774910.9894  -28525611.75348 -20716565.29463
  17258149.9274  -38082791.05948   1022464.64261
 91  5  1  2  0 29.9850000  0  4G 2G 6G12G13
  19984815.6384   -5473764.25345   3771694.82261
  20037935.1074   -9860158.27144   7849113.37761
  16768155.0994  -28561114.22148 -20744229.54163
  17260519.2474  -38070336.86547   1032169.19761
 91  5  1  2  0 44.9850000  0  4G 2G 6G12G13
  19989693.7554   -5448141.60245   3791660.46661
  20046122.6854   -9817167.81244   7882612.20161
  16761428.3724  -28596462.19648 -20771773.41163
  17262896.6854  -38057843.08147   1041904.59761
 91  5  1  2  0 59.9850000  0  4G 2G 6G12G13
  19994579.1304   -5422453.39045   3811677.18461
  20054308.5134   -9774128.98044   7916148.74261
  16754732.5674  -28631648.53848 -20799191.32862
  17265282.5214  -38045303.00347   1051676.06961
 91  5  1  2  1 14.9850000  0  4G 2G 6G12G13
  19999483.0524   -5396699.19445   3831745.34661
  20062499.7004   -9731041.57543   7949723.15361
  16748068.2004  -28666672.35448 -20826482.61262
  17267677.8334  -38032716.16747   1061483.97261
 91  5  1  2  1 29.9850000  0  4G 2G 6G12G13
  20004396.6304   -5370886.71945   3851858.92461
  20070711.8804   -9687913.64143   7983329.14461
  16741431.4504  -28701541.34848 -20853653.24863
  17270081.3414  -38020090.59648   1071322.06961
 91  5  1  2  1 44.9850000  0  4G 2G 6G12G13
  20009315.1144   -5345011.16545   3872021.64161
  20078931.8964   -9644740.69643   8016970.18261
  16734826.4584  -28736250.38348 -20880699.24262
  17272492.7554  -38007421.58348   1081194.01061
 91  5  1  2  1 59.9850000  0  4G 2G 6G12G13
  20014253.0134   -5319074.95345   3892231.63461
  20087156.8024   -9601525.39043   8050644.20261
  16728251.8334  -28770801.44447 -20907622.13962
  17274910.5754  -37994711.50248   1091097.95861
 91  5  1  2  2 14.9850000  0  4G 2G 6G12G13
  20019195.2784   -5293073.62144   3912492.35261
  20095386.0444   -9558263.49744   8084354.61161
  16721708.2944  -28805189.84148 -20934418.27962
  17277337.6854  -37981956.11348   1101037.21361
 91  5  1  2  2 29.9850000  0  4G 2G 6G12G13
  20024156.5134   -5267008.07245   3932803.10861
  20103626.7394   -9514956.24644   8118100.31261
  16715194.3574  -28839416.18448 -20961088.14862
  17279772.9664  -37969156.44747   1111010.95461
 91  5  1  2  2 44.9850000  0  4G 2G 6G12G13
  20029132.8254   -5240875.80744   3953165.87661
  20111877.6074   -9471601.27043   8151883.20961
  16708713.0134  -28873477.59948 -20987629.49762
  17282217.2324  -37956309.90147   1121021.21861
 91  5  1  2  2 59.9850000  0  4G 2G 6G12G13
  20034117.5134   -5214678.54044   3973579.23961
  20120136.3724   -9428200.56043   8185701.73261
  16702263.3724  -28907375.54547 -21014043.47162
  17284671.1464  -37943418.59948   1131066.37361
 91  5  1  2  3 14.9850000  0  4G 2G 6G12G13
  20039120.4114   -5188415.49945   3994043.88961
  20128405.2864   -9384753.80443   8219556.11161
  16695843.9894  -28941109.05948 -21040329.32162
  17287134.0994  -37930482.05848   1141146.78661
 91  5  1  2  3 29.9850000  0  4G 2G 6G12G13
  20044125.2324   -5162086.37443   4014560.01661
  20136679.7864   -9341260.75343   8253446.58361
  16689455.3644  -28974677.28848 -21066486.38062
  17289603.3644  -37917499.80448   1151262.80961
 91  5  1  2  3 44.9850000  0  4G 2G 6G12G13
  20049141.3104   -5135699.30542   4035121.36761
  20144971.2554   -9297729.86844   8287366.54561
  16683099.0834  -29008088.09948 -21092520.76262
  17292081.4744  -37904479.92248   1161408.17261
 91  5  1  2  3 59.9850000  0  4G 2G 6G12G13
  20054179.0284   -5109245.94243   4055734.33361
  20153259.3414   -9254153.04844   8321322.27661
  16676772.8414  -29041333.00048 -21118425.87162
  17294566.8104  -37891414.25448   1171589.18861
 91  5  1  2  4 14.9850000  0  4G 2G 6G12G13
  20059230.9504   -5082729.79043   4076396.19061
  20161557.5364   -9210534.06344   8355310.91761
  16670477.0914  -29074415.24048 -21144204.23362
  17297061.8414  -37878306.81447   1181802.76361
 91  5  1  2  4 29.9850000  0  4G 2G 6G12G13
  20064281.3964   -5056144.69242   4097111.79661
  20169869.1464   -9166867.15644   8389336.88161
  16664214.6224  -29107328.30448 -21169850.77262
  17299564.7554  -37865151.31347   1192053.78461
 91  5  1  2  4 44.9850000  0  5G 2G20G 6G12G13
  20069359.1534   -5029498.28543   4117875.14961
  20529419.3574         -0.12652
  20178190.5524   -9123160.14844   8423394.03661
  16657979.8724  -29140079.64048 -21195371.29062
  17302075.1694  -37851955.78448   1202335.99761
 91  5  1  2  4 59.9850000  0  5G 2G20G 6G12G13
  20074449.9664   -5002789.79543   4138686.92661
  20516775.2714     -66473.66043
  20186510.6144   -9079412.43344   8457482.97761
  16651779.0604  -29172667.94947 -21220764.76163
  17304595.1464  -37838719.05048   1212650.31861
